     2.11           OBSERVATION DATA    G (GPS)             RINEX VERSION / TYPE
teqc 2010Oct21 OPUS Account 20111025 14:04:00UTC            PGM / RUN BY / DATE
H 1521                                                      MARKER NAME
1127                                                        MARKER NUMBER
CSMIDDLETON NGS                                             OBSERVER / AGENCY
0220287165 TRIMBLE 5700 NP 2.32 / SP 2.32                   REC # / TYPE / VERS
11909788 TRM41249.00 NONE                                   ANT # / TYPE
  -738802.9780 -5466248.6333  3191848.6179                  APPROX POSITION XYZ
        1.9990        0.0000        0.0000                  ANTENNA: DELTA H/E/N
     1     1                                                WAVELENGTH FACT L1/2
     5    L1    L2    C1    P1    P2                        # / TYPES OF OBSERV
  2011     7    23    18    26    0.0000000     GPS         TIME OF FIRST OBS
                                                            END OF HEADER
 11  7 23 18 26  0.0000000  0  6G03G06G07G13G19G23
    -20015.39157     -9152.13355  21563382.3914                   21563380.5514
      -933.69556      -521.45754  23381652.6804                   23381651.3794
   -158078.52357    -70345.25855  21710939.2034                   21710936.5944
    -68309.00857    -32241.40256  20220121.0474                   20220118.4024
   -105641.66057    -47801.71956  21060516.8524                   21060513.0474
     -1182.33658      -725.96555  21225990.1884                   21225986.1174
 11  7 23 18 26 30.0000000  0 11G03G06G07G10G11G16G13G28G19G23G08
    -37944.19547    -23122.66445  21559970.8834                   21559968.8204
     -2828.49246     -1997.98043  23381291.0164                   23381290.2034
   -293027.48447   -175500.29345  21685259.2424                   21685256.8014
    -58093.29356    -34619.80953  24203229.1954                   24203229.1054
   -207930.80956    -31862.21953  24433128.4774                   24433129.4184
     12190.13356      7119.12953  24208187.8834                   24208185.3954
   -126867.49647    -77871.44946  20208977.7664                   20208975.4024
   -192038.78956   -111997.14153  24236371.6334                   24236373.0004
   -196211.91447   -118375.95746  21043282.1174                   21043277.8324
     -3187.71548     -2288.66845  21225608.1024                   21225604.5784
   -198252.77356   -118595.28153  23582489.6564                   23582488.5274
 11  7 23 18 27  0.0000000  0 11G03G06G07G10G11G16G13G28G19G23G08
    -56056.77747    -37236.42245  21556523.6884                   21556522.2154
     -5065.25046     -3740.98843  23380866.3054                   23380864.5514
   -428580.46547   -281125.98445  21659463.8914                   21659461.2584
   -103436.09046    -69951.94543  24194600.5784                   24194601.2544
   -369594.40246   -157833.68042  24402364.6644                   24402366.2194
     20710.78546     13758.46543  24209807.7114                   24209807.4414
   -185526.82047   -123580.05546  20197815.6724                   20197812.5634
   -341146.82046   -228185.07842  24207997.9384                   24207997.9694
   -286860.83647   -189011.50446  21026032.1024                   21026028.2274
     -5452.57847     -4053.57445  21225177.5634                   21225173.4064
   -352159.10946   -238522.29743  23553201.9064                   23553202.0554
 11  7 23 18 27 30.0000000  0 11G03G06G07G10G11G16G13G28G19G23G08
    -74208.59047    -51380.74245  21553069.5004                   21553068.1844
     -7499.56247     -5637.89144  23380403.2894                   23380402.6844
   -564589.50847   -387107.06645  21633582.7424                   21633579.6884
   -148967.73046   -105431.29343  24185935.8134                   24185936.5664
   -531874.42645   -284285.54742  24371481.6644                   24371486.3914
     28634.94546     19933.06343  24211316.8914                   24211314.8874
   -244140.41048   -169253.02046  20186661.2344                   20186658.8094
   -490588.62946   -344633.13343  24179560.3754                   24179560.4734
   -377441.08647   -259593.52746  21008794.7974                   21008791.2774
     -7832.62947     -5908.23845  21224724.5474                   21224720.3874
   -506658.43046   -358911.31643  23523801.0704                   23523801.2734
 11  7 23 18 28  0.0000000  0 11G03G06G07G10G11G16G13G28G19G23G08
    -92351.88347    -65518.42245  21549617.0554                   21549615.7344
    -10084.05546     -7651.83644  23379911.3054                   23379909.7504
   -701003.61347   -493403.76245  21607623.9694                   21607621.2974
   -194641.01646   -141020.91443  24177243.9384                   24177245.0554
   -694719.00845   -411177.28542  24340492.6254                   24340498.9024
     36011.25446     25680.76643  24212720.0234                   24212718.8094
   -302658.85947   -214851.85546  20175525.7814                   20175523.2934
   -640314.21146   -461302.31643  24151068.2194                   24151068.3014
   -467902.62547   -330083.04346  20991580.7274                   20991576.6254
    -10279.86747     -7815.25045  21224258.4844                   21224255.6954
   -661700.62546   -479723.40643  23494297.5864                   23494297.1764
 11  7 23 18 28 30.0000000  0 11G03G06G07G10G11G16G13G28G19G23G08
   -110454.67647    -79624.53945  21546172.3444                   21546170.6564
    -12786.98046     -9758.05144  23379396.5004                   23379395.8714
   -837787.08647   -599988.28145  21581594.7194                   21581592.4884
   -240423.36746   -176695.64843  24168532.8984                   24168533.1024
   -858091.17245   -538480.19542  24309404.9304                   24309411.8914
     42872.89146     31027.43043  24214027.0704                   24214024.8484
   -361047.99247   -260349.92246  20164414.5634                   20164412.0474
   -790288.83646   -578165.59043  24122528.3364                   24122529.1804
   -558210.26247   -400452.64546  20974395.7504                   20974392.0124
    -12762.23447     -9749.64845  21223786.2664                   21223783.1804
   -817250.90646   -600931.37944  23464696.9694                   23464696.4804
 11  7 23 18 29  0.0000000  0 11G03G06G07G10G11G16G13G28G19G23G08
   -128499.40647    -93685.41045  21542738.2344                   21542736.7854
    -15590.60546    -11942.75043  23378863.6884                   23378862.3554
   -974919.00047   -706844.30545  21555499.0164                   21555497.0514
   -286297.38346   -212441.69543  24159802.9144                   24159804.0314
  -1021968.20745   -666176.37142  24278221.4304                   24278226.1134
     49238.39846     35987.46943  24215238.1724                   24215236.0984
   -419288.59447   -305732.24246  20153331.9304                   20153329.3094
   -940492.25446   -695207.14143  24093945.9144                   24093946.1024
   -648343.89147   -470686.65246  20957243.5784                   20957240.0904
    -15261.93047    -11697.53545  21223310.8594                   21223307.1334
   -973288.56647   -722519.13744  23435004.7894                   23435004.1294
 11  7 23 18 29 30.0000000  0 11G03G06G07G10G11G16G13G28G19G23G08
   -146463.30547   -107683.30945  21539319.9454                   21539318.8324
    -18472.03546    -14188.08643  23378314.5634                   23378314.3554
  -1112372.20747   -813950.70745  21529343.0864                   21529340.5164
   -332239.99246   -248241.20743  24151061.0164                   24151061.3594
  -1186321.89846   -794244.00042  24246945.5474                   24246949.0234
     55132.26246     40580.07043  24216358.5234                   24216358.3094
   -477355.32447   -350979.09846  20142282.5704                   20142279.5474
  -1090899.18046   -812407.26643  24065324.6334                   24065324.3554
   -738277.23447   -540764.59046  20940130.7034                   20940126.5234
    -17755.82047    -13640.89545  21222836.4064                   21222832.7384
  -1129787.50047   -844466.32444  23405224.6254                   23405223.1214
 11  7 23 18 30  0.0000000  0 11G03G06G07G10G11G16G13G28G19G23G08
   -164330.29347   -121605.68045  21535920.3984                   21535918.2034
    -21415.21946    -16481.52044  23377754.7974                   23377754.6844
  -1250127.90647   -921292.80145  21503129.2274                   21503126.2664
   -378235.32846   -284081.80143  24142307.1954                   24142309.8324
  -1351130.96946   -922666.41842  24215582.3834                   24215586.7384
     60571.80946     44818.58243  24217394.2274                   24217393.3204
   -535230.23047   -396076.45346  20131268.4144                   20131265.8874
  -1241491.03546   -929751.50843  24036667.7034                   24036667.9064
   -827991.51647   -610671.83646  20923058.3834                   20923053.7504
    -20227.94947    -15567.30945  21222366.2974                   21222362.7234
  -1286728.93747   -966758.32844  23375359.2114                   23375358.4064
 11  7 23 18 30 30.0000000  0 11G03G06G07G10G11G16G13G28G19G23G08
   -182092.55547   -135446.46144  21532540.0474                   21532538.3164
    -24412.40246    -18817.05144  23377185.1564                   23377184.2934
  -1388174.05547  -1028861.22345  21476859.5314                   21476857.0784
   -424275.28946   -319957.22343  24133546.7664                   24133548.6054
  -1516383.00846  -1051434.06643  24184136.5864                   24184139.0394
     65565.92246     48710.04743  24218344.7974                   24218343.4384
   -592903.28147   -441016.52746  20120294.3054                   20120291.5314
  -1392257.56646  -1047231.85243  24007977.2814                   24007977.0474
   -917476.45347   -680400.37146  20906029.3444                   20906025.3754
    -22670.30547    -17470.51645  21221900.9534                   21221897.8484
  -1444102.13747  -1089386.74244  23345412.2894                   23345411.7734
 11  7 23 18 31  0.0000000  0 11G03G06G07G10G11G16G13G28G19G23G08
   -199743.75847   -149200.68045  21529180.8364                   21529179.7624
    -27457.45746    -21189.87944  23376605.3054                   23376604.7894
  -1526501.27347  -1136648.64545  21450536.6564                   21450534.1374
   -470353.69946   -355862.55943  24124777.9774                   24124780.1454
  -1682066.80946  -1180538.20343  24152607.5864                   24152610.3954
     70122.04746     52260.18443  24219212.5164                   24219210.5434
   -650366.55547   -485793.14546  20109359.2194                   20109356.7974
  -1543190.10246  -1164841.52343  23979256.0944                   23979255.5824
  -1006723.08247   -749943.21546  20889046.4224                   20889042.8204
    -25076.64547    -19345.66045  21221443.6094                   21221440.4384
  -1601898.36347  -1212344.80144  23315384.3834                   23315383.8834
 11  7 23 18 31 30.0000000  0 11G03G06G07G10G11G16G13G28G19G23G08
   -217275.69547   -162861.96144  21525845.0084                   21525843.3204
    -30541.85946    -23593.36344  23376018.1884                   23376017.4804
  -1665096.96147  -1244645.27045  21424162.6174                   21424160.0704
   -516462.07046   -391791.24243  24116004.9924                   24116006.2154
  -1848168.40646  -1309967.87543  24120998.3834                   24121001.9144
     74250.05546     55476.82843  24219998.2894                   24219995.9694
   -707609.57047   -530398.13346  20098466.5234                   20098463.5704
  -1694277.54346  -1282571.95743  23950504.8524                   23950505.1454
  -1095719.97747   -819291.44946  20872111.2344                   20872107.1294
    -27438.67648    -21186.28145  21220994.1724                   21220990.4574
  -1760105.79347  -1335623.28544  23285278.4924                   23285277.7544
 11  7 23 18 32  0.0000000  0 11G03G06G07G10G11G16G13G28G19G23G08
   -234678.02747   -176422.26644  21522533.6484                   21522531.5864
    -33655.71146    -26019.77343  23375425.5784                   23375425.0234
  -1803947.70747  -1352840.64145  21397740.9064                   21397738.1644
   -562590.58246   -427735.68043  24107226.2664                   24107228.0124
  -2014673.02346  -1439711.59442  24089314.1804                   24089317.0124
     77961.35946     58368.65643  24220703.5004                   24220702.3244
   -764620.44547   -574822.23046  20087617.7194                   20087614.8794
  -1845507.53146  -1400413.44143  23921726.9454                   23921727.0314
  -1184454.49247   -888435.23446  20855225.6024                   20855221.2584
    -29745.58247    -22983.93445  21220555.2344                   21220551.8554
  -1918711.41847  -1459212.04744  23255096.9454                   23255095.7664
 11  7 23 18 32 30.0000000  0 11G03G06G07G10G11G16G13G28G19G23G08
   -251946.35547   -189878.13744  21519247.4774                   21519245.9304
    -36794.45746    -28465.62944  23374828.2344                   23374827.9024
  -1943045.14847  -1461228.23845  21371270.8444                   21371268.7584
   -608734.57046   -463692.15643  24098445.5554                   24098447.5784
  -2181570.59446  -1569761.51242  24057555.6804                   24057556.8554
     81261.68446     60940.35942  24221332.2734                   24221330.6024
   -821392.55948   -619060.27046  20076814.3054                   20076811.8164
  -1996873.11346  -1518360.55143  23892922.7504                   23892922.5904
  -1272919.45347   -957368.96546  20838391.1024                   20838386.9774
    -31992.97347    -24735.23845  21220127.3134                   21220124.2504
  -2077707.67647  -1583105.18044  23224840.5474                   23224839.5274
 11  7 23 18 33  0.0000000  0 11G03G06G07G10G11G16G13G28G19G23G08
   -269079.87147   -203228.97744  21515987.2034                   21515985.4654
    -39957.10246    -30930.05543  23374226.2114                   23374225.0394
  -2082384.58647  -1569804.41045  21344755.4694                   21344753.2934
   -654892.88746   -499659.77043  24089662.9534                   24089663.8054
  -2348855.04346  -1700112.83243  24025721.8834                   24025723.0354
     84153.20346     63193.42642  24221882.4224                   24221880.8054
   -877922.98047   -663109.97746  20066056.8594                   20066054.0944
  -2148370.55946  -1636410.43043  23864093.9454                   23864093.8754
  -1361110.88747  -1026089.57046  20821608.9384                   20821605.1334
    -34179.57448    -26439.14545  21219711.6644                   21219707.6764
  -2237090.44547  -1707299.50444  23194511.6094                   23194510.2734
 11  7 23 18 33 30.0000000  0 11G03G06G07G10G11G16G13G28G19G23G08
   -286071.65647   -216469.38344  21512753.5234                   21512752.0044
    -43137.11746    -33408.02043  23373621.6804                   23373620.0904
  -2221956.03947  -1678561.36345  21318195.9694                   21318193.4224
   -701058.76646   -535633.25443  24080876.8284                   24080878.4844
  -2516514.81646  -1830756.62942  23993816.5314                   23993817.7464
     86644.12946     65134.37942  24222356.0634                   24222354.7774
   -934203.43047   -706964.90646  20055347.0314                   20055344.6604
  -2299990.66446  -1754555.87543  23835241.1334                   23835241.8364
  -1449019.96948  -1094590.16446  20804880.1024                   20804876.7624
    -36299.23047    -28090.89145  21219308.3834                   21219304.3324
  -2396850.23447  -1831787.63344  23164109.8754                   23164108.6094
 11  7 23 18 34  0.0000000  0 11G03G06G07G10G11G16G13G28G19G23G08
   1272497.73447    998000.23444  21809340.0234                   21809338.0394
   1529084.69146   1191699.84443  23672805.6724                   23672804.4104
   -786331.60947   -559892.97745  21591386.2034                   21591383.9184
    828188.07846    655987.57043  24371883.8364                   24371884.5004
  -1109119.90646   -734085.16443  24261634.3594                   24261636.2624
   1664154.55545   1294363.23442  24522546.6954                   24522544.9414
    585188.89848    476977.13346  20344477.9614                   20344475.2734
   -876307.18046   -645192.03543  24106159.1024                   24106159.2234
     38778.02747     64732.94146  21087998.9454                   21087994.8834
   1537067.48847   1197909.05945  21518710.2734                   21518706.3754
   -981559.66047   -728963.76643  23433430.7504                   23433429.7894
 11  7 23 18 34 30.0000000  0 11G03G06G07G10G11G16G13G28G19G23G08
   1255791.57047    984982.39544  21806160.7734                   21806159.0554
   1525872.55146   1189196.80943  23672193.6564                   23672192.8594
   -926352.76647   -669000.35946  21564740.7274                   21564738.6254
    782009.05545    620003.82043  24363095.8364                   24363096.2704
  -1277512.27346   -865299.80943  24229590.9924                   24229592.3594
   1665850.70745   1295684.82842  24522867.8754                   24522868.2074
    529416.70747    433518.25446  20333864.6564                   20333861.6884
  -1028163.01646   -763521.20743  24077261.0314                   24077262.0044
    -48555.63747     -3319.27046  21071380.5234                   21071376.1484
   1535085.08247   1196364.25045  21518333.2344                   21518329.1644
  -1142061.72347   -854030.26643  23402888.5474                   23402887.5354
 11  7 23 18 35  0.0000000  0 11G03G06G07G10G11G16G13G28G19G23G08
   1239234.12547    972080.44944  21803010.7114                   21803008.4064
   1522650.43846   1186686.02343  23671580.2194                   23671579.3984
  -1066587.08247   -778273.84845  21538055.4454                   21538052.9144
    735829.69146    584019.77743  24354308.5864                   24354309.8324
  -1446256.91046   -996788.96943  24197479.7974                   24197480.5594
   1667157.72345   1296703.16042  24523118.3134                   24523117.1094
    473907.44147    390264.25446  20323301.4774                   20323299.0354
  -1180126.73846   -881934.39543  24048345.2734                   24048343.8914
   -135591.39847    -71139.34446  21054817.7734                   21054813.4064
   1533177.54747   1194877.78145  21517969.4694                   21517966.5354
  -1302924.30946   -979377.68044  23372275.9454                   23372275.7624
 11  7 23 18 35 30.0000000  0 11G03G06G07G10G11G16G13G28G19G23G08
   1222829.52347    959297.62544  21799888.0004                   21799886.9574
   1519422.42246   1184170.64543  23670966.6804                   23670966.0554
  -1207026.56247   -887707.19545  21511330.5164                   21511328.0434
    689654.07446    548038.71543  24345521.6024                   24345522.9884
  -1615344.10346  -1128545.00543  24165303.2734                   24165305.3204
   1668081.44945   1297422.85942  24523293.9774                   24523293.7584
    418667.08647    347219.78546  20312790.0164                   20312786.7304
  -1332192.07846  -1000426.75443  24019405.9064                   24019406.7664
   -222322.72747   -138722.19946  21038312.7584                   21038308.9534
   1531349.10947   1193452.92645  21517622.0944                   21517618.5084
  -1464139.78547  -1105000.09444  23341598.7734                   23341597.8444
 11  7 23 18 36  0.0000000  0 11G03G06G07G10G11G16G13G28G19G23G08
   1206579.22747    946635.01244  21796795.7584                   21796794.5634
   1516190.23846   1181652.00443  23670352.1174                   23670350.7814
  -1347666.07848   -997296.41445  21484567.8754                   21484565.5314
    643483.61746    512061.62543  24336736.3524                   24336736.6844
  -1784767.55146  -1260563.12543  24133063.4384                   24133064.7344
   1668624.28545   1297845.80542  24523398.4384                   24523396.7704
    363698.76247    304387.28946  20302329.7274                   20302326.6454
  -1484354.87946  -1118995.08643  23990451.6644                   23990451.1884
   -308745.57047   -206064.66846  21021867.6024                   21021863.1914
   1529601.25447   1192090.89545  21517289.4144                   21517285.6564
  -1625703.84047  -1230894.12543  23310853.6644                   23310852.3404
 11  7 23 18 36 30.0000000  0 11G03G06G07G10G11G16G13G28G19G23G08
   1190484.01247    934093.24644  21793733.2114                   21793731.6214
   1512954.27746   1179130.44943  23669736.9534                   23669735.5164
  -1488500.88348  -1107037.82445  21457767.6334                   21457764.9144
    597319.04346    476089.12143  24327950.3594                   24327951.8164
  -1954521.27046  -1392838.60543  24100759.3674                   24100760.9804
   1668789.01645   1297974.07442  24523430.7424                   24523428.1644
    309005.05948    261768.79346  20291921.7034                   20291918.9844
  -1636611.90646  -1237636.81243  23961477.7814                   23961477.8954
   -394856.82447   -273164.35546  21005481.2814                   21005477.0944
   1527934.67647   1190792.16845  21516972.2274                   21516968.5274
  -1787612.47347  -1357056.67243  23280044.0554                   23280042.6294
 11  7 23 18 37  0.0000000  0 11G03G06G07G10G11G16G13G28G19G23G08
   1174542.38347    921671.16444  21790699.8204                   21790697.5274
   1509713.36346   1176605.03143  23669119.6024                   23669118.2344
  -1629528.76247  -1216929.66445  21430931.5554                   21430928.5944
    551158.92646    440120.07043  24319166.9774                   24319169.0824
  -2124601.31646  -1525368.32843  24068395.3364                   24068396.1844
   1668575.42246   1297807.58643  24523388.0864                   24523385.8484
    254586.37947    219364.57846  20281566.5634                   20281563.8834
  -1788961.95746  -1356351.02043  23932486.5474                   23932486.0904
   -480655.18747   -340020.23446  20989153.8444                   20989150.2664
   1526348.08247   1189555.78545  21516670.5394                   21516667.1484
  -1949863.68747  -1483486.14843  23249167.6414                   23249167.2854
 11  7 23 18 37 30.0000000  0 11G03G06G07G10G11G16G13G28G19G23G08
   1158754.43047    909368.83244  21787694.8984                   21787693.6884
   1506467.87946   1174076.02043  23668501.5704                   23668500.3134
  -1770745.34047  -1326968.55945  21404058.7194                   21404056.1564
    505003.43846    404154.68443  24310382.8984                   24310385.2734
  -2295001.92646  -1658147.81243  24035967.9844                   24035969.4964
   1667985.16046   1297347.57043  24523275.4534                   24523274.2774
    200444.99647    177176.45746  20271263.4224                   20271260.7464
  -1941402.46546  -1475135.76643  23903477.8364                   23903477.4384
   -566138.04347   -406630.25046  20972887.4064                   20972883.1954
   1524841.85547   1188382.02745  21516383.5164                   21516379.7154
  -2112454.32846  -1610180.10544  23218228.2664                   23218226.9734
 11  7 23 18 38  0.0000000  0 11G03G06G07G10G11G16G13G28G19G23G08
   1143117.36747    897184.07044  21784719.5314                   21784718.0394
   1503214.99246   1171541.30543  23667883.1564                   23667881.3834
  -1912149.57847  -1437153.65646  21377150.4384                   21377147.4494
    458850.09846    368190.89843  24301602.1334                   24301602.9184
  -2465720.92646  -1791175.48043  24003480.9614                   24003482.5204
   1667017.22346   1296593.30543  24523091.2344                   24523090.6454
    146579.92647    135203.64546  20261014.0004                   20261010.5824
  -2093933.40646  -1593990.93743  23874452.0864                   23874451.5704
   -651305.45747   -472994.47346  20956680.5314                   20956677.0274
   1523413.59447   1187269.02345  21516112.2974                   21516108.7934
  -2275384.03547  -1737138.28944  23187223.8364                   23187222.5124
 11  7 23 18 38 30.0000000  0 11G03G06G07G10G11G16G13G28G19G23G08
   1127633.11347    885118.39144  21781773.5234                   21781771.5594
   1499956.87146   1169002.43443  23667262.0084                   23667261.2584
  -2053735.30147  -1547480.19546  21350207.5864                   21350205.0744
    412701.28946    332230.69143  24292819.4064                   24292821.0904
  -2636750.45746  -1924445.11743  23970935.0704                   23970936.9144
   1665675.44946   1295547.69143  24522836.7894                   24522835.9384
     92994.53547     93448.75446  20250816.5944                   20250813.7344
  -2246550.46946  -1712913.20743  23845409.5164                   23845409.6294
   -736152.88747   -539109.35946  20940534.3674                   20940530.1954
   1522065.18047   1186218.20345  21515855.8364                   21515852.3754
  -2438647.14847  -1864356.24644  23156155.6884                   23156154.4534
 11  7 23 18 39  0.0000000  0 11G03G06G07G10G11G16G13G28G19G23G08
   1112301.25447    873171.45344  21778855.2424                   21778854.2274
   1496693.07446   1166459.16443  23666642.5944                   23666640.8554
  -2195499.38747  -1657945.69946  21323230.5784                   21323228.3524
    366556.41046    296273.51643  24284039.5234                   24284040.3714
  -2808085.90646  -2057953.14143  23938331.5864                   23938332.6134
   1663960.69946   1294211.42243  24522510.5004                   24522509.3324
     39689.97747     51912.69146  20240673.0004                   20240670.4144
  -2399251.49646  -1831900.91443  23816352.0784                   23816351.3444
   -820678.31247   -604973.32446  20924449.9304                   20924445.8484
   1520796.46547   1185229.52345  21515614.8984                   21515611.0904
  -2602240.77747  -1991831.78144  23125025.5164                   23125023.7544
 11  7 23 18 39 30.0000000  0 10G03G06G07G10G11G13G28G19G23G08
   1097126.75447    861347.13744  21775967.5164                   21775966.9024
   1493428.55146   1163915.36743  23666020.8984                   23666019.7664
  -2337432.94547  -1768543.25445  21296221.2274                   21296218.6454
    320420.00446    260322.99643  24275258.2734                   24275260.5984
  -2979717.01646  -2191691.55143  23905671.5554                   23905672.3444
    -13326.93748     10600.77046  20230584.2194                   20230581.6374
  -2552029.14146  -1950948.32443  23787279.1954                   23787279.2814
   -904874.47347   -670580.73046  20908428.1254                   20908423.5944
   1519612.05947   1184306.54745  21515388.4924                   21515385.5124
  -2766157.10247  -2119558.75444  23093832.8054                   23093831.9534
 11  7 23 18 40  0.0000000  0 10G03G06G07G10G11G13G28G19G23G08
   1082106.72747    849643.16844  21773109.5164                   21773108.0314
   1490160.18446   1161368.53543  23665399.2034                   23665397.4104
  -2479535.01247  -1879272.13745  21269180.2894                   21269178.2114
    274289.33246    224376.89543  24266481.8834                   24266482.6094
  -3151641.48846  -2325658.52343  23872955.1644                   23872955.3874
    -66057.48048    -30487.99246  20220550.1414                   20220547.4384
  -2704884.09047  -2070056.04743  23758192.7114                   23758191.1954
   -988742.22347   -735932.23046  20892468.5394                   20892464.1294
   1518509.07847   1183446.99645  21515178.8674                   21515176.0124
  -2930395.79347  -2247536.91043  23062578.8914                   23062577.7814
 11  7 23 18 40 30.0000000  0 10G03G06G07G10G11G13G28G19G23G08
   1067252.71947    838068.59444  21770283.2504                   21770281.3984
   1486900.19146   1158828.25843  23664779.2974                   23664776.9344
  -2621789.72347  -1990119.95345  21242110.1094                   21242107.6994
    228175.81646    188444.14542  24257706.2734                   24257706.9694
  -3323842.09846  -2459840.69143  23840185.6884                   23840186.7344
   -118488.36348    -71343.27746  20210573.2894                   20210569.8014
  -2857801.81246  -2189212.60543  23729092.2974                   23729091.2974
  -1072267.13347   -801016.56646  20876574.3754                   20876570.4804
   1517499.27747   1182660.05945  21514987.3674                   21514984.0704
  -3094941.60947  -2375754.40244  23031267.2894                   23031265.2544
 11  7 23 18 41  0.0000000  0 10G03G06G07G10G11G13G28G19G23G08
   1052568.71947    826626.48444  21767488.6724                   21767487.5664
   1483652.57046   1156297.57443  23664160.6484                   23664158.6644
  -2764188.89547  -2101080.34045  21215012.6564                   21215009.6054
    182083.95346    152528.38743  24248934.5704                   24248935.9774
  -3496308.62946  -2594230.12143  23807366.0474                   23807367.7304
   -170613.57847   -111960.35946  20200653.9454                   20200650.8834
  -3010775.93746  -2308413.19143  23699982.3914                   23699982.3324
  -1155442.75447   -865828.74246  20860746.5474                   20860742.6764
   1516586.96547   1181949.10245  21514813.5084                   21514809.9734
  -3259786.92647  -2504205.26644  22999898.0864                   22999896.2664
 11  7 23 18 41 30.0000000  0 10G03G06G07G10G11G13G28G19G23G08
   1038054.71147    815316.84444  21764727.4614                   21764724.9224
   1480417.32046   1153776.55943  23663544.9304                   23663543.4064
  -2906728.69147  -2212150.31245  21187888.3834                   21187885.3834
    136013.95746    116629.52743  24240168.6334                   24240169.5784
  -3669036.33246  -2728823.09842  23774497.6644                   23774498.7584
   -222431.57048   -152338.03546  20190793.6024                   20190791.0124
  -3163803.76246  -2427655.55543  23670861.5554                   23670861.7584
  -1238266.82847   -930366.98046  20844985.4694                   20844981.2664
   1515772.18447   1181314.13745  21514658.4064                   21514655.3204
  -3424928.55147  -2632887.01244  22968472.9774                   22968471.0234
 11  7 23 18 42  0.0000000  0 10G03G06G07G10G11G13G28G19G23G08
   1023712.98847    804141.44544  21761997.9454                   21761996.0944
   1477197.16446   1151267.30944  23662931.7814                   23662931.2934
  -3049402.57047  -2323324.75445  21160738.3754                   21160735.2734
     89967.94146     80749.45743  24231406.6804                   24231408.1724
  -3842017.38746  -2863613.39843  23741579.9144                   23741581.4804
   -273938.48047   -192473.34846  20180991.9924                   20180988.9964
  -3316880.35946  -2546935.94543  23641733.0474                   23641731.4654
  -1320734.57847   -994627.55546  20829292.3204                   20829288.1804
   1515057.73847   1180757.34445  21514522.7584                   21514519.1804
  -3590360.50047  -2761794.98444  22936992.1884                   22936990.7154
 11  7 23 18 42 30.0000000  0 10G03G06G07G10G11G13G28G19G23G08
   1009547.19147    793103.14144  21759302.4304                   21759300.6294
   1473995.74646   1148772.61343  23662323.4384                   23662322.5984
  -3192203.10947  -2434597.91445  21133563.8834                   21133561.2154
     43949.27046     44890.59043  24222648.4454                   24222650.4184
  -4015242.51646  -2998593.90242  23708615.9924                   23708617.3164
   -325129.05947   -232362.14146  20171250.6804                   20171248.2344
  -3470000.18046  -2666249.97743  23612594.6254                   23612593.6914
  -1402840.25447  -1058606.00845  20813667.8054                   20813663.6914
   1514446.86747   1180281.25445  21514406.4224                   21514403.2814
  -3756076.22347  -2890924.08644  22905457.2584                   22905456.1094
 11  7 23 18 43  0.0000000  0 10G03G06G07G10G11G13G28G19G23G08
   2570970.32047   2009796.43444  22056430.9384                   22056429.7194
   3046225.38746   2373886.55943  23961508.6024                   23961508.0514
  -1759708.89847  -1318368.64545  21406158.3594                   21406156.0084
   1573372.20346   1236648.62543  24513688.9614                   24513690.6724
  -2613288.33246  -1906162.02342  23975398.8364                   23975400.1954
   1199412.27748    955592.10546  20461361.5234                   20461358.5354
  -2047742.62946  -1557997.24243  23883240.8594                   23883239.9024
     90833.70747    105295.78146  21097904.9534                   21097900.9024
   3089352.06647   2407480.00845  21814100.8134                   21814097.6604
  -2346654.13747  -1792673.09844  23173661.3594                   23173660.2504
 11  7 23 18 43 30.0000000  0 10G03G06G07G10G11G13G28G19G23G08
   2557143.37147   1999022.13744  22053800.7344                   22053798.5904
   3043048.85546   2371411.30543  23960903.5554                   23960903.3204
  -1902762.97347  -1429839.33645  21378936.0164                   21378933.6134
   1527396.16246   1200823.09843  24504939.8914                   24504941.8954
  -2786998.00446  -2041520.09442  23942343.8524                   23942344.1024
   1148846.14148    916189.88746  20451738.2344                   20451736.3244
  -2200952.94146  -1677381.82043  23854085.7424                   23854085.4614
      9446.58647     41877.23846  21082417.6024                   21082413.0004
   3088935.90647   2407155.62945  21814021.9224                   21814018.3754
  -2512939.09047  -1922245.73844  23142018.6414                   23142016.6644
 11  7 23 18 44  0.0000000  0 10G03G06G07G10G11G13G28G19G23G08
   2543486.12947   1988380.10944  22051201.5164                   22051199.6994
   3039885.29346   2368946.16443  23960301.9454                   23960301.1724
  -2045937.31647  -1541403.75045  21351691.2974                   21351688.5744
   1481441.93846   1165014.50843  24496194.1334                   24496196.8984
  -2960941.37146  -2177060.23042  23909243.6804                   23909244.2774
   1098594.66447    877032.84446  20442176.6254                   20442173.2814
  -2354204.69546  -1796798.69943  23824922.7274                   23824922.4804
    -71577.81647    -21258.66046  21066999.2194                   21066994.8984
   3088617.46147   2406907.41845  21813960.5784                   21813957.6054
  -2679503.45747  -2052036.10944  23110321.6804                   23110321.3984
 11  7 23 18 44 30.0000000  0 10G03G06G07G10G11G13G28G19G23G08
   2529996.49647   1977868.67244  22048634.3284                   22048632.4064
   3036732.75846   2366489.55943  23959702.2344                   23959701.7074
  -2189229.94547  -1653060.33645  21324423.1414                   21324420.5394
   1435507.14145   1129220.99243  24487454.3134                   24487455.9344
  -3135115.08646  -2312779.86343  23876098.6884                   23876099.5784
   1048657.84048    838120.99646  20432673.5704                   20432670.8284
  -2507497.25446  -1916247.32843  23795751.8524                   23795752.2304
   -152239.19547    -84111.68746  21051649.4534                   21051645.8324
   3088394.93047   2406733.92245  21813918.9064                   21813915.4804
  -2846345.66046  -2182042.97744  23078573.5234                   23078572.1054
 11  7 23 18 45  0.0000000  0 10G03G06G07G10G11G13G28G19G23G08
   2516674.98447   1967488.24244  22046099.4694                   22046097.7734
   3033591.86746   2364042.10243  23959104.1954                   23959103.4454
  -2332636.09047  -1764805.37545  21297134.0234                   21297131.6994
   1389592.55946   1093443.31643  24478717.0314                   24478718.2624
  -3309512.82446  -2448674.07043  23842911.3054                   23842913.2774
    999037.24648    799455.56646  20423230.6484                   20423228.4804
  -2660827.89146  -2035725.64843  23766574.1804                   23766574.2304
   -232534.50847   -146679.46146  21036369.9384                   21036366.2814
   3088268.67247   2406635.44545  21813895.3204                   21813892.1454
  -3013461.66446  -2312263.21544  23046772.2114                   23046770.7584
 11  7 23 18 45 30.0000000  0 10G03G06G07G10G11G13G28G19G23G08
   2503520.76647   1957238.19144  22043596.1644                   22043594.3524
   3030462.40646   2361603.53543  23958508.8914                   23958508.4694
  -2476152.27747  -1876636.15245  21269823.6644                   21269821.0274
   1343697.90646   1057681.21542  24469983.3054                   24469985.1334
  -3484129.57446  -2584738.96943  23809682.0314                   23809684.5004
    949734.03147    761037.43046  20413849.0084                   20413846.3874
  -2814194.56246  -2155232.03943  23737389.4694                   23737389.0984
   -312462.21547   -208960.81246  21021160.4064                   21021156.4344
   3088238.37947   2406611.73845  21813888.9534                   21813886.4534
  -3180848.19546  -2442694.26244  23014918.8364                   23014917.6994
 11  7 23 18 46  0.0000000  0 10G03G06G07G10G11G13G28G19G23G08
   2490540.94547   1947124.00444  22041125.5164                   22041124.5274
   3027351.35946   2359179.32043  23957917.7424                   23957915.8754
  -2619767.48848  -1988544.10245  21242494.9064                   21242491.9384
   1297829.90645   1021939.74643  24461255.6724                   24461257.1644
  -3658953.01646  -2720964.91443  23776415.0704                   23776416.3444
    900756.82848    722873.33646  20404528.9064                   20404526.5904
  -2967587.59446  -2274758.97343  23708200.0634                   23708200.1604
   -392013.32847   -270948.69146  21006022.3204                   21006018.2544
   3088311.04747   2406668.27045  21813903.4614                   21813899.5824
  -3348495.00047  -2573328.08644  22983017.5084                   22983015.9344
 11  7 23 18 46 30.0000000  0 10G03G06G07G10G11G13G28G19G23G08
   2477734.95747   1937145.28944  22038689.3204                   22038687.6094
   3024258.57046   2356769.31343  23957328.4144                   23957326.8634
  -2763477.76247  -2100526.11345  21215147.5864                   21215144.6914
   1251987.97346    986218.73842  24452531.1094                   24452533.7854
  -3833977.56247  -2857347.53543  23743109.3364                   23743109.5784
    852106.55148    684964.00046  20395271.3524                   20395269.0704
  -3121004.94146  -2394304.87943  23679005.3914                   23679004.8444
   -471186.12948   -332641.78946  20990956.1024                   20990952.1024
   3088486.30147   2406804.73845  21813936.1564                   21813933.7424
  -3516399.01647  -2704162.35244  22951066.2114                   22951064.6724
 11  7 23 18 47  0.0000000  0 10G03G06G07G10G11G13G28G19G23G08
   2465102.33647   1927301.63744  22036285.4144                   22036284.4454
   3021183.75446   2354373.32443  23956743.5704                   23956742.4534
  -2907279.23048  -2212579.19145  21187783.2274                   21187780.2854
   1206172.17646    950517.94542  24443813.5474                   24443815.7034
  -4009198.22346  -2993882.98843  23709765.5554                   23709766.0634
    803784.18848    647310.16846  20386075.6884                   20386073.1644
  -3274444.93046  -2513868.41043  23649806.4454                   23649806.3674
   -549978.50447   -394038.45746  20975962.5634                   20975958.0164
   3088763.61347   2407020.71945  21813988.9304                   21813986.6604
  -3684556.69147  -2835194.28144  22919066.8364                   22919065.4024
 11  7 23 18 47 30.0000000  0 10G03G06G07G10G11G13G28G19G23G08
   2452646.03147   1917595.38344  22033915.2584                   22033913.7664
   3018130.00446   2351993.73043  23956162.1414                   23956161.8794
  -3051164.92248  -2324697.90245  21160402.5004                   21160399.9734
   1160385.21546    914839.74242  24435099.7424                   24435102.6454
  -4184606.73847  -3130564.90243  23676386.5474                   23676387.0314
    755793.81348    609915.03546  20376943.5084                   20376941.0004
  -3427901.92246  -2633445.23043  23620605.1564                   23620604.5434
   -628385.97748   -455135.19545  20961042.1174                   20961038.0434
   3089146.09447   2407318.65645  21814062.1024                   21814059.0004
  -3852961.75847  -2966418.99644  22887020.5474                   22887018.7704
 11  7 23 18 48  0.0000000  0 10G03G06G07G10G11G13G28G19G23G08
   2440366.76647   1908027.08244  22031578.7894                   22031576.9884
   3015098.23446   2349631.31343  23955585.4224                   23955585.3444
  -3195129.80147  -2436878.31646  21133006.6884                   21133003.9104
   1114627.44146    879184.25042  24426393.8364                   24426395.3754
  -4360196.48047  -3267387.96543  23642973.1174                   23642973.6524
    708138.02048    572780.60546  20367874.8754                   20367872.4804
  -3581372.00046  -2753032.24243  23591400.0944                   23591399.8754
   -706405.46147   -515929.60245  20946195.2504                   20946191.4804
   3089634.55547   2407699.20345  21814155.4224                   21814151.8364
  -4021609.93747  -3097833.10944  22854926.8914                   22854926.1844
 11  7 23 18 48 30.0000000  0 10G03G06G07G10G11G13G28G19G23G08
   2428274.02047   1898604.12544  22029277.5004                   22029275.7934
   3012098.13746   2347293.52743  23955015.4064                   23955013.4654
  -3339160.16847  -2549109.75046  21105598.7194                   21105596.0434
   1068908.94146    843559.35542  24417693.0554                   24417695.6644
  -4535952.36347  -3404340.49643  23609527.4694                   23609528.0204
    660827.56648    535915.28546  20358872.1884                   20358868.9534
  -3734844.05546  -2872620.75843  23562195.1414                   23562194.9924
   -784025.55547   -576412.79346  20931424.3754                   20931420.7114
   3090238.57847   2408169.76244  21814270.5634                   21814267.0204
  -4190487.97747  -3229426.34444  22822790.9534                   22822789.7034
 11  7 23 18 49  0.0000000  0 10G03G06G07G10G11G13G28G19G23G08
   2416362.90647   1889322.69944  22027010.1564                   22027009.2234
   3009124.77346   2344976.59843  23954448.8134                   23954447.5274
  -3483257.05548  -2661393.02746  21078178.0164                   21078175.1094
   1023224.73846    807961.17642  24409000.5704                   24409001.6644
  -4711873.93446  -3541422.12143  23576050.1884                   23576050.2664
    613858.51248    499315.97746  20349934.6094                   20349931.8164
  -3888320.62147  -2992212.85244  23532989.7894                   23532988.9454
   -861249.21947   -636587.08646  20916729.7894                   20916725.9344
   3090953.09847   2408726.43045  21814406.4614                   21814403.3364
  -4359597.44947  -3361199.91444  22790610.4224                   22790609.3404
 11  7 23 18 49 30.0000000  0 10G03G06G07G10G11G13G28G19G23G08
   2404634.30147   1880183.49644  22024778.9144                   22024777.7774
   3006179.69946   2342681.70743  23953888.7424                   23953887.2704
  -3627414.68047  -2773723.64846  21050746.2424                   21050742.9384
    977575.80145    772390.46542  24400313.7504                   24400315.4414
  -4887954.05146  -3678627.32043  23542544.4614                   23542544.3834
    567233.86348    462985.04346  20341061.9454                   20341059.6454
  -4041797.69947  -3111805.29743  23503784.5474                   23503783.4734
   -938073.14147   -696449.89546  20902110.4534                   20902106.7704
   3091779.48447   2409370.25044  21814563.5634                   21814560.8754
  -4528933.16047  -3493149.77744  22758386.9694                   22758385.7734
 11  7 23 18 50  0.0000000  0 10G03G06G07G10G11G13G28G19G23G08
   2393092.05547   1871189.49644  22022582.5234                   22022580.8874
   3003267.09846   2340412.08243  23953334.1334                   23953333.4964
  -3771624.76648  -2886095.12946  21023303.6094                   21023300.9384
    931966.42246    736850.61342  24391635.7274                   24391636.6454
  -5064183.00446  -3815948.45343  23509008.7504                   23509008.3594
    520958.68048    426926.41046  20332255.6644                   20332253.7074
  -4195268.75446  -3231393.06244  23474579.1644                   23474579.1994
  -1014491.14847   -755996.40245  20887568.6954                   20887564.9344
   3092721.55147   2410104.23444  21814743.1024                   21814740.2584
  -4698487.66847  -3625270.16044  22726121.8054                   22726120.3554
 11  7 23 18 50 30.0000000  0 10G03G06G07G10G11G13G28G19G23G08
   2381731.00047   1862336.66444  22020421.1174                   22020419.2974
   3000382.31646   2338164.16843  23952784.1954                   23952783.9614
  -3915887.93447  -2998507.97746  20995851.1954                   20995848.0314
    886391.80546    701337.77042  24382961.6254                   24382963.9884
  -5240560.11346  -3953385.04743  23475445.6484                   23475445.2154
    475029.59448    391137.47746  20323515.7194                   20323513.3094
  -4348736.54347  -3350978.30143  23445375.1174                   23445374.8954
  -1090506.18747   -815228.91046  20873103.6564                   20873099.5664
   3093774.62147   2410924.71944  21814943.6024                   21814940.7774
  -4868262.13347  -3757561.89844  22693814.4774                   22693813.4184
 11  7 23 18 51  0.0000000  0 10G03G06G07G10G11G13G28G19G23G08
   3945976.43847   3081229.18844  22318086.4144                   22318085.3524
   4572950.23046   3563541.73043  24252034.1564                   24252034.6054
  -2484770.52347  -1883351.53146  21268184.0944                   21268181.2544
   2416277.59846   1893456.53542  24674089.5554                   24674091.8444
  -3841649.29746  -2863324.54343  23741649.3284                   23741648.2774
   2004873.93048   1583223.93046  20614635.8364                   20614633.2234
  -2926768.13747  -2242950.90243  23715966.7504                   23715967.2114
    409310.60548    353459.48846  21158508.8914                   21158504.5784
   4670363.43447   3639435.37544  22114958.3754                   22114955.4224
  -3462822.05147  -2662413.74244  22961261.2034                   22961259.4844
 11  7 23 18 51 30.0000000  0 10G03G06G07G10G11G13G28G19G23G08
   3934982.33647   3072662.33244  22315994.8674                   22315992.4574
   4570125.77346   3561340.79743  24251496.8204                   24251497.2854
  -2629123.20348  -1995834.12546  21240714.4844                   21240711.5474
   2370775.64546   1858000.37943  24665430.2974                   24665432.9184
  -4018301.77346  -3000975.71942  23708031.5314                   23708032.4144
   1959644.69548   1547980.31646  20606029.0784                   20606026.6644
  -3080217.48847  -2362521.75443  23686766.4304                   23686765.4924
    334110.93447    294862.31646  21144199.6724                   21144194.9654
   4671642.51647   3640431.93844  22115202.0314                   22115198.7704
  -3633020.89847  -2795036.20744  22928872.9384                   22928871.9534
 11  7 23 18 52  0.0000000  0 10G03G06G07G10G11G13G28G19G23G08
   3924161.25447   3064230.29744  22313935.5554                   22313933.8914
   4567321.37146   3559155.48843  24250963.6954                   24250963.6214
  -2773524.68447  -2108354.75045  21213235.4144                   21213232.8984
   2325300.11346   1822564.78143  24656777.0394                   24656779.6454
  -4195093.55545  -3138735.42242  23674388.5784                   23674390.2504
   1914756.79748   1513002.70746  20597486.9774                   20597484.3364
  -3233664.04746  -2482090.43043  23657565.5784                   23657565.6844
    259311.66447    236577.16446  21129965.4144                   21129961.6484
   4673024.31347   3641508.58645  22115465.0944                   22115461.8204
  -3803437.02347  -2927827.94144  22896443.9224                   22896442.3324
 11  7 23 18 52 30.0000000  0 10G03G06G07G10G11G13G28G19G23G08
   3913512.89547   3055932.84444  22311909.2034                   22311907.1604
   4564536.77046   3556985.62143  24250433.9304                   24250433.4144
  -2917970.60948  -2220909.98045  21185748.3754                   21185745.3634
   2279850.58246   1787149.47343  24648128.3674                   24648131.2774
  -4372019.53945  -3276599.77742  23640720.6804                   23640722.1484
   1870211.15648   1478291.77346  20589010.5634                   20589007.8364
  -3387105.99246  -2601655.47743  23628367.7114                   23628366.5474
    184914.10248    178605.03546  21115807.7034                   21115803.9774
   4674508.53147   3642665.01244  22115747.5084                   22115744.6024
  -3974066.53147  -3060785.94144  22863973.9384                   22863972.9384
 11  7 23 18 53  0.0000000  0 10G03G06G07G10G11G13G28G19G23G08
   3903034.43846   3047767.77344  22309914.7814                   22309913.8164
   4561769.66946   3554829.39443  24249907.0474                   24249906.8324
  -3062459.41047  -2333498.64846  21158252.8914                   21158250.3284
   2234424.50846   1751752.35543  24639485.4534                   24639485.8014
  -4549076.44545  -3414566.04343  23607029.5704                   23607029.2934
   1826006.62548   1443846.63746  20580598.4144                   20580596.3484
  -3540543.41847  -2721217.02743  23599169.4384                   23599168.2664
    110917.48847    120945.32846  21101726.4844                   21101723.0784
   4676092.29347   3643899.00444  22116049.1484                   22116046.0784
  -4144908.54747  -3193909.55544  22831463.4144                   22831463.0204
 11  7 23 18 53 30.0000000  0 10G03G06G07G10G11G13G28G19G23G08
   3892721.69147   3039731.81644  22307952.2274                   22307950.9614
   4559016.28946   3552683.87143  24249384.4384                   24249382.8984
  -3206990.69147  -2446120.40646  21130750.0474                   21130747.3364
   2189017.56646   1716370.25442  24630842.6094                   24630845.6214
  -4726262.69546  -3552633.13343  23573311.0394                   23573311.7424
   1782140.12948   1409664.89846  20572251.2734                   20572248.4614
  -3693978.06246  -2840776.39143  23569971.4144                   23569970.8794
     37319.41847     63596.17646  21087721.6334                   21087717.6054
   4677771.89847   3645207.68045  22116368.1804                   22116365.9844
  -4315963.33247  -3327198.95744  22798913.3054                   22798912.3594
 11  7 23 18 54  0.0000000  0  9G03G06G07G11G13G28G19G23G08
   3882574.17647   3031824.64844  22306021.7034                   22306020.2814
   4556276.62946   3550549.01243  24248861.5634                   24248862.0204
  -3351560.53548  -2558772.21546  21103239.1094                   21103236.0474
  -4903572.79346  -3690796.75843  23539570.2974                   23539570.7504
   1738612.58648   1375747.29746  20563967.9144                   20563965.7344
  -3847407.68746  -2960331.83643  23540774.8754                   23540774.0634
    -35878.03547      6559.19145  21073793.0554                   21073787.8524
   4679547.10947   3646590.83245  22116706.1644                   22116703.4774
  -4487227.58247  -3460651.58244  22766322.8594                   22766321.8324
 11  7 23 18 54 30.0000000  0  9G03G06G07G11G13G28G19G23G08
   3872586.98047   3024042.38744  22304122.0314                   22304119.8164
   4553545.74646   3548421.03143  24248342.2114                   24248341.9654
  -3496169.56247  -2671454.57045  21075721.2114                   21075718.0004
  -5081005.96546  -3829056.28943  23505806.7034                   23505806.9024
   1695420.27048   1342090.91046  20555749.1884                   20555746.5744
  -4000834.85246  -3079885.38743  23511578.7734                   23511577.5944
   -108678.22747    -50168.23845  21059939.3444                   21059935.2464
   4681412.59447   3648044.35944  22117062.1334                   22117058.2034
  -4658702.32847  -3594268.23444  22733692.5394                   22733691.2424
 11  7 23 18 55  0.0000000  0  9G03G06G07G11G13G28G19G23G08
   3862762.60546   3016387.00444  22302252.0234                   22302250.1484
   4550826.82846   3546302.38343  24247825.5004                   24247824.7234
  -3640810.82847  -2784162.03545  21048196.9614                   21048193.6484
  -5258553.78546  -3967405.21143  23472020.3364                   23472020.2584
   1652566.76248   1308698.51646  20547594.3594                   20547592.1724
  -4154254.53546  -3199433.12143  23482383.7424                   23482383.0474
   -181076.72347   -106582.64846  21046161.9614                   21046157.8204
   4683371.12547   3649570.38744  22117434.4844                   22117431.7814
  -4830380.81647  -3728043.63744  22701022.9144                   22701021.7734
 11  7 23 18 55 30.0000000  0  9G03G06G07G11G13G28G19G23G08
   3853103.57847   3008860.46944  22300413.6644                   22300411.8914
   4548122.26246   3544194.89843  24247311.1254                   24247309.6094
  -3785477.59447  -2896889.37946  21020667.3054                   21020664.7344
  -5436208.28146  -4105837.21943  23438214.2664                   23438213.9844
   1610055.75048   1275573.00846  20539504.7814                   20539502.3984
  -4307661.84046  -3318971.16443  23453190.5704                   23453189.9964
   -253069.94147   -162681.27746  21032462.3444                   21032458.1174
   4685425.07047   3651170.73444  22117825.3914                   22117822.8244
  -5002257.19147  -3861973.23844  22668315.7034                   22668314.8484
 11  7 23 18 56  0.0000000  0  9G03G06G07G11G13G28G19G23G08
   3843610.01246   3001462.84844  22298607.2974                   22298606.3164
   4545432.41046   3542098.91043  24246798.8524                   24246797.7384
  -3930165.35247  -3009633.09446  20993134.2274                   20993131.5314
  -5613963.51647  -4244347.68743  23404387.9304                   23404387.9224
   1567888.19547   1242715.13346  20531480.5234                   20531478.0124
  -4461054.68446  -3438497.94943  23424000.8054                   23424000.4104
   -324655.85947   -218462.51246  21018840.1334                   21018835.9184
   4687574.55947   3652845.54744  22118234.5634                   22118231.6414
  -5174327.81647  -3996054.19944  22635571.9454                   22635570.4344
 11  7 23 18 56 30.0000000  0  9G03G06G07G11G13G28G19G23G08
   3834284.46946   2994196.17244  22296832.7734                   22296831.3524
   4542760.65646   3540017.00442  24246290.4774                   24246289.3364
  -4074866.57447  -3122387.26645  20965598.4144                   20965595.7154
  -5791810.48447  -4382929.64543  23370544.0704                   23370544.5354
   1526068.62948   1210128.41446  20523522.9304                   20523520.1644
  -4614427.15246  -3558008.89543  23394815.0164                   23394814.0124
   -395829.53547   -273922.52346  21005295.8594                   21005291.8954
   4689822.43047   3654597.01644  22118662.5864                   22118659.3054
  -5346585.07447  -4130280.59844  22602792.7814                   22602791.1724
 11  7 23 18 57  0.0000000  0  9G03G06G07G11G13G28G19G23G08
   3825130.19946   2987062.94144  22295090.6024                   22295089.5514
   4540110.56346   3537951.99642  24245785.2814                   24245785.4844
  -4219573.19147  -3235145.66445  20938061.7584                   20938059.0594
  -5969740.03547  -4521575.98843  23336685.3134                   23336685.9024
   1484601.09448   1177816.00046  20515631.6954                   20515629.1724
  -4767773.56246  -3677499.49243  23365634.3444                   23365633.1024
   -466585.94947   -329057.39146  20991831.9454                   20991827.4574
   4692172.51647   3656428.14844  22119109.8524                   22119107.0554
  -5519021.98447  -4264646.95744  22569978.6254                   22569977.6684
 11  7 23 18 57 30.0000000  0  9G03G06G07G11G13G28G19G23G08
   3816146.10246   2980062.29744  22293381.8674                   22293380.5784
   4537481.15246   3535903.04743  24245285.5474                   24245285.1374
  -4364282.53147  -3347906.18045  20910524.2894                   20910521.1214
  -6147747.96947  -4660283.40644  23302811.9614                   23302811.7894
   1443485.60547   1145777.93046  20507807.8524                   20507805.1644
  -4921092.75046  -3796968.91843  23336458.6484                   23336457.9774
   -536924.75847   -383866.85945  20978446.5784                   20978442.6374
   4694623.19947   3658337.64544  22119575.9924                   22119573.8164
  -5691635.89147  -4399151.25444  22537131.0474                   22537130.2504
 11  7 23 18 58  0.0000000  0  9G03G06G07G11G13G28G19G23G08
   3807325.31346   2973188.93844  22291702.5314                   22291701.3484
   4534865.72346   3533865.00442  24244788.0704                   24244787.5274
  -4508997.06247  -3460670.75446  20882986.1804                   20882982.9144
  -6325835.43447  -4799052.79343  23268923.5004                   23268923.3794
   1402716.07048   1114009.41845  20500049.6334                   20500047.0984
  -5074389.44946  -3916420.81243  23307287.1414                   23307286.0204
   -606851.38747   -438355.14845  20965140.3594                   20965135.6724
   4697167.65647   3660320.20344  22120061.0084                   22120058.5044
  -5864429.96947  -4533795.94544  22504249.7664                   22504248.2344
 11  7 23 18 58 30.0000000  0  9G03G06G07G11G13G28G19G23G08
   3798671.08647   2966445.35944  22290056.1484                   22290054.3754
   4532268.35246   3531841.02043  24244294.3134                   24244293.6054
  -4653708.27347  -3573432.73446  20855448.8204                   20855445.8984
  -6503992.41046  -4937876.32843  23235020.3914                   23235021.3594
   1362297.22348   1082514.18046  20492358.2814                   20492355.4614
  -5227657.23047  -4035850.14544  23278121.2664                   23278120.6294
   -676360.45347   -492518.06245  20951912.7974                   20951909.0164
   4699809.74647   3662378.86344  22120563.4614                   22120560.2344
  -6037396.19547  -4668574.79344  22471335.7034                   22471333.9104
 11  7 23 18 59  0.0000000  0  9G03G06G07G11G13G28G19G23G08
   5365604.20747   4187432.19144  22588233.8444                   22588231.2234
   6105109.82446   4757431.71143  24543595.3674                   24543595.4574
  -3222986.84847  -2458584.85545  21127705.9064                   21127703.0164
  -5106787.19146  -3849144.87143  23500899.0784                   23500900.4844
   2897651.77048   2278894.30545  20784526.0634                   20784523.8954
  -3805468.62547  -2927651.12944  23548754.9224                   23548754.1524
    829972.35947    681247.75045  21238558.0314                   21238554.1414
   6277969.22747   4892113.41444  22420876.9454                   22420874.1954
  -4635104.79747  -3575880.14844  22738182.4844                   22738180.9534
 11  7 23 18 59 30.0000000  0  9G03G06G07G11G13G28G19G23G08
   5357282.09847   4180947.39844  22586649.4534                   22586648.1134
   6102548.23446   4755435.64843  24543107.5234                   24543107.8284
  -3367679.84447  -2571332.65246  21100172.1804                   21100168.7504
  -5285067.65246  -3988064.57043  23466973.8054                   23466974.1804
   2857936.29747   2247947.15245  20776968.9384                   20776966.2584
  -3958673.16447  -3047031.19944  23519601.1254                   23519599.1254
    761302.10547    627738.44945  21225490.8754                   21225486.9654
   6280804.53547   4894322.62544  22421417.0084                   22421414.0824
  -4808405.14847  -3710919.36744  22705205.0944                   22705202.9924
 11  7 23 19  0  0.0000000  0  9G03G06G07G11G13G28G19G23G08
   5349118.14146   4174585.82444  22585096.1484                   22585094.9804
   6099997.00846   4753447.61743  24542622.9064                   24542622.8634
  -3512364.66048  -2684074.06245  21072638.8984                   21072635.4924
  -5463409.00846  -4127031.76243  23433035.4614                   23433036.3054
   2818566.18847   2217269.10945  20769476.7034                   20769474.0594
  -4111850.33646  -3166389.95344  23490452.1334                   23490451.4144
    693045.69947    574551.62946  21212502.0314                   21212498.3984
   6283728.94547   4896601.24644  22421973.4454                   22421970.6374
  -4981874.43447  -3846090.21144  22672194.8834                   22672192.7774
 11  7 23 19  0 30.0000000  0  9G03G06G07G11G13G28G19G23G08
   5341114.69147   4168349.35244  22583573.0554                   22583571.6524
   6097459.14846   4751470.00443  24542139.3914                   24542138.9304
  -3657034.49247  -2796803.80146  21045109.2504                   21045106.1804
  -5641802.75846  -4266039.80143  23399089.0634                   23399088.9734
   2779544.84047   2186862.82446  20762051.2194                   20762049.2154
  -4264995.26247  -3285723.57043  23461308.8594                   23461308.6684
    625207.17647    521690.43446  21199593.5784                   21199589.1174
   6286744.76247   4898951.09844  22422547.7194                   22422544.6884
  -5155506.05947  -3981387.52344  22639153.5234                   22639151.8204
 11  7 23 19  1  0.0000000  0  9G03G06G07G11G13G28G19G23G08
   5333270.14847   4162236.69143  22582080.3524                   22582079.0354
   6094933.27346   4749501.70742  24541658.4844                   24541658.6884
  -3801686.36348  -2909519.52746  21017583.0784                   21017580.4344
  -5820244.99646  -4405085.61743  23365132.4534                   23365132.2734
   2740871.51648   2156727.73445  20754692.1804                   20754689.8524
  -4418106.96947  -3405031.33243  23432173.3674                   23432172.2774
    557786.30547    469154.68445  21186763.6414                   21186759.0904
   6289850.21147   4901370.83244  22423138.2974                   22423135.5274
  -5329297.90647  -4116809.70744  22606082.1484                   22606080.0984
 11  7 23 19  1 30.0000000  0  9G03G06G07G11G13G28G19G23G08
   5325584.70347   4156248.00844  22580617.7734                   22580616.6214
   6092419.96046   4747543.26343  24541181.4304                   24541180.0354
  -3946315.58247  -3022217.61346  20990060.9614                   20990057.7814
  -5998729.14546  -4544164.04743  23331167.8134                   23331168.1054
   2702547.35247   2126864.70345  20747399.3364                   20747396.6804
  -4571182.94146  -3524311.20744  23403042.9064                   23403042.8164
    490785.06347    416945.93046  21174013.6484                   21174009.2974
   6293045.89547   4903860.84044  22423747.1254                   22423744.3324
  -5503245.60947  -4252353.32444  22572980.6094                   22572978.8524
 11  7 23 19  2  0.0000000  0  9G03G06G07G11G13G28G19G23G08
   5318047.06647   4150374.49243  22579183.7194                   22579181.4184
   6089908.24646   4745586.03943  24540702.9064                   24540702.7114
  -4090928.76247  -3134903.21546  20962542.2894                   20962538.9964
  -6177260.75446  -4683279.46943  23297194.9224                   23297194.7274
   2664562.24647   2097265.86746  20740171.1414                   20740168.3054
  -4724231.98847  -3643570.12944  23373919.7344                   23373918.3094
    424193.60547    365056.48045  21161341.9924                   21161336.8714
   6296320.54347   4906412.36744  22424369.6564                   22424367.5634
  -5677356.30947  -4388023.96544  22539848.3754                   22539847.4024
 11  7 23 19  2 30.0000000  0  9G03G06G07G11G13G28G19G23G08
   5310656.79747   4144615.85543  22577777.2504                   22577775.3014
   6087398.15246   4743630.08243  24540225.0004                   24540225.5554
  -4235522.03148  -3247573.26246  20935026.6804                   20935023.9654
  -6355834.41846  -4822427.66443  23263214.0004                   23263213.2154
   2626916.14847   2067931.20345  20733007.2894                   20733004.8444
  -4877252.35247  -3762806.69944  23344800.7504                   23344798.9924
    358012.62547    313486.87545  21148747.8364                   21148743.3834
   6299673.26647   4909024.74244  22425008.2734                   22425006.1994
  -5851626.13347  -4523818.60244  22506685.8444                   22506684.0554
 11  7 23 19  3  0.0000000  0  9G03G06G07G11G13G28G19G23G08
   5303411.73446   4138970.31344  22576398.7194                   22576397.2544
   6084887.94546   4741674.02743  24539747.0944                   24539747.7234
  -4380092.69148  -3360225.71546  20907516.3914                   20907512.7234
  -6534446.09046  -4961605.51243  23229224.6724                   23229223.9924
   2589608.31647   2038860.13345  20725907.6174                   20725905.6764
  -5030243.72346  -3882020.67244  23315686.8984                   23315686.4964
    292241.81347    262236.87945  21136231.6724                   21136227.9264
   6303102.37946   4911696.64144  22425660.0944                   22425658.1804
  -6026053.48847  -4659735.97344  22473492.9454                   22473491.8634
 11  7 23 19  3 30.0000000  0  8G03G07G11G13G28G19G23G08
   5296302.67646   4133430.77344  22575045.5234                   22575044.0234
  -4524645.27348  -3472864.07846  20880008.4924                   20880005.5354
  -6713099.40247  -5100815.78943  23195228.1954                   23195227.3404
   2552630.44947   2010046.15645  20718871.0004                   20718868.5274
  -5183212.36746  -4001216.94143  23286578.0784                   23286577.0664
    226873.39847    211300.45345  21123792.2424                   21123788.4694
   6306598.82047   4914421.00444  22426325.7274                   22426323.5164
  -6200643.12547  -4795779.82444  22440271.1564                   22440268.6054
 11  7 23 19  4  0.0000000  0  8G03G07G11G13G28G19G23G08
   5289325.05146   4127993.62543  22573717.6174                   22573716.3054
  -4669180.36348  -3585488.81246  20852504.5474                   20852501.3954
  -6891793.23847  -5240057.65243  23161223.5314                   23161223.2734
   2515978.09847   1981485.83245  20711896.0864                   20711894.2234
  -5336161.35946  -4120397.91044  23257473.6174                   23257472.2424
    161903.85247    160674.83245  21111429.4064                   21111425.2704
   6310157.13747   4917193.59044  22427003.8054                   22427001.2854
  -6375396.27747  -4931951.05944  22407015.8524                   22407013.8324
 11  7 23 19  4 30.0000000  0  8G03G07G11G13G28G19G23G08
   5282480.16046   4122659.91443  22572415.6024                   22572414.5744
  -4813691.68448  -3698095.03145  20825005.0004                   20825001.8014
  -7070520.19547  -5379325.33243  23127212.2424                   23127212.5274
   2479654.02048   1953181.29745  20704984.1334                   20704982.1524
  -5489086.61746  -4239560.37943  23228372.2344                   23228371.2664
     97336.10947    110362.29745  21099142.6644                   21099138.6644
   6313779.18047   4920015.82444  22427692.2344                   22427690.3874
  -6550306.52047  -5068244.71544  22373731.7974                   22373729.6804
 11  7 23 19  5  0.0000000  0  8G03G07G11G13G28G19G23G08
   5275761.36346   4117424.46144  22571137.2424                   22571136.3794
  -4958181.38347  -3810684.39846  20797509.2114                   20797506.4414
  -7249280.93746  -5518619.37143  23093195.5474                   23093195.3444
   2443652.34448   1925128.01645  20698133.3594                   20698131.3984
  -5641992.59846  -4358707.81643  23199274.6414                   23199273.8874
     33164.83647     60358.70345  21086931.3444                   21086927.0204
   6317458.64146   4922882.78544  22428392.4454                   22428390.6954
  -6725376.98447  -5204663.23044  22340417.1254                   22340415.2154
 11  7 23 19  5 30.0000000  0  8G03G07G11G13G28G19G23G08
   5269172.02346   4112289.86744  22569883.2344                   22569882.7194
  -5102641.10247  -3923250.41046  20770019.2274                   20770016.2034
  -7428065.59846  -5657932.00043  23059173.9454                   23059173.9694
   2407977.60548   1897329.45745  20691345.1484                   20691342.7974
  -5794872.87946  -4477835.27043  23170182.3914                   23170182.0394
    -30604.66447     10668.19145  21074795.9534                   21074792.1564
   6321199.03947   4925797.24644  22429105.1564                   22429102.0234
  -6900599.60947  -5341200.30544  22307072.9534                   22307070.7624
 11  7 23 19  6  0.0000000  0  8G03G07G11G13G28G19G23G08
   5262704.09446   4107249.89844  22568651.4384                   22568651.0434
  -5247074.18047  -4035795.65246  20742534.6254                   20742532.1174
  -7606876.82046  -5797265.27743  23025147.0234                   23025147.3754
   2372622.35547   1869779.86345  20684616.4924                   20684614.4614
  -5947733.40646  -4596947.29743  23141094.2504                   23141092.7544
    -93979.49247    -38714.79345  21062736.4614                   21062732.2624
   6324992.05947   4928752.75444  22429826.7034                   22429824.1764
  -7075978.02347  -5477858.78144  22273699.2974                   22273698.0044
 11  7 23 19  6 30.0000000  0  8G03G07G11G13G28G19G23G08
   5256347.82846   4102296.91844  22567442.3364                   22567441.7664
  -5391486.22347  -4148324.50846  20715054.2034                   20715051.1804
  -7785718.20346  -5936622.14143  22991115.3914                   22991114.3484
   2337577.79748   1842472.36745  20677948.4454                   20677946.0394
  -6100581.51647  -4716049.64843  23112008.9614                   23112006.9694
   -156967.93447    -87796.71145  21050750.3284                   21050746.1054
   6328828.02347   4931741.68444  22430556.5554                   22430554.7274
  -7251518.09047  -5614643.22344  22240294.8054                   22240293.0044
 11  7 23 19  7  0.0000000  0  8G03G07G11G13G28G19G23G08
   6825517.71546   5325026.67644  22866045.7504                   22866044.7344
  -3960453.34047  -3033233.94946  20987370.5554                   20987367.8284
  -6389163.90246  -4848397.87943  23256870.2194                   23256869.6644
   3878259.59047   3043003.58645  20971130.0164                   20971127.8794
  -4677995.58246  -3607541.07043  23382716.8134                   23382716.2584
   1355847.32047   1091020.37145  21338629.1414                   21338624.8954
   7908120.89146   6162359.32044  22731085.6024                   22731084.0904
  -5851795.91447  -4523950.58244  22506653.5554                   22506652.0554
 11  7 23 19  7 30.0000000  0  8G03G07G11G13G28G19G23G08
   6819368.78946   5320235.27744  22864875.4144                   22864874.5824
  -4104824.56247  -3145730.98846  20959897.4534                   20959895.0744
  -6568064.04746  -4987800.51643  23222825.7034                   23222826.5314
   3843821.94148   3016169.01645  20964576.8594                   20964574.6764
  -4830828.08247  -3726631.28944  23353634.2274                   23353632.7344
   1293618.87947   1042530.68446  21326787.3054                   21326783.2154
   7912026.64147   6165402.58244  22731829.3364                   22731827.0044
  -6027663.32847  -4660990.08644  22473186.6484                   22473185.6804
 11  7 23 19  8  0.0000000  0  8G03G07G11G13G28G19G23G08
   6813316.44947   5315519.14844  22863724.2664                   22863722.9384
  -4249176.28547  -3258212.85246  20932428.3054                   20932425.5124
  -6746991.67646  -5127224.52743  23188778.0474                   23188777.9654
   3809681.93448   2989566.37545  20958080.6174                   20958078.1644
  -4983656.42646  -3845718.25443  23324551.9224                   23324550.3364
   1231765.37547    994333.13345  21315017.0944                   21315013.1374
   7915960.17647   6168467.55944  22732578.5554                   22732575.8444
  -6203694.78947  -4798157.43444  22439689.4534                   22439687.8244
 11  7 23 19  8 30.0000000  0  8G03G07G11G13G28G19G23G08
   6807358.69946   5310876.71543  22862589.9844                   22862589.4454
  -4393505.53147  -3370677.17646  20904963.4304                   20904960.6914
  -6925942.97746  -5266667.01643  23154724.5394                   23154724.0004
   3775838.30947   2963194.68445  20951639.7814                   20951638.0474
  -5136479.98447  -3964801.48444  23295471.4454                   23295469.5744
   1170286.05547    946427.17245  21303318.0234                   21303313.6214
   7919919.72347   6171552.78944  22733331.5864                   22733329.8874
  -6379888.04747  -4935450.85244  22406160.5474                   22406159.0084
 11  7 23 19  9  0.0000000  0  8G03G07G11G13G28G19G23G08
   6801486.65646   5306301.04743  22861472.7274                   22861471.7034
  -4537816.28147  -3483127.11746  20877502.1804                   20877499.0044
  -7104920.89846  -5406130.24643  23120665.6094                   23120665.7154
   3742282.80948   2937047.48045  20945254.5004                   20945252.4844
  -5289305.46547  -4083886.21144  23266388.9774                   23266387.1684
   1109173.06647    898806.66045  21291689.1254                   21291684.5944
   7923896.05946   6174651.05544  22734087.5634                   22734087.1174
  -6556247.97747  -5072874.16444  22372600.6644                   22372598.8404
 11  7 23 19  9 30.0000000  0  8G03G07G11G13G28G19G23G08
   6795697.23446   5301789.79743  22860370.5704                   22860369.8954
  -4682106.44947  -3595561.00846  20850044.1954                   20850041.5164
  -7283921.83246  -5545611.37944  23086603.3984                   23086602.8164
   3709013.52747   2911123.33645  20938923.7584                   20938921.1134
  -5442133.20347  -4202972.73444  23237306.0554                   23237304.8054
   1048425.26247    851470.70345  21280128.6094                   21280124.4734
   7927886.82447   6177760.54744  22734848.5234                   22734846.4224
  -6732772.65247  -5210425.82044  22339009.0314                   22339007.5234
 11  7 23 19 10  0.0000000  0  8G03G07G11G13G28G19G23G08
   6789987.74646   5297340.78143  22859284.7504                   22859283.5744
  -4826374.62147  -3707977.75846  20822591.3284                   20822588.6484
  -7462943.29346  -5685108.51643  23052537.1334                   23052535.7774
   3676027.93447   2885420.22745  20932647.0084                   20932645.0824
  -5594964.09447  -4322061.70344  23208224.1884                   23208222.6764
    988040.40247    804417.57045  21268638.0944                   21268634.2894
   7931888.53947   6180878.61744  22735610.2034                   22735608.3874
  -6909461.25447  -5348105.21145  22305386.1884                   22305384.6134
 11  7 23 19 10 30.0000000  0  8G03G07G11G13G28G19G23G08
   6784357.80146   5292953.76243  22858213.9534                   22858211.8954
  -4970616.92247  -3820374.35546  20795142.5634                   20795139.6524
  -7641979.80947  -5824617.44143  23018466.3674                   23018466.0434
   3643326.18047   2859938.29745  20926424.5704                   20926421.4144
  -5747796.02747  -4441151.47343  23179140.6484                   23179139.1844
    928019.23047    757647.83245  21257216.3444                   21257211.7504
   7935901.02347   6184005.06644  22736373.5084                   22736371.4884
  -7086309.49647  -5485908.99644  22271732.7424                   22271731.5084
 11  7 23 19 11  0.0000000  0  8G03G07G11G13G28G19G23G08
   6778800.21546   5288623.14843  22857156.3984                   22857154.7584
  -5114835.64547  -3932752.58246  20767698.6484                   20767696.1524
  -7821032.39547  -5964138.86343  22984393.8204                   22984393.6254
   3610901.78947   2834672.50045  20920253.5004                   20920251.5744
  -5900634.17647  -4560246.07044  23150057.2894                   23150055.2424
    868355.50447    711156.60545  21245862.7584                   21245859.0474
   7939917.03146   6187134.27043  22737137.5004                   22737135.5474
  -7263321.03147  -5623840.04344  22238049.2504                   22238047.4414
 11  7 23 19 11 30.0000000  0  8G03G07G11G13G28G19G23G08
   6773313.80546   5284347.99643  22856111.5554                   22856110.3754
  -5259027.11348  -4045109.56646  20740260.1954                   20740257.3054
  -8000096.21147  -6103669.01243  22950319.3054                   22950319.4734
   3578754.21547   2809622.39145  20914136.3284                   20914134.0704
  -6053477.11747  -4679344.41844  23120971.6954                   23120970.5204
    809049.48847    664944.12545  21234577.3594                   21234572.9654
   7943935.41847   6190265.33643  22737902.2424                   22737900.3674
  -7440492.00847  -5761895.32844  22204334.4614                   22204332.4574
 11  7 23 19 12  0.0000000  0  8G03G07G11G13G28G19G23G08
   6767898.52746   5280128.23043  22855081.4924                   22855080.7664
  -5403186.76647  -4157441.76246  20712827.1564                   20712824.0354
  -8179165.40246  -6243203.38343  22916243.9844                   22916243.0704
   3546883.98447   2784788.39545  20908071.7974                   20908069.5004
  -6206322.36347  -4798444.52744  23091885.9454                   23091884.4304
    750102.31347    619011.25445  21223359.5704                   21223355.2504
   7947956.15647   6193398.22744  22738668.0394                   22738665.9884
  -7617818.35947  -5900071.67244  22170590.3524                   22170588.5784
 11  7 23 19 12 30.0000000  0  8G03G07G11G13G28G19G23G08
   6762547.32046   5275958.44943  22854063.0704                   22854061.9844
  -5547317.02747  -4269751.05146  20685400.3054                   20685397.2814
  -8358241.37546  -6382743.04743  22882167.0864                   22882165.5084
   3515284.52747   2760165.38345  20902058.5234                   20902056.5704
  -6359175.15247  -4917550.56244  23062799.3524                   23062796.9574
    691507.53547    573352.98845  21212209.2114                   21212205.4024
   7951972.23447   6196527.47344  22739432.5704                   22739430.2234
  -7795303.02747  -6038371.38345  22136816.2424                   22136814.2894
 11  7 23 19 13  0.0000000  0  8G03G07G11G13G28G19G23G08
   6757259.11746   5271837.74243  22853057.4304                   22853055.9184
  -5691414.41847  -4382034.73846  20657979.4924                   20657976.3164
  -8537319.09046  -6522284.05944  22848089.3914                   22848088.7974
   3483955.25447   2735752.91045  20896097.1174                   20896094.7854
  -6512034.46947  -5036661.64844  23033710.6254                   23033709.5514
    633265.27347    527969.39845  21201125.9144                   21201122.8834
   7955982.47346   6199652.17643  22740195.4534                   22740193.6024
  -7972942.69947  -6176791.88344  22103012.3134                   22103010.7464
 11  7 23 19 13 30.0000000  0  8G03G07G11G13G28G19G23G08
   6752028.44546   5267761.85943  22852061.9144                   22852060.1334
  -5835479.88348  -4494293.52746  20630564.6334                   20630561.5864
  -8716398.15646  -6661826.09844  22814010.9224                   22814011.0204
   3452891.60547   2711547.43845  20890185.7424                   20890183.9344
  -6664902.93447  -5155779.90244  23004621.0164                   23004619.3794
    575371.09047    482857.05145  21190109.4694                   21190105.5274
   7959981.39146   6202768.01243  22740956.5394                   22740955.0744
  -8150738.49647  -6315334.02344  22069179.0554                   22069176.9804
 11  7 23 19 14  0.0000000  0  8G03G07G11G13G28G19G23G08
   6746855.94546   5263731.28943  22851077.4774                   22851075.8404
  -5979507.64547  -4606522.95746  20603157.2034                   20603154.1454
  -8895471.53546  -6801363.72344  22779934.5554                   22779934.5164
   3422094.46147   2687549.60945  20884325.1644                   20884323.5434
  -6817777.69947  -5274903.02744  22975529.8754                   22975528.2464
    517826.60247    438017.19145  21179159.2814                   21179154.8324
   7963969.73446   6205875.65643  22741715.5474                   22741713.8444
  -8328685.00847  -6453993.59844  22035316.6254                   22035315.2544
 11  7 23 19 14 30.0000000  0  8G03G07G11G13G28G19G23G08
   8317168.33246   6487351.33243  23149897.9534                   23149896.2424
  -4548062.00047  -3491110.76246  20875552.3364                   20875549.1294
  -7499101.12946  -5713282.83244  23045654.8524                   23045655.3404
   4966991.64547   3891365.54745  21178309.4064                   21178307.8554
  -5395225.23046  -4166420.50044  23246232.1254                   23246230.7854
   2036061.06347   1621057.03145  21468069.7504                   21468065.6604
   9543373.74246   7436579.93844  23042266.2034                   23042263.8984
  -6931345.77047  -5365157.80544  22301221.5474                   22301219.7734
 11  7 23 19 15  0.0000000  0  8G03G07G11G13G28G19G23G08
   8312124.76646   6483421.23843  23148937.8134                   23148936.5864
  -4691988.26647  -3603261.09046  20848163.8834                   20848160.6214
  -7678133.55946  -5852788.55944  23011586.6884                   23011586.1954
   4936741.38347   3867793.86745  21172553.1564                   21172550.7074
  -5548093.85547  -4285538.86744  23217142.6254                   23217141.5704
   1979231.57847   1576774.30945  21457255.7974                   21457251.0474
   9547353.10946   7439680.59443  23043023.9844                   23043021.5944
  -7109568.73447  -5504032.81645  22267307.0164                   22267304.8834
 11  7 23 19 15 30.0000000  0  8G03G07G11G13G28G19G23G08
   8307143.46146   6479539.65243  23147990.8444                   23147988.7704
  -4835858.88347  -3715368.04746  20820785.8754                   20820782.8794
  -7857138.84446  -5992273.10543  22977522.4534                   22977522.6294
   4906763.19547   3844434.19945  21166848.9304                   21166846.9694
  -5700958.28547  -4404653.93744  23188053.3914                   23188051.9494
   1922758.65647   1532769.42645  21446509.1644                   21446504.8914
   9551325.66046   7442775.88344  23043779.5004                   23043778.1564
  -7287925.30147  -5643011.93744  22233366.8054                   22233364.7154
 11  7 23 19 16  0.0000000  0  8G03G07G11G13G28G19G23G08
   8302229.85947   6475710.82843  23147056.0164                   23147054.4064
  -4979664.24247  -3827424.16846  20793421.0784                   20793417.8754
  -8036105.64546  -6131727.67243  22943466.5784                   22943466.2544
   4877062.68847   3821290.88345  21161197.0704                   21161194.9494
  -5853810.95747  -4523759.85544  23158966.0314                   23158965.0634
   1866648.21147   1489047.00045  21435831.5164                   21435827.3714
   9555296.55946   7445869.86744  23044535.8204                   23044534.6884
  -7466406.51647  -5782088.19544  22199402.6334                   22199401.1844
 11  7 23 19 16 30.0000000  0  8G03G07G11G13G28G19G23G08
   8297379.30146   6471931.12543  23146132.5864                   23146131.8014
  -5123403.79347  -3939428.98446  20766068.1024                   20766065.1484
  -8215032.35546  -6271150.99243  22909417.4224                   22909416.7344
   4847636.05147   3798360.98445  21155596.8754                   21155594.8134
  -6006653.68047  -4642858.03944  23129881.3284                   23129880.3054
   1810897.26247   1445604.69545  21425221.8054                   21425217.5354
   9559261.59047   7448959.30144  23045290.5084                   23045289.1094
  -7645011.39147  -5921260.78145  22165415.3054                   22165413.7974
 11  7 23 19 17  0.0000000  0  8G03G07G11G13G28G19G23G08
   8292591.78546   6468200.55543  23145221.7584                   23145220.3634
  -5267073.23047  -4051379.18746  20738728.8364                   20738725.8054
  -8393913.50846  -6410538.80543  22875376.4774                   22875376.9344
   4818483.41047   3775644.58645  21150049.6254                   21150047.6914
  -6159484.62546  -4761947.04343  23100798.3444                   23100796.6884
   1755506.07447   1402442.73045  21414681.5554                   21414677.6724
   9563220.70347   7452044.17243  23046043.8754                   23046042.4064
  -7823736.25047  -6060526.87945  22131405.5164                   22131403.7344
 11  7 23 19 17 30.0000000  0  8G03G07G11G13G28G19G23G08
   8287868.93046   6464520.35543  23144321.9614                   23144321.2154
  -5410666.00047  -4163269.64846  20711404.1884                   20711401.3714
  -8572741.39547  -6549885.13343  22841348.2504                   22841347.1134
   4789606.97747   3753143.41045  21144554.4304                   21144552.3754
  -6312299.99247  -4881023.88744  23071718.1954                   23071717.1214
   1700477.36747   1359563.21545  21404209.7034                   21404205.7624
   9567175.34447   7455125.57043  23046796.3594                   23046795.2304
  -8002574.67647  -6199881.47745  22097373.4384                   22097372.1954
 11  7 23 19 18  0.0000000  0  8G03G07G11G13G28G19G23G08
   8283208.85546   6460889.09843  23143436.2194                   23143434.3164
  -5554179.32447  -4275098.20346  20684094.3204                   20684091.2194
  -8751511.94947  -6689186.81244  22807328.9694                   22807328.6214
   4761005.20347   3730856.28545  21139111.8594                   21139109.7664
  -6465099.39847  -5000088.30144  23042642.3754                   23042640.1884
   1645810.03547   1316965.28145  21393807.3754                   21393803.0984
   9571123.19946   7458201.65643  23047548.0634                   23047546.2774
  -8181524.44947  -6339322.83645  22063320.2034                   22063318.1484
 11  7 23 19 18 30.0000000  0  8G03G07G11G13G28G19G23G08
   8278608.96146   6457304.73443  23142560.5314                   23142559.3444
  -5697611.24247  -4386863.32846  20656799.6564                   20656797.1844
  -8930221.99246  -6828441.30543  22773322.0394                   22773321.1414
   4732675.94547   3708781.48045  21133720.5394                   21133719.0354
  -6617883.59047  -5119140.86744  23013568.5784                   23013567.0864
   1591502.02347   1274647.34845  21383472.9844                   21383469.2774
   9575061.77346   7461270.45743  23048297.1094                   23048296.0784
  -8360583.87547  -6478849.64145  22029246.7034                   22029244.4614
 11  7 23 19 19  0.0000000  0  8G03G07G11G13G28G19G23G08
   8274061.94146   6453761.53943  23141695.1024                   23141693.9884
  -5840964.50447  -4498567.16446  20629520.9454                   20629518.0204
  -9108872.62547  -6967649.52044  22739326.0314                   22739324.6604
   4704611.58247   3686913.09845  21128380.6094                   21128378.7074
  -6770657.45347  -5238185.41044  22984496.6174                   22984494.2114
   1537546.78147   1232604.28945  21373205.7034                   21373201.3524
   9578983.89146   7464326.43043  23049044.1724                   23049043.3484
  -8539755.69947  -6618464.02044  21995150.9384                   21995149.3094
 11  7 23 19 19 30.0000000  0  8G03G07G11G13G28G19G23G08
   8269576.27046   6450266.18043  23140841.6094                   23140840.6174
  -5984225.85547  -4610199.37546  20602259.2194                   20602256.5434
  -9287449.94946  -7106800.59043  22705343.1954                   22705341.7384
   4676821.19947   3665258.19145  21123091.8914                   21123090.1764
  -6923410.34447  -5357213.58244  22955428.4064                   22955426.3984
   1483953.62547   1190843.38345  21363007.0864                   21363002.8054
   9582898.37146   7467376.47343  23049788.5084                   23049787.4184
  -8719026.89147  -6758155.82845  21961036.7974                   21961035.1954
 11  7 23 19 20  0.0000000  0  8G03G07G11G13G28G19G23G08
   8265143.82046   6446812.28143  23139998.6254                   23139997.0904
  -6127398.40247  -4721762.38746  20575014.6254                   20575011.4264
  -9465955.84847  -7245896.02344  22671374.4774                   22671373.5594
   4649297.16847   3643810.84445  21117854.6954                   21117852.4694
  -7076147.85547  -5476229.74644  22926363.4224                   22926361.8834
   1430715.56347   1149359.16845  21352876.0634                   21352872.2304
   9586796.45746   7470413.75043  23050530.5634                   23050529.5634
  -8898401.03947  -6897927.88345  21926902.8754                   21926901.5314
 11  7 23 19 20 30.0000000  0  8G03G07G11G13G28G19G23G08
   8260766.69546   6443401.54743  23139165.4774                   23139163.6644
  -6270475.85948  -4833251.30946  20547787.9064                   20547784.4924
  -9644382.42647  -7384929.63344  22637421.1414                   22637420.2854
   4622041.80547   3622572.83645  21112667.8204                   21112665.9614
  -7228866.00047  -5595230.84044  22897301.6334                   22897299.9344
   1377835.18847   1108153.66045  21342813.6804                   21342809.7624
   9590680.13346   7473439.81643  23051270.7974                   23051268.5594
  -9077871.63747  -7037775.07845  21892751.3984                   21892749.5864
 11  7 23 19 21  0.0000000  0  8G03G07G11G13G28G19G23G08
   8256437.24246   6440027.89843  23138341.1414                   23138339.9804
  -6413461.27047  -4944668.50446  20520578.2344                   20520575.5514
  -9822731.53546  -7523902.86344  22603482.3524                   22603481.3834
   4595047.53147   3601538.30945  21107531.5864                   21107529.6024
  -7381570.55947  -5714221.38344  22868242.8204                   22868240.9884
   1325305.28147   1067221.26245  21332817.3284                   21332813.0394
   9594541.84846   7476448.74643  23052004.8834                   23052004.1024
  -9257442.26647  -7177700.22745  21858580.3364                   21858577.7274
 11  7 23 19 21 30.0000000  0  8G03G07G11G13G28G19G23G08
   8252156.32046   6436692.08643  23137527.2974                   23137526.0824
  -6556349.04747  -5056009.62946  20493387.5864                   20493384.8404
 -10000996.78946  -7662810.78143  22569559.1334                   22569558.5594
   4568315.50047   3580708.09445  21102444.1644                   21102443.1214
  -7534258.71947  -5833199.10944  22839187.2424                   22839185.8524
   1273127.19947   1026563.00045  21322888.0634                   21322883.8754
   9598382.34046   7479441.09843  23052736.4844                   23052735.3164
  -9437107.33247  -7317698.96145  21824390.3834                   21824388.8134
 11  7 23 19 22  0.0000000  0  8G03G07G11G13G28G19G23G08
   9823339.30146   7660990.46143  23436513.0164                   23436512.2034
  -5123714.27747  -3939670.84446  20766008.6644                   20766005.9454
  -8603750.48447  -6574047.35543  22835445.9844                   22835445.3714
   6117262.30547   4787679.55545  21397199.7034                   21397197.6254
  -6111507.38747  -4724561.62544  23109928.2504                   23109926.4774
   2796718.76247   2213777.19145  21612818.1024                   21612814.0594
  11177616.91047   8710013.25443  23353254.8444                   23353253.8714
  -8041441.12947  -6230166.82845  22089977.0864                   22089975.2974
 11  7 23 19 22 30.0000000  0  8G03G07G11G13G28G19G23G08
   9819141.00446   7657719.05943  23435714.0784                   23435713.0234
  -5266406.93047  -4050859.93446  20738855.0634                   20738852.6294
  -8781843.82847  -6712821.34443  22801556.0864                   22801555.2194
   6091041.16047   4767247.44145  21392209.6484                   21392207.2854
  -6264169.79347  -4843519.30544  23080877.2974                   23080875.3244
   2745232.30547   2173657.87145  21603020.2344                   21603016.1524
  11181400.45347   8712961.24643  23353974.8284                   23353973.6994
  -8221296.39547  -6370313.77345  22055752.3054                   22055750.2194
 11  7 23 19 23  0.0000000  0  8G03G07G11G13G28G19G23G08
   9814978.99646   7654475.90243  23434922.3054                   23434920.7814
  -5409000.47747  -4161971.77346  20711720.5704                   20711718.3444
  -8959848.22347  -6851525.96144  22767683.3054                   22767682.5044
   6065070.45347   4747010.47745  21387267.3594                   21387265.4574
  -6416821.55947  -4962468.69544  23051829.4844                   23051826.8284
   2694087.29747   2133804.60245  21593287.8054                   21593283.9144
  11185149.81647   8715882.59043  23354689.2664                   23354687.2304
  -8401245.27047  -6510533.64845  22021508.7034                   22021506.3984
 11  7 23 19 23 30.0000000  0  8G03G07G11G13G28G19G23G08
   9810846.29346   7651255.57843  23434135.8444                   23434134.9414
  -5551497.08247  -4273008.10546  20684604.8984                   20684602.0944
  -9137764.30547  -6990161.79343  22733826.2274                   22733825.8164
   6039343.69947   4726963.59045  21382371.6414                   21382369.8794
  -6569467.37947  -5081413.42244  23022780.6484                   23022779.3984
   2643277.41847   2094212.47345  21583619.0234                   21583614.9694
  11188858.26646   8718772.03943  23355394.3984                   23355393.0704
  -8581289.64547  -6650827.93745  21987248.0234                   21987245.8634
 11  7 23 19 24  0.0000000  0  8G03G07G11G13G28G19G23G08
   9806742.09046   7648057.41843  23433354.3914                   23433354.2894
  -5693892.77747  -4383965.77346  20657507.8284                   20657504.8244
  -9315586.80147  -7128724.69144  22699988.8054                   22699987.0664
   6013860.39147   4707106.41445  21377522.7344                   21377520.7854
  -6722106.00447  -5200352.57444  22993734.4384                   22993733.1254
   2592802.68847   2054881.50445  21574014.2194                   21574010.4064
  11192525.21546   8721629.16843  23356092.9534                   23356091.1374
  -8761425.68047  -6791193.64845  21952968.3594                   21952966.9104
 11  7 23 19 24 30.0000000  0  8G03G07G11G13G28G19G23G08
   9802667.04346   7644882.01243  23432579.5314                   23432578.4064
  -5836182.54747  -4494840.91046  20630430.7424                   20630427.8554
  -9493309.70347  -7267209.95344  22666168.1414                   22666166.9654
   5988620.68847   4687439.05145  21372719.8444                   21372717.9144
  -6874734.82447  -5319284.07044  22964690.6174                   22964688.0514
   2542663.91047   2015812.32445  21564472.9774                   21564469.1454
  11196150.76246   8724454.07043  23356781.6804                   23356781.0944
  -8941648.83647  -6931627.26245  21918673.3834                   21918671.1994
 11  7 23 19 25  0.0000000  0  8G03G07G11G13G28G19G23G08
   9798618.29346   7641727.05943  23431808.8914                   23431808.3094
  -5978364.41847  -4605631.97346  20603374.6954                   20603371.5164
  -9670930.01647  -7405615.33644  22632368.4924                   22632368.0164
   5963622.22747   4667959.66445  21367962.5234                   21367960.9694
  -7027354.42247  -5438208.35544  22935647.6884                   22935646.0514
   2492859.07847   1977003.35545  21554995.2344                   21554991.2624
  11199732.07046   8727244.47343  23357463.7344                   23357461.9574
  -9121957.47747  -7072127.47345  21884361.7974                   21884359.8134
 11  7 23 19 25 30.0000000  0  8G03G07G11G13G28G19G23G08
   9794594.71946   7638591.74643  23431042.8984                   23431042.7624
  -6120434.68447  -4716336.07446  20576339.9304                   20576336.9884
  -9848442.56647  -7543936.70344  22598588.5634                   22598587.6884
   5938864.22347   4648667.65245  21363251.8984                   21363249.6454
  -7179963.87947  -5557124.78144  22906607.7814                   22906605.3484
   2443387.50847   1938454.07045  21545581.6644                   21545577.0514
  11203268.19946   8729999.66443  23358136.9224                   23358136.8324
  -9302347.65647  -7212691.23045  21850034.5634                   21850032.4774
 11  7 23 19 26  0.0000000  0  8G03G07G11G13G28G19G23G08
   9790596.39146   7635476.12543  23430282.5864                   23430282.0044
  -6262388.76247  -4826949.63746  20549326.0394                   20549323.9804
 -10025841.67246  -7682169.70744  22564831.1094                   22564829.6334
   5914346.86347   4629563.14845  21358586.4844                   21358584.7854
  -7332560.89547  -5676031.51244  22877568.7274                   22877567.1134
   2394249.69147   1900164.85245  21536230.8914                   21536226.5124
  11206759.13747   8732719.62143  23358801.7504                   23358801.2624
  -9482815.20747  -7353315.25845  21815692.5784                   21815690.4494
 11  7 23 19 26 30.0000000  0  8G03G07G11G13G28G19G23G08
   9786618.56646   7632376.43443  23429525.6804                   23429525.3834
  -6404226.71547  -4937472.70746  20522335.7424                   20522332.7814
 -10203126.50447  -7820313.62944  22531094.7664                   22531093.8914
   5890065.04347   4610642.18845  21353964.9844                   21353963.8754
  -7485148.29747  -5794930.71144  22848532.4384                   22848530.4734
   2345441.12147   1862132.19945  21526942.7034                   21526938.8054
  11210199.68046   8735400.32444  23359456.4384                   23359457.0744
  -9663360.23447  -7493999.66445  21781335.3284                   21781334.2704
 11  7 23 19 27  0.0000000  0  8G03G07G11G13G28G19G23G08
   9782665.90646   7629296.41443  23428773.6644                   23428773.0704
  -6545939.68047  -5047898.39546  20495368.6724                   20495365.6484
 -10380286.86747  -7958360.60544  22497382.1564                   22497380.6724
   5866023.60247   4591908.52745  21349391.0944                   21349388.8324
  -7637719.64847  -5913817.41444  22819499.1564                   22819497.4414
   2296966.91847   1824360.10245  21517718.0234                   21517713.9924
  11213594.66046   8738045.49244  23360102.1804                   23360103.2934
  -9843973.57047  -7634737.29345  21746966.5634                   21746964.0274
 11  7 23 19 27 30.0000000  0  8G03G07G11G13G28G19G23G08
   9778734.55946   7626232.97743  23428025.5704                   23428024.4844
  -6687526.71147  -5158225.94146  20468425.3134                   20468422.2304
 -10557320.34047  -8096308.67644  22463694.0864                   22463693.3404
   5842218.79347   4573359.28145  21344860.5004                   21344859.0434
  -7790276.56647  -6032692.90644  22790468.5004                   22790465.8204
   2248823.83647   1786845.98445  21508557.0864                   21508552.9414
  11216939.76246   8740651.80943  23360739.8204                   23360739.9384
 -10024654.47347  -7775527.58645  21712583.5864                   21712581.7304
 11  7 23 19 28  0.0000000  0  8G03G07G11G13G28G19G23G08
   9774819.83646   7623182.55543  23427281.4224                   23427279.6804
  -6828987.42647  -5268455.06646  20441506.3134                   20441503.4414
 -10734225.76647  -8234156.99244  22430030.3134                   22430028.1884
   5818646.21947   4554990.97345  21340375.1484                   21340373.6174
  -7942821.60247  -6151559.13344  22761439.8134                   22761438.1724
   2201007.51247   1749586.50445  21499457.9384                   21499453.9734
  11220230.72346   8743215.91043  23361366.3674                   23361366.4734
 -10205403.06647  -7916370.61345  21678188.7194                   21678186.3794
 11  7 23 19 28 30.0000000  0  9G03G24G07G11G13G28G19G23G08
   9770925.23846   7620147.78943  23426540.2034                   23426538.1334
  10786761.94156   8449810.03153  23927537.7114                   23927542.8094
  -6970314.49247  -5378580.03946  20414612.7114                   20414609.8914
 -10910994.72347  -8371898.93444  22396392.4144                   22396391.0124
   5795308.55147   4536805.72345  21335933.7034                   21335931.8244
  -8095349.97747  -6270412.34444  22732414.2974                   22732412.6724
   2153521.75847   1712584.60245  21490421.5784                   21490417.1764
  11223469.99246   8745739.73043  23361981.8984                   23361982.8094
 -10386211.84847  -8057260.54345  21643781.6884                   21643779.7584
 11  7 23 19 29  0.0000000  0  9G03G24G07G11G13G28G19G23G08
  11342461.03546   8844721.11743  23725591.9924                   23725591.4734
  12175537.81646   9531973.23842  24191813.1024                   24191817.7774
  -5536088.11347  -4261001.03946  20687536.3054                   20687533.8524
  -9512205.02047  -7281932.86344  22662572.9614                   22662571.0784
   7347617.35547   5746396.93045  21631328.5394                   21631326.9614
  -6672443.66447  -5161654.12944  23003184.9534                   23003183.2234
   3681778.98047   2903434.37545  21781239.5784                   21781235.2544
  12802068.25846   9975816.03543  23662379.5864                   23662379.8984
  -8991659.31247  -6970596.20745  21909156.5784                   21909154.1884
 11  7 23 19 29 30.0000000  0  9G03G24G07G11G13G28G19G23G08
  11338589.83646   8841704.54343  23724856.4064                   23724855.5164
  11988737.51646   9386414.77042  24156265.8444                   24156270.5824
  -5677150.35947  -4370919.66846  20660694.0004                   20660691.0944
  -9688699.89547  -7419461.23844  22628986.9384                   22628985.8594
   7324733.83247   5728565.57045  21626974.0704                   21626972.6334
  -6824948.43047  -5280488.96944  22974163.8524                   22974161.9144
   3634938.72747   2866935.47745  21772326.6254                   21772321.8204
  12805188.28146   9978246.93043  23662974.1094                   23662973.5744
  -9172590.35947  -7111581.42245  21874726.4844                   21874724.3054
 11  7 23 19 30  0.0000000  0  9G03G24G07G11G13G28G19G23G08
  11334719.71546   8838688.84442  23724118.6414                   23724119.4804
  11801780.64846   9240734.28942  24120689.6644                   24120693.8524
  -5818083.93447  -4480738.02346  20633874.6644                   20633871.8954
  -9865059.57047  -7556884.30944  22595425.9774                   22595424.5944
   7302066.53147   5710902.66445  21622660.6804                   21622659.1524
  -6977449.15247  -5399320.65644  22945144.0234                   22945141.9024
   3588410.76647   2830679.90245  21763471.8364                   21763468.3284
  12808237.68446   9980622.84443  23663554.6954                   23663553.7894
  -9353586.92247  -7252617.68045  21840283.6174                   21840281.8984
 11  7 23 19 30 30.0000000  0  9G03G24G07G11G13G28G19G23G08
  11330849.99246   8835673.46542  23723383.6094                   23723383.3834
  11614672.08246   9094935.48842  24085083.4224                   24085087.9344
  -5958885.14147  -4590453.23846  20607081.3674                   20607078.6024
 -10041279.44147  -7694198.39144  22561893.1484                   22561891.2934
   7279614.48847   5693407.49645  21618388.0864                   21618386.6914
  -7129944.53147  -5518148.16844  22916124.6804                   22916123.3874
   3542194.91847   2794667.54345  21754677.3364                   21754673.5274
  12811215.38346   9982942.85943  23664121.8204                   23664121.4844
  -9534644.91847  -7393701.80945  21805829.5474                   21805827.4224
 11  7 23 19 31  0.0000000  0  9G03G24G07G11G13G28G19G23G08
  11326975.16046   8832654.06343  23722646.2274                   23722645.9104
  11427411.64846   8949018.40242  24049449.1174                   24049452.6644
  -6099554.92247  -4700066.05546  20580312.6094                   20580309.5784
 -10217359.37547  -7831403.46944  22528385.4614                   22528384.2304
   7257372.17647   5676075.77045  21614156.1174                   21614154.0354
  -7282438.36747  -5636974.46944  22887105.9534                   22887104.5634
   3496286.04747   2758894.38745  21745941.4534                   21745937.3794
  12814115.66847   9985202.56343  23664673.3674                   23664672.8674
  -9715765.37947  -7534834.60545  21771363.3204                   21771361.6724
 11  7 23 19 31 30.0000000  0  9G03G24G07G11G13G28G19G23G08
  11323092.40646   8829628.51642  23721907.7274                   23721906.6524
  11240002.59846   8802985.52343  24013786.3284                   24013790.2584
  -6240091.49647  -4809575.07446  20553569.5704                   20553566.6374
 -10393296.29347  -7968497.07444  22494906.2114                   22494904.8984
   7235336.96947   5658905.42645  21609962.5314                   21609961.3094
  -7434931.38747  -5755800.16444  22858088.2814                   22858085.7774
   3450681.04347   2723358.01645  21737263.2584                   21737258.8054
  12816935.97346   9987399.91443  23665209.8284                   23665209.9694
  -9896946.46147  -7676014.66045  21736885.8674                   21736883.5204
 11  7 23 19 32  0.0000000  0  9G03G24G07G11G13G28G19G23G08
  11319202.64146   8826597.47743  23721167.1804                   23721166.4144
  11052452.04746   8656842.34043  23978096.1414                   23978100.6094
  -6380489.11747  -4918975.79746  20526852.3914                   20526849.7384
 -10569083.36747  -8105473.94144  22461455.0474                   22461453.3444
   7213509.78947   5641897.16045  21605809.1334                   21605807.6844
  -7587420.09447  -5874622.48844  22829070.7034                   22829068.2974
   3405381.96947   2688060.03145  21728643.2274                   21728638.6644
  12819677.23046   9989535.66043  23665732.6094                   23665732.1414
 -10078182.20747  -7817237.30545  21702397.7274                   21702395.6414
 11  7 23 19 32 30.0000000  0  9G03G24G07G11G13G28G19G23G08
  11315303.77746   8823559.38743  23720424.8674                   23720424.8754
  10864763.16846   8510591.44542  23942380.2734                   23942384.2704
  -6520745.46147  -5028266.45346  20500162.6334                   20500159.7934
 -10744717.20347  -8242331.38744  22428031.5234                   22428030.8324
   7191888.05147   5625048.98045  21601694.4454                   21601693.4694
  -7739905.25047  -5993442.05944  22800053.5394                   22800051.6134
   3360386.56647   2652998.67245  21720080.3674                   21720076.3054
  12822336.98846   9991607.89543  23666238.8054                   23666238.1374
 -10259470.23847  -7958500.66845  21667900.2814                   21667898.1764
 11  7 23 19 33  0.0000000  0  9G03G24G07G11G13G28G19G23G08
  11311399.56346   8820517.06343  23719682.4224                   23719681.8554
  10676945.32445   8364240.10242  23906639.4224                   23906644.1054
  -6660852.16047  -5137440.49646  20473501.6484                   20473498.4494
 -10920188.24647  -8379062.00843  22394641.0554                   22394640.3554
   7170475.73047   5608363.98445  21597620.2274                   21597618.7584
  -7892381.01647  -6112254.28144  22771038.2734                   22771036.0664
   3315698.72747   2618176.97745  21711576.2504                   21711572.4024
  12824919.03146   9993619.58643  23666730.3524                   23666729.9454
 -10440802.43447  -8099798.46545  21633393.3914                   21633391.7504
 11  7 23 19 33 30.0000000  0  9G03G24G07G11G13G28G19G23G08
  11307489.86746   8817470.52743  23718937.8834                   23718937.6294
  10489003.57445   8217792.34842  23870874.1094                   23870880.2194
  -6800805.37147  -5246494.93746  20446869.0004                   20446866.0474
 -11095491.62547  -8515661.96944  22361282.5634                   22361281.2114
   7149271.98047   5591841.50845  21593585.7734                   21593584.2034
  -8044845.94147  -6231058.09444  22742025.0634                   22742022.7234
   3271317.89847   2583594.48445  21703131.1254                   21703127.0704
  12827422.29346   9995569.86743  23667206.7734                   23667206.5634
 -10622174.56647  -8241127.37945  21598879.6884                   21598877.2034
 11  7 23 19 34  0.0000000  0  9G03G24G07G11G13G28G19G23G08
  11303575.32846   8814420.20743  23718194.0394                   23718192.8554
  10300944.84046   8071253.31642  23835089.1334                   23835093.6684
  -6940599.41048  -5355425.35946  20420267.2664                   20420263.8484
 -11270620.60547  -8652126.03144  22327956.1564                   22327954.8204
   7128277.66047   5575482.23845  21589590.3914                   21589588.8404
  -8197297.35247  -6349851.34044  22713014.4144                   22713012.4924
   3227245.93047   2549252.69145  21694744.2584                   21694740.1914
  12829847.68846   9997459.48443  23667668.1414                   23667668.7034
 -10803581.05947  -8382483.04745  21564359.2584                   21564356.8914
 11  7 23 19 34 30.0000000  0  9G03G24G07G11G13G28G19G23G08
  11299659.06646   8811368.51643  23717448.4844                   23717447.7974
  10112777.66046   7924629.72343  23799281.8134                   23799285.8014
  -7080226.87947  -5464225.98846  20393697.1644                   20393694.0594
 -11445566.74647  -8788447.61744  22294665.1884                   22294663.7194
   7107495.48847   5559288.27745  21585635.7814                   21585634.2934
  -8349730.34447  -6468630.24244  22684007.1094                   22684005.7934
   3183485.75047   2515153.84445  21686417.3984                   21686412.4264
  12832198.21146   9999290.75843  23668115.5164                   23668116.3324
 -10985014.51247  -8523859.74245  21529833.4774                   21529831.3954
 11  7 23 19 35  0.0000000  0  9G03G24G07G11G13G28G19G23G08
  11295738.61746   8808313.56343  23716702.7194                   23716701.5354
   9924505.02346   7777923.93843  23763454.9924                   23763458.1804
  -7219686.06647  -5572895.48046  20367159.0474                   20367155.7704
 -11620327.06647  -8924624.42244  22261410.4924                   22261407.8204
   7086922.82847   5543257.56345  21581720.5554                   21581719.5514
  -8502145.47747  -6587395.24644  22655003.3984                   22655001.7344
   3140034.58247   2481295.77745  21678148.7274                   21678144.3054
  12834471.18846  10001061.55142  23668549.1094                   23668549.5474
 -11166473.06247  -8665255.98445  21495302.7814                   21495300.8524
 11  7 23 19 35 30.0000000  0  9G03G24G07G11G13G28G19G23G08
  11291814.25046   8805255.55943  23715955.9064                   23715954.5744
   9736133.38346   7631140.97742  23727608.6484                   23727611.8594
  -7358971.59047  -5681429.64846  20340653.2034                   20340650.2344
 -11794895.28547  -9060651.51244  22228190.1804                   22228189.1764
   7066559.95747   5527390.30545  21577845.7504                   21577844.3244
  -8654540.10547  -6706144.25844  22626004.1884                   22626002.0084
   3096893.21147   2447679.12945  21669939.1804                   21669935.2384
  12836666.93846  10002772.22743  23668966.7504                   23668967.6994
 -11347951.46147  -8806667.69145  21460768.9844                   21460766.5314
 11  7 23 19 36  0.0000000  0  8G24G07G11G13G28G19G23G08
  11123102.59046   8711896.29342  23991539.7974                   23991542.6684
  -5922646.51247  -4562215.28946  20613977.3444                   20613974.5274
 -10393831.96947  -7968913.77044  22494803.6174                   22494802.7704
   8621835.26247   6739293.07845  21873805.1954                   21873803.4924
  -7231479.46147  -5597265.78944  22896803.2584                   22896800.5664
   4629491.27047   3641911.37145  21961583.2504                   21961579.1684
  14414213.07446  11232028.65643  23969163.4224                   23969164.5984
  -9954010.69947  -7720480.04745  21726026.7584                   21726024.6414
 11  7 23 19 36 30.0000000  0  8G24G07G11G13G28G19G23G08
  10934553.19146   8564974.76242  23955660.2424                   23955663.1724
  -6061567.77747  -4670465.63346  20587541.1334                   20587538.3404
 -10567995.55147  -8104625.57444  22461661.9064                   22461659.9184
   8601895.60247   6723755.61344  21870010.7344                   21870009.0864
  -7383824.20347  -5715975.92244  22867813.2584                   22867811.1294
   4586973.57047   3608780.67245  21953492.2344                   21953488.0664
  14416257.50846  11233621.37543  23969553.6804                   23969554.5314
 -10135510.53147  -7861908.46545  21691488.2424                   21691485.9774
 11  7 23 19 37  0.0000000  0  8G24G07G11G13G28G19G23G08
  10745924.95745                  23919764.2194
  -6200298.70747  -4778567.63346  20561141.7664                   20561138.2384
 -10741946.99647  -8240172.07844  22428559.3054                   22428558.3444
   8582168.01247   6708383.39145  21866256.6174                   21866254.6954
  -7536139.62147  -5834663.21144  22838828.0944                   22838826.1994
   4544769.52047   3575894.38345  21945461.0944                   21945457.1954
  14418227.16846  11235155.83643  23969928.3594                   23969929.6134
 -10317012.74247  -8003338.72745  21656949.4614                   21656947.1334
 11  7 23 19 37 30.0000000  0  8G24G07G11G13G28G19G23G08
  10557230.07045   8377789.22352  23883856.5084                   23883859.0124
  -6338827.72347  -4886512.32046  20534780.3674                   20534777.3794
 -10915674.81247  -8375544.35244  22395500.0944                   22395498.8134
   8562658.99247   6693181.47744  21862544.1804                   21862542.8204
  -7688417.57447  -5953321.32044  22809850.5164                   22809848.3794
   4502885.10947   3543257.17245  21937491.6564                   21937486.5664
  14420128.73846  11236637.26643  23970290.5164                   23970292.0514
 -10498506.82847  -8144762.67245  21622412.4614                   21622410.6564
 11  7 23 19 38  0.0000000  0  8G24G07G11G13G28G19G23G08
  10368472.38346   8230705.61343  23847936.5784                   23847941.7464
  -6477153.40248  -4994298.55546  20508457.7194                   20508454.5394
 -11089174.76647  -8510739.02044  22362483.6334                   22362482.5434
   8543366.39547   6678148.21544  21858873.1094                   21858871.9414
  -7840658.01247  -6071950.17244  22780880.1334                   22780878.4104
   4461318.91447   3510867.91845  21929580.6254                   21929576.7344
  14421960.30546  11238064.16043  23970639.4774                   23970640.3094
 -10679989.58247  -8286177.78145  21587876.8284                   21587875.2974
 11  7 23 19 38 30.0000000  0  8G24G07G11G13G28G19G23G08
  10179659.39846   8083578.83643  23812006.9614                   23812011.0554
  -6615268.72348  -5101920.86746  20482175.5164                   20482172.2234
 -11262439.46547  -8645750.40644  22329512.5554                   22329511.3834
   8524292.29747   6663285.22344  21855243.1644                   21855241.6884
  -7992857.18747  -6190546.90244  22751918.2114                   22751915.3674
   4420072.73047   3478728.03145  21921732.5314                   21921727.5394
  14423723.53146  11239437.77743  23970975.3834                   23970976.0354
 -10861454.19547  -8427578.75845  21553345.7584                   21553343.9844
 11  7 23 19 39  0.0000000  0  8G24G07G11G13G28G19G23G08
   9990793.22746   7936410.59043  23776067.9924                   23776071.3484
  -6753172.81247  -5209378.59046  20455933.0474                   20455930.0274
 -11435467.06247  -8780577.02344  22296586.3204                   22296584.7234
   8505432.12147   6648588.89845  21851654.2504                   21851653.7384
  -8145016.82447  -6309112.81644  22722962.0314                   22722960.8524
   4379143.33647   3446834.98845  21913943.8754                   21913939.2624
  14425414.65246  11240755.20343  23971297.1484                   23971298.1954
 -11042899.75047  -8568964.87545  21518817.8674                   21518815.9024
 11  7 23 19 39 30.0000000  0  8G24G07G11G13G28G19G23G08
   9801877.57846   7789203.81643  23740118.5314                   23740121.7734
  -6890863.02048  -5316669.66046  20429731.6334                   20429728.7304
 -11608253.97747  -8915216.08644  22263706.2344                   22263704.5634
   8486784.17247   6634057.93844  21848106.2504                   21848104.6954
  -8297136.68047  -6427647.71944  22694015.1174                   22694012.9734
   4338528.97347   3415187.42245  21906215.1564                   21906211.0904
  14427031.56646  11242014.79743  23971605.1414                   23971606.6484
 -11224323.72747  -8710334.18445  21484294.0004                   21484291.8914
 11  7 23 19 40  0.0000000  0  8G24G07G11G13G28G19G23G08
   9612915.36746   7641960.73843  23704159.9384                   23704163.1254
  -7028338.12548  -5423793.10546  20403570.8054                   20403567.7464
 -11780797.88747  -9049665.81244  22230872.6954                   22230870.3164
   8468345.15247   6619689.80544  21844597.2424                   21844595.4574
  -8449218.30947  -6546152.84444  22665074.5234                   22665073.1294
   4298226.29347   3383782.73845  21898545.3364                   21898541.2934
  14428571.24646  11243214.19543  23971898.0004                   23971900.0704
 -11405724.11347  -8851685.11745  21449774.0784                   21449772.7074
 11  7 23 19 40 30.0000000  0  8G24G07G11G13G28G19G23G08
   9423916.39846   7494688.97743  23668193.5474                   23668197.6374
  -7165589.34847  -5530742.10546  20377453.0234                   20377450.2234
 -11953088.83647  -9183918.41044  22198085.7814                   22198085.2344
   8450119.05547   6605487.55144  21841128.6334                   21841127.1914
  -8601255.13347  -6664623.05144  22636143.8444                   22636141.3014
   4258239.69147   3352624.33245  21890935.9304                   21890932.0164
  14430037.89546  11244356.71543  23972178.3524                   23972179.3874
 -11587091.84847  -8993010.58245  21415261.6094                   21415259.2774
 11  7 23 19 41  0.0000000  0  8G24G07G11G13G28G19G23G08
   9234879.32445   7347387.61742  23632220.5084                   23632225.3794
  -7302618.72748  -5637518.24246  20351377.0234                   20351374.2664
 -12125128.07047  -9317974.87544  22165348.2664                   22165347.1134
   8432098.93447   6591445.81644  21837699.4924                   21837698.2734
  -8753252.46147  -6783062.48844  22607219.1254                   22607216.7704
   4218562.32847   3321706.90245  21883386.1024                   21883381.9924
  14431424.44546  11245436.82443  23972441.5634                   23972444.2424
 -11768428.96547  -9134312.20345  21380754.7974                   21380752.2154
 11  7 23 19 41 30.0000000  0  8G24G07G11G13G28G19G23G08
   9045809.73445   7200060.89142  23596241.3204                   23596247.6764
  -7439422.46547  -5744118.55146  20325343.9384                   20325341.5354
 -12296910.36347  -9451831.14144  22132658.4454                   22132657.2704
   8414283.79747   6577563.81344  21834309.6564                   21834308.9224
  -8905208.66047  -6901469.87544  22578302.8914                   22578300.3524
   4179193.85547   3291030.16045  21875894.1564                   21875890.7664
  14432730.58246  11246454.28943  23972690.8204                   23972692.0514
 -11949731.71147  -9275587.04345  21346253.6724                   21346251.1174
 11  7 23 19 42  0.0000000  0  8G24G07G11G13G28G19G23G08
   8856709.15646   7052709.97342  23560257.2034                   23560263.0704
  -7576000.40647  -5850542.91046  20299354.3444                   20299351.4614
 -12468434.89847  -9585486.53944  22100019.5634                   22100017.1454
   8396668.98447   6563837.90244  21830957.8364                   21830956.7854
  -9057126.08247  -7019847.03544  22549393.3204                   22549391.2464
   4140130.00447   3260590.79345  21868460.2664                   21868456.6994
  14433951.53546  11247405.32843  23972923.8834                   23972925.2624
 -12130999.46547  -9416834.61745  21311759.2504                   21311756.9844
 11  7 23 19 42 30.0000000  0  8G24G07G11G13G28G19G23G08
   8667586.53946   6905341.81642  23524268.1644                   23524272.6484
  -7712344.25047  -5956784.85946  20273409.0164                   20273405.7034
 -12639692.94547  -9718934.29744  22067429.4924                   22067428.0004
   8379257.78947   6550270.66444  21827644.8524                   21827643.5434
  -9208999.92247  -7138190.23444  22520493.4384                   22520491.3484
   4101374.23047   3230391.46945  21861086.4064                   21861082.1604
  14435090.55146  11248292.52343  23973139.7894                   23973141.8984
 -12312223.60247  -9558048.19545  21277273.0554                   21277270.9384
 11  7 23 19 43  0.0000000  0  8G24G07G11G13G28G19G23G08
  10053875.18847   7985566.93043  23788069.9304                   23788073.0044
  -6273024.61747  -4835237.08646  20547302.2814                   20547299.3134
 -11235251.70347  -8624564.44544  22334685.9064                   22334684.0434
   9937471.75847   7764463.26644  22124163.0864                   22124162.2664
  -7785401.69547  -6028892.88344  22791394.7344                   22791392.9104
   5638349.10547   4428034.21945  22153562.6254                   22153558.6564
  16011569.18046  12476717.06642  24273134.2814                   24273136.5664
 -10917972.45747  -8471618.70345  21542590.2194                   21542588.5704
 11  7 23 19 43 30.0000000  0  7G24G07G11G13G28G19G08
   9864733.72346   7838184.15243  23752078.1804                   23752080.6954
  -6408879.88748  -4941098.32846  20521450.2424                   20521446.9844
 -11405952.06647  -8757577.63744  22302202.8594                   22302200.7154
   9920474.73047   7751218.73844  22120928.9384                   22120926.6524
  -7937173.80147  -6147156.80944  22762513.8054                   22762511.4144
   5600217.44547   4398321.21545  22146306.0864                   22146302.7734
 -11099088.03147  -8612747.71545  21508125.5944                   21508123.1254
 11  7 23 19 44  0.0000000  0  7G24G07G11G13G28G19G08
   9675600.50446   7690807.82443  23716086.6174                   23716090.0704
  -6544475.37147  -5046757.12946  20495647.0554                   20495643.7114
 -11576356.64847  -8890360.36744  22269775.6724                   22269774.2734
   9903693.30547   7738142.20744  22117735.5474                   22117734.1414
  -8088884.07847  -6265372.56244  22733644.2894                   22733641.9924
   5562406.55147   4368858.15645  22139111.5944                   22139107.1134
 -11280133.48848  -8753822.07445  21473674.1094                   21473671.2854
 11  7 23 19 44 30.0000000  0  7G24G07G11G13G28G19G08
   9486483.06646   7543443.79343  23680097.9384                   23680101.1254
  -6679804.36348  -5152208.27746  20469894.5084                   20469891.7074
 -11746457.80147  -9022906.64844  22237406.7504                   22237404.5314
   9887128.77047   7725234.68044  22114583.6804                   22114582.1684
  -8240528.11347  -6383536.70744  22704786.8914                   22704785.0044
   5524918.16447   4339646.41445  22131977.2894                   22131973.2424
 -11461101.98447  -8894836.46145  21439236.2974                   21439234.5514
 11  7 23 19 45  0.0000000  0  7G24G07G11G13G28G19G08
   9297393.80546   7396101.70343  23644115.4534                   23644118.3554
  -6814855.99647  -5257443.32046  20444195.3364                   20444192.2704
 -11916243.70347  -9155207.27744  22205097.2424                   22205095.5124
   9870787.87547   7712501.44144  22111474.0944                   22111472.7274
  -8392097.64147  -6501642.79344  22675944.0004                   22675942.3014
   5487759.12547   4310691.31645  22124906.4224                   22124901.9344
 -11641981.78948  -9035781.74645  21404816.1334                   21404813.8404
 11  7 23 19 45 30.0000000  0  7G24G07G11G13G28G19G08
   9108348.26646   7248793.71143  23608140.4144                   23608144.3914
  -6949615.98447  -5362451.07446  20418550.9304                   20418548.1374
 -12085699.25847  -9287250.48844  22172851.3364                   22172849.0554
   9854679.73847   7699949.55144  22108408.8594                   22108408.1484
  -8543580.97747  -6619681.68744  22647117.6334                   22647115.5084
   5450939.09847   4282000.37145  22117899.1954                   22117895.3954
 -11822758.68747  -9176646.83245  21370415.1804                   21370412.8484
 11  7 23 19 46  0.0000000  0  7G24G07G11G13G28G19G08
   8919359.74646   7101530.13343  23572177.3914                   23572180.8674
  -7084072.52747  -5467222.40246  20392964.9454                   20392962.1914
 -12254811.45347  -9419026.16044  22140670.1334                   22140667.7664
   9838811.64847   7687584.71544  22105389.5234                   22105387.8794
  -8694968.71947  -6737646.11744  22618310.0554                   22618307.3444
   5414465.73047   4253579.53945  22110958.8984                   22110955.0704
 -12003420.10547  -9317421.93745  21336036.5784                   21336034.3954
 11  7 23 19 46 30.0000000  0  7G24G07G11G13G28G19G08
   8730423.89546   6954307.57443  23536224.1484                   23536227.6374
  -7218231.35948  -5571761.74646  20367435.2734                   20367432.0664
 -12423585.02047  -9550537.95744  22108553.0234                   22108551.0634
   9823173.10247   7675398.74244  22102413.0554                   22102411.3634
  -8846269.38347  -6855542.69144  22589518.6484                   22589515.5864
   5378328.62147   4225420.73045  22104082.0634                   22104077.8404
 -12183971.24647  -9458111.10945  21301678.6254                   21301676.6764
 11  7 23 19 47  0.0000000  0  7G24G07G11G13G28G19G08
   8541546.86746   6807130.85943  23500281.9844                   23500285.3164
  -7352087.41847  -5676065.15646  20341963.3674                   20341960.0044
 -12592014.19147  -9681781.37144  22076502.3054                   22076499.8014
   9807764.06347   7663391.59044  22099481.0704                   22099479.8914
  -8997480.40647  -6973369.40244  22560743.1484                   22560741.2504
   5342528.05147   4197524.18445  22097270.0314                   22097265.2384
 -12364407.10247  -9598710.44145  21267342.9924                   21267340.6884
 11  7 23 19 47 30.0000000  0  7G24G07G11G13G28G19G08
   8352735.33646   6660005.15643  23464351.9144                   23464355.7274
  -7485635.24248  -5780128.39146  20316550.1724                   20316547.1524
 -12760092.45747  -9812751.36744  22044518.3284                   22044515.8834
   9792585.81647   7651564.28544  22096592.6884                   22096592.3674
  -9148598.79347  -7091123.94944  22531986.7734                   22531984.5904
   5307065.46547   4169891.00045  22090521.7344                   22090516.8754
 -12544721.69547  -9739215.29745  21233030.6564                   21233027.5164
 11  7 23 19 48  0.0000000  0  7G24G07G11G13G28G19G08
   8163992.55546   6512933.05543  23428435.2584                   23428439.1254
  -7618873.12948  -5883950.12146  20291195.5004                   20291192.5744
 -12927817.27747  -9943445.96944  22012601.2974                   22012598.6884
   9777634.66847   7639913.95744  22093748.0784                   22093746.8914
  -9299625.49647  -7208807.04744  22503247.5864                   22503244.7464
   5271937.76247   4142518.74645  22083836.9064                   22083832.4064
 -12724913.03547  -9879624.10245  21198741.1644                   21198738.6914
 11  7 23 19 48 30.0000000  0  7G24G07G11G13G28G19G08
   7975328.67246   6365922.43043  23392534.2274                   23392537.7974
  -7751792.29348  -5987523.48846  20265901.9064                   20265898.7194
 -13095179.17647 -10073857.74644  21980753.0944                   21980750.8324
   9762914.59047   7628443.67244  22090947.0474                   22090945.5474
  -9450554.44947  -7326413.96544  22474526.5634                   22474523.8874
   5237149.07847   4115410.67645  22077216.8524                   22077212.4614
 -12904971.80947 -10019929.62945  21164477.0084                   21164474.4694
 11  7 23 19 49  0.0000000  0  7G24G07G11G13G28G19G08
   7786737.55946   6218968.52743  23356646.3284                   23356649.0784
  -7884400.14147  -6090854.28546  20240667.9694                   20240664.7774
 -13262184.47747 -10203991.68044  21948973.1174                   21948970.9924
   9748414.25847   7617144.61744  22088187.7504                   22088186.5784
  -9601395.41047  -7443952.32445  22445822.4304                   22445819.6454
   5202687.93447   4088557.82445  22070659.3834                   22070654.5354
 -13084904.82047 -10160137.16045  21130236.6484                   21130234.8874
 11  7 23 19 49 30.0000000  0  7G24G07G11G13G28G19G08
   7598228.27046   6072078.40643  23320773.9614                   23320776.5164
  -8016689.00047  -6193936.51246  20215493.8204                   20215490.7734
 -13428824.48047 -10333840.96544  21917262.7114                   21917260.4184
   9734135.80547   7606018.45744  22085470.1174                   22085469.6454
  -9752143.47347  -7561418.31244  22417136.2894                   22417133.6524
   5168557.37147   4061962.57845  22064163.9454                   22064159.5944
 -13264704.27347 -10300240.58245  21096022.0234                   21096019.7584
 11  7 23 19 50  0.0000000  0  7G24G07G11G13G28G19G08
   8985224.15646   7152854.65243  23584710.7194                   23584713.5634
  -6573238.81647  -5069170.13746  20490173.3984                   20490170.4454
 -12019677.03947  -9235803.93744  22185414.4534                   22185411.6914
  11295490.98047   8822658.76244  22382586.5004                   22382585.8014
  -8327380.32847  -6451213.19145  22688258.9384                   22688256.9884
   6710169.53147   5263218.79745  22357523.0084                   22357519.1844
 -11868947.73447  -9212638.06645  21361625.6564                   21361623.4734
 11  7 23 19 50 30.0000000  0  7G24G07G11G13G28G19G08
   8796873.39846   7006088.05143  23548868.1174                   23548871.4964
  -6704899.33247  -5171762.74246  20465119.0634                   20465115.9774
 -12185593.28147  -9365089.25444  22153841.6254                   22153838.8204
  11281632.86747   8811860.12944  22379949.7114                   22379948.5394
  -8477959.36747  -6568547.43744  22659604.7894                   22659602.9104
   6676677.37147   5237120.98845  22351149.4224                   22351145.9104
 -12048487.49247  -9352539.14545  21327460.7974                   21327458.6844
 11  7 23 19 51  0.0000000  0  7G24G07G11G13G28G19G08
   8608605.20346   6859385.78144  23513041.8984                   23513045.0354
  -6836244.02347  -5274109.25446  20440125.5704                   20440121.7704
 -12351144.79747  -9494090.36744  22122337.6804                   22122335.2114
  11267979.41447   8801220.97744  22377351.5164                   22377350.7194
  -8628456.28547  -6685817.69944  22630966.6174                   22630964.1764
   6643499.05547   5211267.77745  22344836.0474                   22344832.1954
 -12227895.00047  -9492337.18445  21293320.5004                   21293318.1094
 11  7 23 19 51 30.0000000  0  7G24G07G11G13G28G19G08
   8420418.38747   6712746.89144  23477231.4694                   23477234.0394
  -6967275.62147  -5376211.78546  20415190.1484                   20415187.2774
 -12516333.60547  -9622808.85944  22090903.3834                   22090901.4534
  11254523.21947   8790735.52744  22374790.9064                   22374789.9574
  -8778876.26647  -6803028.03944  22602342.0784                   22602339.9534
   6610627.22747   5185653.33645  22338580.9144                   22338577.1134
 -12407172.98847  -9632034.30945  21259205.0394                   21259202.0204
 11  7 23 19 52  0.0000000  0  7G24G07G11G13G28G19G08
   8232318.22347   6566175.53543  23441437.1334                   23441439.0004
  -7097990.62547  -5478067.62946  20390316.3204                   20390313.5664
 -12681154.86747  -9751240.93444  22059539.0944                   22059536.4494
  11241262.76647   8780402.61744  22372267.1094                   22372266.4804
  -8929218.15247  -6920177.49644  22573733.0864                   22573730.2814
   6578061.05947   5160277.10245  22332384.1564                   22332379.4184
 -12586317.18747  -9771627.17245  21225115.0234                   21225111.7234
 11  7 23 19 52 30.0000000  0  7G24G07G11G13G28G19G08
   8044305.45346   6419672.25043  23405658.8444                   23405661.0514
  -7228389.55948  -5579677.18746  20365502.1724                   20365499.0944
 -12845608.53147  -9879386.60244  22028244.4454                   22028242.1724
  11228193.27747   8770218.49644  22369780.2034                   22369780.0044
  -9079484.83247  -7037268.36744  22545137.8984                   22545136.2034
   6545795.88747   5135135.40644  22326243.8524                   22326240.0664
 -12765327.11747  -9911115.41845  21191050.4224                   21191047.9414
 11  7 23 19 53  0.0000000  0  7G24G07G11G13G28G19G08
   7856378.22346   6273235.61743  23369897.7504                   23369898.5704
  -7358475.59047  -5681042.91446  20340747.5554                   20340744.3324
 -13009696.93447 -10007247.62544  21997019.3134                   21997017.4104
  11215306.47747   8760176.75844  22367328.7504                   22367327.3014
  -9229682.54747  -7154305.48444  22516556.5944                   22516553.6214
   6513823.85247   5110222.12945  22320160.2194                   22320155.8444
 -12944205.60547 -10050501.23845  21157010.9774                   21157008.6884
 11  7 23 19 53 30.0000000  0  7G24G07G11G13G28G19G08
   7668543.23846   6126870.86742  23334153.3204                   23334154.7544
  -7488243.83248  -5782161.02346  20316053.5784                   20316050.7504
 -13173414.05947 -10134819.35244  21965865.1954                   21965862.7074
  11202603.01247   8750277.83644  22364910.9614                   22364910.1804
  -9379808.43747  -7271286.66044  22487988.4924                   22487986.0434
   6482145.33647   5085537.56645  22314131.7734                   22314127.7854
 -13122947.35247 -10189780.51245  21122997.4844                   21122994.7774
 11  7 23 19 54  0.0000000  0  7G24G07G11G13G28G19G08
   7480804.73646   5980581.30843  23298427.8364                   23298428.8634
  -7617691.24247  -5883029.14146  20291420.6174                   20291417.3794
 -13336756.10547 -10262098.78944  21934781.7034                   21934779.9844
  11190080.69147   8740520.09844  22362528.4844                   22362527.4884
  -9529862.07847  -7388211.54344  22459433.8054                   22459432.0394
   6450759.12147   5061080.74645  22308158.9694                   22308155.2544
 -13301548.77047 -10328950.42645  21089010.7664                   21089008.2704
 11  7 23 19 54 30.0000000  0  7G24G07G11G13G28G19G08
   7293159.59446   5834364.50843  23262719.3284                   23262721.9614
  -7746822.36747  -5983650.78546  20266847.7894                   20266844.5634
 -13499726.82047 -10389088.92644  21903769.3364                   21903767.3054
  11177730.25847   8730896.27344  22360177.2034                   22360177.6254
  -9679850.45347  -7505085.55944  22430892.7894                   22430889.9344
   6419656.05147   5036844.58245  22302240.3834                   22302236.0164
 -13480013.47347 -10468013.82045  21055049.9844                   21055047.9734
 11  7 23 19 55  0.0000000  0  8G17G24G07G11G13G28G19G08
  17046131.54356  13335083.42653  24246982.6564                   24246986.0164
   7105601.50046   5688215.53143  23227028.3054                   23227030.3914
  -7875644.91847  -6084031.99246  20242333.7734                   20242330.4694
 -13662333.47347 -10515795.33644  21872826.9454                   21872824.0274
  11165539.27347   8721396.72344  22357858.4534                   22357857.1914
  -9829783.78947  -7621916.67644  22402360.8134                   22402358.7774
   6388823.99247   5012819.58644  22296372.6804                   22296369.4964
 -13658348.76647 -10606976.36745  21021113.8984                   21021111.7114
 11  7 23 19 55 30.0000000  0  8G17G24G07G11G13G28G19G08
  16827039.83646  13164362.84443  24205290.8204                   24205294.5664
   6918146.50046   5542146.85243  23191356.6414                   23191359.4694
  -8004144.51247  -6184161.53946  20217880.8364                   20217878.1724
 -13824560.64847 -10642206.06244  21841955.3204                   21841952.6374
  11153517.66447   8712029.12144  22355570.7894                   22355570.4774
  -9979650.21147  -7738695.66444  22373842.4534                   22373840.3674
   6358273.04347   4989013.64144  22290559.9774                   22290556.0634
 -13836539.72747 -10745826.44145  20987205.1484                   20987202.5744
 11  7 23 19 56  0.0000000  0  8G17G24G07G11G13G28G19G08
  16607996.48846  12993679.93443  24163608.7894                   24163612.0704
   6730774.15246   5396142.67643  23155700.5394                   23155702.5824
  -8132343.06647  -6284056.51246  20193485.8444                   20193482.3054
 -13986428.94147 -10768337.16444  21811153.7584                   21811150.7424
  11141638.73447   8702772.71144  22353310.5234                   22353310.2704
 -10129474.05547  -7855441.47744  22345331.9384                   22345329.2074
   6327976.77747   4965406.14545  22284794.5634                   22284790.9574
 -14014607.44547 -10884580.48445  20953320.0474                   20953317.9024
 11  7 23 19 56 30.0000000  0  8G17G24G07G11G13G28G19G08
  16389006.81346  12823038.85943  24121936.1414                   24121939.3674
   6543491.72746   5250208.51843  23120061.9694                   23120063.5124
  -8260234.80147  -6383712.40246  20169148.3914                   20169145.8634
 -14147932.30547 -10894183.88344  21780419.7584                   21780417.7854
  11129903.55147   8693628.31644  22351077.2344                   22351076.8134
 -10279251.99247  -7972151.50844  22316829.3834                   22316827.1214
   6297936.35547   4941998.00845  22279077.8524                   22279074.3554
 -14192545.82847 -11023233.73845  20919459.5314                   20919457.2034
 11  7 23 19 57  0.0000000  0  8G17G24G07G11G13G28G19G08
  17745491.87546  13880040.44543  24380066.2814                   24380069.1024
   7931719.75446   6331944.78143  23384232.7114                   23384234.4694
  -6812402.52747  -5255531.40646  20444662.0554                   20444658.7074
 -12733651.55547  -9792146.87144  22049548.7424                   22049546.3874
  12693720.82047   9912187.11344  22648661.4534                   22648661.2114
  -8853568.59447  -6861229.33644  22588128.6334                   22588125.8714
   7843561.54347   6146381.24244  22573201.1954                   22573196.5044
 -12794934.85947  -9934186.21945  21185416.0164                   21185413.2464
 11  7 23 19 57 30.0000000  0  8G17G24G07G11G13G28G19G08
  17526595.72346  13709472.27343  24338411.3834                   24338414.4304
   7744605.81646   6186141.91043  23348626.3754                   23348627.7344
  -6939695.99647  -5354721.12146  20420438.7894                   20420435.0554
 -12894437.91047  -9917434.87945  22018951.8524                   22018950.1174
  12682243.62547   9903243.69544  22646478.2814                   22646477.5554
  -9003277.57847  -6977885.64544  22559639.2974                   22559636.8984
   7814004.27347   6123349.59844  22567576.3594                   22567571.2664
 -12972627.28147 -10072647.81645  21151602.2734                   21151599.8984
 11  7 23 19 58  0.0000000  0  8G17G24G07G11G13G28G19G08
  17307741.34046  13538936.66443  24296763.9694                   24296767.4304
   7557572.84046   6040402.08643  23313034.8594                   23313036.6174
  -7066696.24648  -5453682.35546  20396271.5704                   20396268.3914
 -13054870.07447 -10042446.89844  21988422.8134                   21988420.4534
  12670882.57847   9894390.82844  22644315.9924                   22644315.5984
  -9152961.41847  -7094522.36744  22531155.6334                   22531153.6094
   7784675.91447   6100496.31344  22561994.8134                   22561990.8324
 -13150201.66447 -10211017.44145  21117810.8754                   21117808.5984
 11  7 23 19 58 30.0000000  0  8G17G24G07G11G13G28G19G08
  17088942.42246  13368444.28143  24255127.9614                   24255130.9414
   7370635.09446   5894736.49643  23277461.9924                   23277463.5354
  -7193390.28947  -5552404.99246  20372162.6724                   20372159.4064
 -13214934.52047 -10167172.39544  21957963.8674                   21957960.8014
  12659646.12147   9885635.02344  22642177.7424                   22642177.3284
  -9302609.57047  -7211131.27045  22502678.8054                   22502676.0904
   7755585.60246   6077828.50844  22556460.2344                   22556455.2034
 -13327644.06647 -10349284.21145  21084044.9774                   21084042.8244
 11  7 23 19 59  0.0000000  0  8G17G24G07G11G13G28G19G08
  16870192.31646  13197989.89543  24213500.8984                   24213504.2304
   7183787.38347   5749141.01643  23241905.7274                   23241906.9494
  -7319784.86347  -5650894.26246  20348110.3984                   20348107.2814
 -13374637.30547 -10291616.09044  21927572.7814                   21927570.3054
  12648522.61747   9876967.25444  22640061.4694                   22640060.7734
  -9452231.30947  -7327719.59444  22474206.1254                   22474203.6524
   7726721.82047   6055337.22744  22550967.1564                   22550962.2504
 -13504960.52347 -10487452.85545  21050302.8524                   21050300.3794
 11  7 23 19 59 30.0000000  0  8G17G24G07G11G13G28G19G08
  16651502.42646  13027582.39143  24171886.7274                   24171888.6134
   6997042.44946   5603625.64543  23206369.0784                   23206371.0204
  -7445868.89848  -5749141.55546  20324117.5234                   20324114.1254
 -13533966.46547 -10415768.62544  21897253.6804                   21897250.9344
  12637518.35247   9868392.37544  22637967.4614                   22637966.8324
  -9601817.76647  -7444280.43444  22445741.2974                   22445738.2504
   7698091.25447   6033027.66844  22545518.6094                   22545514.6564
 -13682139.30547 -10625514.23445  21016586.7034                   21016583.9024
 11  7 23 20  0  0.0000000  0  8G17G24G07G11G13G28G19G08
  16432867.25046  12857217.52043  24130280.2344                   24130283.5704
   6810395.85946   5458186.91444  23170850.6484                   23170853.3594
  -7571648.43447  -5847151.57846  20300182.0634                   20300179.2034
 -13692927.30947 -10539634.16844  21867004.2344                   21867001.8834
  12626623.02747   9859902.39144  22635894.9064                   22635893.6374
  -9751377.54347  -7560820.47344  22417280.3524                   22417277.9924
   7669683.56347   6010891.80544  22540112.7504                   22540108.7974
 -13859186.02347 -10763472.68745  20982895.4224                   20982892.9964
 11  7 23 20  0 30.0000000  0  8G17G24G07G11G13G28G19G08
  16214286.08646  12686894.82043  24088685.8054                   24088688.5274
   6623847.98446   5312825.11343  23135352.1334                   23135354.5474
  -7697124.55148  -5944925.18046  20276305.1884                   20276301.8164
 -13851520.16447 -10663212.95344  21836825.3284                   21836822.7774
  12615830.88747   9851492.82044  22633840.9144                   22633840.2664
  -9900914.15647  -7677342.47344  22388824.9924                   22388821.7304
   7641493.35947   5988925.39544  22534748.1804                   22534744.0984
 -14036100.76647 -10901328.31245  20949229.4144                   20949227.3834
 11  7 23 20  1  0.0000000  0  8G17G24G07G11G13G28G19G08
  15995773.15646  12516625.24243  24047103.8754                   24047106.7154
   6437413.94546   5167552.00043  23099875.3284                   23099876.9414
  -7822283.68747  -6042451.77046  20252487.9304                   20252484.4574
 -14009730.88347 -10786494.00045  21806718.6254                   21806716.4694
  12605150.71547   9843170.46544  22631808.2664                   22631808.5394
 -10050416.18047  -7793837.53144  22360375.7974                   22360373.0084
   7613529.63747   5967135.46544  22529427.1254                   22529422.6884
 -14212869.25847 -11039069.98445  20915591.7584                   20915589.0984
 11  7 23 20  1 30.0000000  0  8G17G24G07G11G13G28G19G08
  15777327.64546  12346408.19543  24005535.6334                   24005537.5984
   6251094.16846   5022367.95743  23064419.4774                   23064421.3444
  -7947126.79747  -6139732.11746  20228731.3204                   20228727.9804
 -14167559.79347 -10909477.53944  21776684.8914                   21776682.5984
  12594577.02047   9834931.09444  22629796.6414                   22629795.8954
 -10199887.15647  -7910308.38345  22331931.8594                   22331929.4844
   7585787.03947   5945517.83645  22524148.3444                   22524144.4264
 -14389491.45347 -11176697.65645  20881981.8594                   20881979.1174
 11  7 23 20  2  0.0000000  0  8G17G24G07G11G13G28G19G08
  15558946.76246  12176241.49643  23963978.3204                   23963980.8094
   6064886.93846   4877271.62543  23028984.8444                   23028987.4454
  -8071657.40248  -6236768.95346  20205033.2894                   20205030.7544
 -14325009.12947 -11032165.27744  21746722.4144                   21746720.5124
  12584101.36747   9826768.11744  22627803.7034                   22627802.9184
 -10349332.61347  -8026759.34444  22303493.4844                   22303491.1024
   7558257.75847   5924066.41444  22518909.4384                   22518905.3984
 -14565969.97747 -11314213.37545  20848399.1334                   20848396.3444
 11  7 23 20  2 30.0000000  0  8G17G24G07G11G13G28G19G08
  15340639.62946  12006132.28543  23922436.0004                   23922438.1484
   5878802.34046   4732270.83243  22993574.1724                   22993575.3244
  -8195866.82847  -6333555.52046  20181397.1954                   20181394.0204
 -14482069.96547 -11154550.27744  21716834.9924                   21716832.6994
  12573727.96947   9818684.82043  22625828.9304                   22625828.6524
 -10498746.75447  -8143185.90645  22275060.6954                   22275058.5004
   7530946.02747   5902784.53544  22513712.0784                   22513708.0204
 -14742295.56248 -11451609.92245  20814845.2344                   20814842.7664
 11  7 23 20  3  0.0000000  0  8G17G24G07G11G13G28G19G08
  15122401.87946  11836077.13743  23880906.6254                   23880908.0044
   5692837.55146   4587363.33243  22958186.1094                   22958187.8674
  -8319759.69947  -6430095.42246  20157821.4844                   20157818.3164
 -14638746.07447 -11276635.51244  21687020.6954                   21687018.6914
  12563447.78547   9810674.14543  22623872.8204                   22623873.2544
 -10648136.03147  -8259593.10944  22246633.1724                   22246630.6684
   7503843.05947   5881665.31344  22508554.8914                   22508551.1484
 -14918471.98848 -11588890.23845  20781320.2194                   20781317.5784
 11  7 23 20  3 30.0000000  0  8G17G24G07G11G13G28G19G08
  16479673.12546  12893691.32443  24139186.3834                   24139188.5744
   7082431.98446   5670164.30543  23222616.9924                   23222617.8914
  -6867900.19147  -5298776.33646  20434101.2274                   20434097.7074
 -13219599.85947 -10170807.23844  21957075.5234                   21957073.0204
  14128688.10247  11030341.80944  22921728.6024                   22921728.5234
  -9222066.36347  -7148369.97344  22518005.2974                   22518002.4104
   9052376.96147   7088315.10244  22803230.4924                   22803227.1024
 -13519060.57448 -10498439.76245  21047619.2974                   21047616.6484
 11  7 23 20  4  0.0000000  0  8G17G24G07G11G13G28G19G08
  16261595.72746  12723761.08643  24097687.9774                   24097690.0594
   6896731.17246   5525462.54743  23187278.8914                   23187280.3794
  -6991140.35547  -5394807.62946  20410648.9694                   20410645.6484
 -13375484.60547 -10292275.81645  21927410.8444                   21927408.7544
  14118600.24247  11022480.98444  22919808.1884                   22919809.0864
  -9371393.53947  -7264728.77344  22489589.1024                   22489586.5784
   9025698.25047   7067526.47344  22798153.2664                   22798149.9144
 -13694916.00047 -10635469.95346  21014155.1174                   21014152.4224
 11  7 23 20  4 30.0000000  0  9G17G24G07G26G11G13G28G19G08
  16043605.46946  12553898.77743  24056205.4924                   24056207.5664
   6711170.87946   5380870.30943  23151968.3754                   23151970.1334
  -7114047.88747  -5490579.73846  20387260.5004                   20387257.5984
  20221626.71156  15806995.17652  24029298.6804                   24029298.9804
 -13530966.49247 -10413430.48045  21897823.9144                   21897821.3014
  14108607.91447  11014694.60943  22917907.4924                   22917907.4064
  -9520686.81247  -7381061.17644  22461179.7974                   22461176.5944
   8999231.55147   7046903.05544  22793117.7274                   22793113.7544
 -13870603.42648 -10772369.22745  20980722.8674                   20980720.2894
 11  7 23 20  5  0.0000000  0  9G17G24G07G26G11G13G28G19G08
  15825694.43046  12384098.19143  24014737.6644                   24014740.0634
   6525744.76246   5236382.59043  23116683.6174                   23116684.3714
  -7236631.13347  -5586099.16046  20363933.4844                   20363930.9184
  20022118.59446  15651534.31642  23991334.5864                   23991334.0864
 -13686053.06247 -10534277.09845  21868311.9844                   21868309.3984
  14098698.21147  11006972.61743  22916021.6024                   22916021.6484
  -9669956.68047  -7497375.32045  22432774.8134                   22432772.1684
   8972964.13746   7026434.91444  22788119.3364                   22788114.6954
 -14046130.19147 -10909143.30946  20947321.4774                   20947318.4884
 11  7 23 20  5 30.0000000  0  9G17G24G07G26G11G13G28G19G08
  15607861.34046  12214358.33243  23973286.0234                   23973287.8634
   6340452.52746   5091999.19943  23081423.1254                   23081423.3914
  -7358891.79747  -5681367.19946  20340668.4774                   20340665.3754
  19822946.34046  15496335.17642  23953433.6804                   23953433.0164
 -13840745.38747 -10654816.51244  21838874.8204                   21838871.1684
  14088864.83647  10999310.12944  22914150.8524                   22914149.9064
  -9819207.24247  -7613674.42244  22404372.8834                   22404369.4924
   8946889.78546   7006117.22344  22783157.0004                   22783153.7034
 -14221497.27048 -11045792.97346  20913950.0394                   20913947.5634
 11  7 23 20  6  0.0000000  0  9G17G24G07G26G11G13G28G19G08
  15390106.50446  12044679.44144  23931847.5704                   23931850.3014
   6155295.37547   4947721.08243  23046188.7274                   23046189.0314
  -7480830.12147  -5776384.07846  20317464.2344                   20317461.0664
  19624110.67646  15341398.29742  23915595.6254                   23915596.1294
 -13995043.40647 -10775048.68044  21809512.6804                   21809510.1844
  14079102.76647  10991703.16844  22912293.8134                   22912293.6484
  -9968441.01247  -7729960.43444  22375974.6804                   22375971.8444
   8921004.01247   6985946.46944  22778231.4304                   22778227.3984
 -14396703.97348 -11182317.65245  20880609.2504                   20880606.4454
 11  7 23 20  6 30.0000000  0  9G17G24G07G26G11G13G28G19G08
  15172421.12146  11875054.68043  23890423.2114                   23890425.5634
   5970265.77046   4803542.33243  23010978.3914                   23010978.9844
  -7602455.67247  -5871157.23446  20294319.4384                   20294316.7934
  19425603.81346  15186717.67242  23877820.7504                   23877820.6914
 -14148955.48047 -10894980.13344  21780224.2974                   21780221.5044
  14069398.42647  10984141.18044  22910447.0164                   22910447.2974
 -10117669.72747  -7846242.50845  22347577.0554                   22347574.3634
   8895293.48447   6965912.26244  22773339.1644                   22773334.6134
 -14571758.44548 -11318723.71945  20847297.4304                   20847294.7934
 11  7 23 20  7  0.0000000  0  9G17G24G07G26G11G13G28G19G08
  14954818.21146  11705494.17244  23849015.7974                   23849017.1684
   5785377.59847   4659473.76243  22975795.0784                   22975795.6294
  -7723756.09047  -5965677.03146  20271236.8134                   20271234.0904
  19227439.17246  15032303.71142  23840110.6804                   23840111.3984
 -14302468.41447 -11014600.53944  21751011.3834                   21751009.3524
  14059759.92247  10976630.49243  22908612.5474                   22908613.0744
 -10266882.92247  -7962512.48845  22319182.8524                   22319180.4414
   8869766.25847   6946020.91044  22768481.4064                   22768477.5664
 -14746647.67248 -11455001.02346  20814017.4774                   20814014.6844
 11  7 23 20  7 30.0000000  0  9G17G24G07G26G11G13G28G19G08
  14737301.81346  11536001.12143  23807623.5474                   23807624.8204
   5600636.73846   4515519.93443  22940640.4614                   22940640.6684
  -7844727.40247  -6059940.39546  20248217.0554                   20248214.3634
  19029621.66846  14878160.28543  23802467.0474                   23802468.2274
 -14455578.11347 -11133906.76644  21721876.0004                   21721873.2774
  14050186.30947  10969170.37943  22906790.7734                   22906790.4534
 -10416079.09447  -8078769.20345  22290791.8754                   22290789.1884
   8844421.78147   6926271.94144  22763658.7504                   22763654.5084
 -14921366.69148 -11591145.70346  20780769.3524                   20780766.7464
 11  7 23 20  8  0.0000000  0  9G17G24G07G26G11G13G28G19G08
  14519878.94146  11366580.87543  23766248.4774                   23766249.7814
   5416051.07447   4371687.07043  22905514.5234                   22905515.4384
  -7965362.96547  -6153942.12946  20225261.6254                   20225257.8364
  18832159.09446  14724293.40243  23764891.8134                   23764891.9494
 -14608277.13347 -11252892.96145  21692818.6024                   21692816.5704
  14040679.60547  10961762.44143  22904982.0704                   22904981.1844
 -10565253.91847  -8195009.28945  22262404.9694                   22262402.0904
   8819262.35947   6906667.17644  22758870.6414                   22758867.1564
 -15095908.12148 -11727151.99246  20747555.5314                   20747553.0044
 11  7 23 20  8 30.0000000  0  9G17G24G07G26G11G13G28G19G08
  14302552.28546  11197235.63343  23724892.4534                   23724894.2384
   5231624.38346   4227978.10243  22870419.0234                   22870420.1214
  -8085660.94947  -6247680.80546  20202369.0634                   20202365.4064
  18635054.91846  14570705.81043  23727384.5394                   23727383.9804
 -14760562.94947 -11371557.18745  21663839.1954                   21663836.7734
  14031237.50447  10954404.75043  22903185.8914                   22903185.1054
 -10714407.74247  -8311233.00844  22234022.7584                   22234018.9734
   8794285.90247   6887204.98844  22754117.3914                   22754113.7814
 -15270268.63748 -11863017.31646  20714375.4224                   20714372.8404
 11  7 23 20  9  0.0000000  0  9G17G24G07G26G11G13G28G19G08
  14085330.01246  11027971.71943  23683556.2734                   23683558.0704
   5047365.80146   4084400.16843  22835355.6884                   22835357.5864
  -8205613.69147  -6341150.47746  20179542.8364                   20179539.7344
  18438317.76246  14417404.17243  23689946.0474                   23689946.4064
 -14912427.57047 -11489893.19145  21634940.6174                   21634938.0394
  14021862.76647  10947099.55543  22901400.9534                   22901401.7344
 -10863535.21947  -8427436.18445  22205643.8364                   22205640.7894
   8769495.79747   6867887.99244  22749400.3914                   22749397.1254
 -15444439.96148 -11998735.21546  20681231.8594                   20681229.4534
 11  7 23 20  9 30.0000000  0  9G17G24G07G26G11G13G28G19G08
  13868209.37146  10858786.99243  23642239.2344                   23642241.5004
   4863273.83247   3940952.00844  22800324.6724                   22800324.7424
  -8325224.64547  -6434353.82046  20156781.2734                   20156777.9414
  18241945.29746  14264386.73443  23652577.5394                   23652577.0314
 -15063873.36347 -11607902.85545  21606120.6024                   21606118.4844
  14012547.89147  10939841.09843  22899629.2114                   22899628.2154
 -11012641.56247  -8543622.91045  22177269.7504                   22177266.8634
   8744884.50447   6848710.33644  22744717.0864                   22744713.2704
 -15618424.22348 -12134307.34846  20648123.5474                   20648120.8134
 11  7 23 20 10  0.0000000  0  9G17G24G07G26G11G13G28G19G08
  15226628.23446  11917295.39143  23900737.5554                   23900739.8054
   6254786.66447   5025247.86743  23065120.5704                   23065121.0234
  -6869059.69147  -5299679.82846  20433880.5394                   20433877.2384
  19621375.82446  15339267.72343  23915074.4924                   23915074.2544
 -13639464.61347 -10497973.91845  21877177.3284                   21877173.8794
  15578719.06346  12160234.08643  23197661.5394                   23197660.6684
  -9586293.73047  -7432183.00445  22448695.1254                   22448692.1484
  10295878.88747   8057277.36344  23039861.8754                   23039857.8634
 -14216784.65648 -11042120.65646  20914846.8364                   20914844.3404
 11  7 23 20 10 30.0000000  0  9G17G24G07G26G11G13G28G19G08
  15009733.46546  11748286.66443  23859463.3984                   23859465.8714
   6071054.35246   4882079.99243  23030157.0004                   23030157.9884
  -6987965.68747  -5392333.84446  20411253.2114                   20411250.6454
  19425758.10546  15186838.36743  23877850.1484                   23877849.6994
 -13790050.10247 -10615313.19545  21848521.7424                   21848519.1644
  15569532.12146  12153075.24643  23195914.0864                   23195912.5984
  -9735342.99647  -7548325.26245  22420331.5554                   22420329.1564
  10271633.87147   8038385.11344  23035248.4844                   23035243.9144
 -14390370.64148 -11177382.44146  20881814.6724                   20881812.2894
 11  7 23 20 11  0.0000000  0  9G17G24G07G26G11G13G28G19G08
  14792967.09046  11579377.96944  23818215.5634                   23818216.4264
   5887518.87146   4739065.48843  22995231.1414                   22995231.7624
  -7106504.77347  -5484701.96946  20388695.6024                   20388693.2114
  19230534.03546  15034715.77743  23840700.2274                   23840699.3954
 -13940190.23847 -10732305.47344  21819951.1804                   21819947.6604
  15560416.69546  12145972.14543  23194179.0314                   23194179.2154
  -9884352.58247  -7664436.58245  22391976.0314                   22391973.1524
  10247580.16847   8019641.93444  23030670.7194                   23030666.4224
 -14563741.24648 -11312476.41046  20848822.8674                   20848820.5124
 11  7 23 20 11 30.0000000  0  9G17G24G07G26G11G13G28G19G08
  14576321.08647  11410563.08644  23776988.8914                   23776989.7704
   5704173.33646   4596198.94943  22960341.7974                   22960342.4344
  -7224685.72347  -5576791.02346  20366206.9694                   20366204.0664
  19035696.30546  14882894.19543  23803622.8444                   23803623.2034
 -14089892.60947 -10848956.62545  21791462.8444                   21791461.3874
  15551359.95347  12138914.75843  23192455.2034                   23192456.4494
 -10033333.19547  -7780525.33645  22363625.6884                   22363622.8244
  10223705.20346   8001038.03144  23026126.9694                   23026123.7704
 -14736903.84048 -11447408.27346  20815871.2894                   20815868.4804
 11  7 23 20 12  0.0000000  0  9G17G24G07G26G11G13G28G19G08
  14359802.29746  11241847.32444  23735785.9384                   23735788.1764
   5521025.76646   4453486.70743  22925490.7974                   22925490.8284
  -7342502.12547  -5668596.00446  20343786.6644                   20343784.0904
  18841252.17246  14731379.35243  23766621.8674                   23766620.9104
 -14239150.62547 -10965261.52045  21763060.6254                   21763057.6954
  15542363.81646  12131904.61743  23190743.6094                   23190744.2934
 -10182280.59847  -7896588.21144  22335281.1954                   22335279.1254
  10200011.22746   7982575.16044  23021619.0084                   23021614.7664
 -14909851.20748 -11582172.43446  20782960.5944                   20782958.2544
 11  7 23 20 12 30.0000000  0  9G17G24G07G26G11G13G28G19G08
  14143405.98047  11073226.98844  23694606.7344                   23694608.4304
   5338072.75846   4310926.04343  22890674.6724                   22890675.5044
  -7459959.09847  -5760120.92246  20321435.6724                   20321432.8444
  18647197.82446  14580168.23843  23729693.9534                   23729693.6804
 -14387969.04347 -11081223.86745  21734740.4924                   21734737.9184
  15533419.09446  12124934.49643  23189041.8204                   23189041.6174
 -10331201.90647  -8012630.76244  22306942.9844                   22306940.0784
  10176488.64546   7964245.83644  23017142.6174                   23017139.0004
 -15082587.20748 -11716771.88346  20750089.6724                   20750087.2344
 11  7 23 20 13  0.0000000  0  9G17G24G07G26G11G13G28G19G08
  13927146.75446  10904713.48443  23653453.3594                   23653455.1764
   5155329.93046   4168529.19943  22855899.8364                   22855900.7734
  -7577042.62547  -5851354.84046  20299155.4304                   20299152.8014
  18453548.42646  14429272.62943  23692844.5784                   23692844.1524
 -14536333.39847 -11196832.39845  21706508.3134                   21706506.2074
  15524534.97747  12118011.64143  23187351.1564                   23187352.0904
 -10480085.30947  -8128643.76245  22278611.9774                   22278608.8524
  10153147.34046   7946057.77744  23012700.6954                   23012697.2544
 -15255097.10248 -11851195.16046  20717262.2504                   20717259.5594
 11  7 23 20 13 30.0000000  0  9G17G24G07G26G11G13G28G19G08
  13711028.60246  10736309.88343  23612328.3054                   23612328.6054
   4972802.34047   4026300.02744  22821165.5784                   22821166.4264
  -7693749.71947  -5942295.43746  20276946.7974                   20276943.8714
  18260308.52746  14278696.15643  23656072.3284                   23656071.8284
 -14684239.42647 -11312083.80145  21678362.4304                   21678359.8834
  15515710.54747  12111135.26643  23185672.3674                   23185673.2234
 -10628929.45747  -8244626.18444  22250287.3134                   22250284.4694
  10129986.87946   7928010.60244  23008293.3754                   23008290.2114
 -15427376.39548 -11985438.75446  20684478.4774                   20684476.0354
 11  7 23 20 14  0.0000000  0  9G17G24G07G26G11G13G28G19G08
  13495049.61346  10568014.76643  23571227.7424                   23571229.0594
   4790489.51646   3884238.20744  22786472.4844                   22786473.2584
  -7810082.52747  -6032944.37546  20254809.6094                   20254806.8634
  18067476.82446  14128437.72742  23619377.1884                   23619376.6134
 -14831689.09047 -11426979.58645  21650304.0164                   21650301.3794
  15506939.17646  12104300.24243  23184002.6414                   23184004.0704
 -10777738.71147  -8360581.41445  22221970.0784                   22221967.3404
  10107000.66046   7910099.24244  23003919.4144                   23003915.7074
 -15599426.18748 -12119503.50446  20651738.9064                   20651735.7234
 11  7 23 20 14 30.0000000  0  9G17G24G07G26G11G13G28G19G08
  13279206.32446  10399825.36343  23530154.6414                   23530156.2154
   4608388.77747   3742341.65243  22751820.7734                   22751820.1174
  -7926045.04347  -6123304.77746  20232742.8914                   20232740.1954
  17875050.25046  13978494.97343  23582760.1484                   23582759.7424
 -14978686.39147 -11541522.88344  21622331.7344                   21622328.3554
  15498212.37146  12097499.93443  23182341.9454                   23182343.3594
 -10926519.31247  -8476514.33245  22193657.8284                   22193655.0824
  10084181.30146   7892317.89844  22999577.1724                   22999573.0474
 -15771249.60548 -12253391.86746  20619041.8284                   20619039.4614
 11  7 23 20 15  0.0000000  0  9G17G24G07G26G11G13G28G19G08
  13063508.33646  10231749.18443  23489108.2114                   23489109.5204
   4426511.30946   3600619.03543  22717209.6414                   22717210.5514
  -8041628.46947  -6213369.78546  20210748.0944                   20210744.4024
  17683039.39146  13828876.19143  23546221.4304                   23546220.8364
 -15125221.55147 -11655706.07844  21594446.2504                   21594443.4884
  15489535.03547  12090738.19943  23180692.3524                   23180692.5434
 -11075264.19547  -8592419.40645  22165352.8674                   22165349.9774
  10061532.63746   7874669.53144  22995267.3204                   22995263.8914
 -15942836.03948 -12387095.55946  20586389.8204                   20586387.2344
 11  7 23 20 15 30.0000000  0  9G17G24G07G26G11G13G28G19G08
  12847960.05546  10063789.65243  23448091.0084                   23448091.7154
   4244862.40647   3459074.56343  22682643.2034                   22682643.8484
  -8156829.30147  -6303136.67246  20188825.9924                   20188822.7384
  17491449.01646  13679585.07043  23509762.3984                   23509762.0124
 -15271290.04347 -11769525.65245  21566650.7034                   21566647.7974
  15480906.28546  12084014.33643  23179049.5394                   23179050.2774
 -11223971.59847  -8708295.28145  22137054.8054                   22137051.8914
  10039054.35546   7857153.95744  22990989.7424                   22990986.0394
 -16114180.50448 -12520610.71146  20553783.9694                   20553781.4384
 11  7 23 20 16  0.0000000  0  9G17G24G07G26G11G13G28G19G08
  12632558.66846   9895944.62543  23407100.8674                   23407102.3914
   4063440.51246   3317706.93443  22648120.2664                   22648119.9574
  -8271650.49247  -6392607.73046  20166976.0004                   20166973.5594
  17300277.00446  13530619.88343  23473384.1564                   23473383.3244
 -15416894.80147 -11882983.85945  21538942.7584                   21538940.0704
  15472318.44146  12077322.32043  23177415.7034                   23177415.5664
 -11372646.45747  -8824145.77045  22108762.8054                   22108759.6724
  10016739.98846   7839766.12944  22986743.8204                   22986739.3444
 -16285285.42248 -12653939.20746  20521223.9384                   20521221.1254
 11  7 23 20 16 30.0000000  0  9G17G24G07G26G11G13G28G19G08
  12417313.69546   9728221.47344  23366140.9534                   23366141.9884
   3882256.39146   3176524.62144  22613641.4144                   22613641.7074
  -8386083.37547  -6481776.22346  20145200.6644                   20145197.1844
  17109533.35546  13381988.50843  23437086.8594                   23437086.2234
 -15562026.95347 -11996073.81244  21511325.5084                   21511322.3094
  15463776.69146  12070666.21143  23175790.4774                   23175790.8204
 -11521282.55147  -8939966.07045  22080477.9694                   22080474.9574
   9994594.06346   7822509.51244  22982529.3054                   22982525.6844
 -16456140.93448 -12787073.36745  20488711.0474                   20488708.2114
 11  7 23 20 17  0.0000000  0  9G17G24G07G26G11G13G28G19G08
  13777653.86347  10788227.02044  23625004.9304                   23625006.4344
   5276738.43446   4263134.12143  22879001.8524                   22879002.8754
  -6924703.74647  -5343038.84846  20423291.6024                   20423288.3754
  18494646.29746  14461297.32843  23700664.9774                   23700663.7194
 -14131260.11747 -10881190.53145  21783591.1884                   21783588.5904
  17030697.47346  13291643.23843  23473965.4534                   23473966.7974
 -10094455.96547  -7828153.10545  22351994.2814                   22351991.4534
  11548033.75846   9032981.96944  23278138.4844                   23278135.8284
 -15051318.99248 -11692406.89546  20756039.6804                   20756037.3204
 11  7 23 20 17 30.0000000  0  9G17G24G07G26G11G13G28G19G08
  13562728.73447  10620753.09844  23584106.5004                   23584107.0984
   5096040.01646   4122330.25843  22844617.1954                   22844616.7464
  -7038355.72747  -5431598.84046  20401664.5394                   20401661.5984
  18304767.91846  14313340.15643  23664532.4534                   23664531.2544
 -14275440.12547 -10993538.55945  21756154.0084                   21756151.7974
  17022239.50046  13285052.39843  23472356.6564                   23472357.2304
 -10243014.98047  -7943913.34845  22323724.7504                   22323721.6174
  11526217.57046   9015982.31344  23273987.8134                   23273984.1844
 -15221666.00848 -11825144.81646  20723623.9304                   20723621.3594
 11  7 23 20 18  0.0000000  0  9G17G24G07G26G11G13G28G19G08
  13347959.09846  10453400.34844  23543236.2894                   23543237.3204
   4915582.14846   3981713.86343  22810276.6254                   22810276.5274
  -7151622.27347  -5519858.49646  20380110.4144                   20380107.4494
  18115318.60246  14165717.30143  23628481.0704                   23628479.8524
 -14419148.57047 -11105519.12544  21728807.4454                   21728804.8954
  17013811.74246  13278485.10243  23470752.7734                   23470752.6804
 -10391543.50447  -8059649.83645  22295460.1884                   22295457.3954
  11504555.15646   8999102.46944  23269865.9454                   23269861.4024
 -15391762.44548 -11957687.47746  20691255.9384                   20691252.7894
 11  7 23 20 18 30.0000000  0  9G17G24G07G26G11G13G28G19G08
  13133358.30547  10286179.17644  23502399.5864                   23502400.2464
   4735379.12146   3841296.03143  22775985.3364                   22775985.4804
  -7264490.68747  -5607807.90246  20358632.1804                   20358628.8754
  17926312.15646  14018439.66043  23592513.6484                   23592513.2854
 -14562372.60947 -11217122.23045  21701552.5004                   21701550.1994
  17005422.94546  13271948.20743  23469156.7664                   23469157.0864
 -10540030.73047  -8175354.12145  22267204.0554                   22267200.5704
  11483055.07846   8982349.14144  23265774.1564                   23265769.7854
 -15561594.32447 -12090023.98846  20658937.2814                   20658935.0664
 11  7 23 20 19  0.0000000  0  9G17G24G07G26G11G13G28G19G08
  12918928.70747  10119091.38344  23461594.8284                   23461595.5904
   4555434.59846   3701079.66444  22741742.4144                   22741743.5084
  -7376959.19147  -5695445.70346  20337230.4304                   20337227.3754
  17737751.71546  13871509.49642  23556632.3054                   23556631.3244
 -14705109.93747 -11328346.09845  21674391.3364                   21674388.5744
  16997070.68446  13265439.66043  23467567.7734                   23467568.1024
 -10688476.62147  -8291026.22345  22238955.7974                   22238953.1094
  11461715.22346   8965720.62944  23261712.7664                   23261709.4264
 -15731158.75848 -12222152.11746  20626671.0394                   20626667.9224
 11  7 23 20 19 30.0000000  0  9G17G24G07G26G11G13G28G19G08
  12704675.57447   9952141.10244  23420823.5234                   23420824.2464
   4375755.05147   3561069.75043  22707550.8054                   22707550.5864
  -7489023.35247  -5782768.44546  20315905.2734                   20315902.1994
  17549642.91446  13724931.24643  23520837.3204                   23520835.5664
 -14847355.40247 -11439186.67645  21647321.8914                   21647319.2974
  16988755.27346  13258959.89843  23465984.8594                   23465986.2464
 -10836878.78147  -8406664.22745  22210715.1094                   22210712.6604
  11440536.28146   8949217.50844  23257682.9844                   23257678.8594
 -15900449.43448 -12354066.91046  20594455.4774                   20594452.9964
 11  7 23 20 20  0.0000000  0  9G17G24G07G26G11G13G28G19G08
  12490604.27046   9785332.53544  23380086.7194                   23380088.2814
   4196346.74247   3421271.20744  22673409.6484                   22673410.2074
  -7600678.55147  -5869772.49646  20294658.0704                   20294654.8634
  17361991.69946  13578709.58643  23485126.4844                   23485126.9184
 -14989103.65647 -11549639.84445  21620348.6414                   21620345.5124
  16980477.62146  13252509.60243  23464410.5864                   23464411.1684
 -10985233.81647  -8522265.51645  22182484.6094                   22182481.8484
  11419519.79746   8932840.99644  23253684.6484                   23253679.6134
 -16069460.20748 -12485763.59846  20562293.8834                   20562291.1764
 11  7 23 20 20 30.0000000  0  9G17G24G07G26G11G13G28G19G08
  12276715.71546   9618666.31643  23339384.6094                   23339385.7304
   4017211.83646   3281685.66843  22639321.7734                   22639322.3954
  -7711924.74647  -5956457.85246  20273488.5944                   20273485.4844
  17174799.06346  13432845.27043  23449505.1564                   23449505.9884
 -15130354.58647 -11659705.45345  21593468.9774                   21593466.5824
  16972233.49246  13246085.41443  23462840.9064                   23462842.5784
 -11133543.71547  -8637831.63745  22154262.9534                   22154259.5824
  11398661.42246   8916587.65644  23249714.8364                   23249711.3554
 -16238189.77747 -12617241.18446  20530185.9534                   20530183.0234
 11  7 23 20 21  0.0000000  0  9G17G24G07G26G11G13G28G19G08
  12063011.50446   9452143.76643  23298718.2194                   23298718.6684
   3838353.00847   3142315.27744  22605286.1254                   22605286.4534
  -7822761.06247  -6042823.80546  20252397.0234                   20252393.9414
  16988067.31646  13287340.02743  23413972.3834                   23413971.8134
 -15271106.92247 -11769382.57445  21566684.7194                   21566682.5394
  16964019.57046  13239684.69143  23461278.6884                   23461279.7234
 -11281809.48847  -8753363.39545  22126048.2814                   22126045.8874
  11377958.18446   8900455.20344  23245775.2114                   23245771.2544
 -16406636.41847 -12748498.29746  20498131.3364                   20498128.7704
 11  7 23 20 21 30.0000000  0  9G17G24G07G26G11G13G28G19G08
  11849491.43846   9285764.67244  23258086.6724                   23258086.2074
   3659771.67647   3003161.09844  22571303.5944                   22571301.9024
  -7933187.98447  -6128870.76246  20231383.6414                   20231380.3754
  16801797.00846  13142194.40243  23378525.3754                   23378525.3014
 -15411360.51647 -11878671.07845  21539995.5944                   21539993.2814
  16955831.18446  13233303.86343  23459720.7114                   23459722.1884
 -11430033.33647  -8868862.46145  22097841.6024                   22097839.0084
  11357406.11746   8884440.57844  23241864.5084                   23241860.9574
 -16574798.78948 -12879533.88746  20466130.9534                   20466128.5784
 11  7 23 20 22  0.0000000  0  9G17G24G07G26G11G13G28G19G08
  11636155.50847   9119529.08243  23217489.9144                   23217490.4844
   3481468.75847   2864223.88344  22537373.0864                   22537373.2114
  -8043206.29347  -6214599.31646  20210447.7194                   20210444.4694
  16615988.53146  12997408.58243  23343167.6564                   23343167.0634
 -15551116.00847 -11987571.44145  21513400.9694                   21513398.3244
  16947663.72746  13226939.36343  23458165.9774                   23458168.4414
 -11578217.89147  -8984330.91045  22069643.4064                   22069640.2194
  11337000.32846   8868539.91044  23237981.1484                   23237977.5354
 -16742676.65647 -13010347.80146  20434185.0234                   20434182.3874
 11  7 23 20 22 30.0000000  0  9G17G24G07G26G11G13G28G19G08
  11423010.75046   8953442.45344  23176929.4614                   23176929.4494
   3303452.17647   2725509.75844  22503497.8594                   22503496.8714
  -8152810.03547  -6300004.83246  20189591.3984                   20189587.9774
  16430649.04746  12852988.27343  23307898.9224                   23307898.4884
 -15690366.96547 -12096078.64845  21486902.2114                   21486900.0704
  16939519.11746  13220592.69942  23456616.7664                   23456618.5634
 -11726358.73047  -9099765.30145  22041453.1644                   22041450.1684
  11316743.19546   8852755.10544  23234126.5554                   23234122.7194
 -16910262.12147 -13140933.86746  20402294.5944                   20402292.1254
 11  7 23 20 23  0.0000000  0  9G17G24G07G26G11G13G28G19G08
  11210057.05547   8787504.69544  23136405.6254                   23136406.0704
   3125723.35547   2587019.89844  22469676.8984                   22469676.3554
  -8261999.84447  -6385087.80146  20168812.6094                   20168809.6914
  16245779.13346  12708933.87143  23272718.5944                   23272718.3594
 -15829113.44547 -12204192.76644  21460500.3444                   21460496.3914
  16931392.97346  13214260.42642  23455070.8284                   23455071.8984
 -11874458.25047  -9215167.48045  22013271.0234                   22013267.7544
  11296630.43046   8837082.77344  23230298.7814                   23230295.4104
 -17077554.59448 -13271291.62546  20370459.6094                   20370457.0824
 11  7 23 20 23 30.0000000  0  9G17G24G07G26G11G13G28G19G08
  12572727.84847   9849326.25444  23395714.0864                   23395713.5784
   4523715.35247   3676364.43844  22735705.3984                   22735706.2384
  -6795346.64147  -5242241.14846  20447907.0474                   20447904.3954
  17636811.41446  13792855.15243  23537422.7344                   23537422.8634
 -14391925.27747 -11084305.86745  21733987.4304                   21733984.7114
  18498706.85946  14435543.69942  23753320.5234                   23753321.1994
 -10447087.73047  -8102930.68045  22284890.1334                   22284887.6254
  12852084.33646  10049124.72343  23526291.7114                   23526288.2774
 -15669121.80947 -12173811.52346  20638475.7584                   20638473.2034
 11  7 23 20 24  0.0000000  0  9G17G24G07G26G11G13G28G19G08
  12360161.19146   9683690.07044  23355262.8914                   23355263.4924
   4346570.08647   3538329.28944  22701995.8284                   22701995.7974
  -6903706.07847  -5326677.07846  20427287.5784                   20427283.9924
  17452886.62546  13649537.19543  23502423.6174                   23502422.7934
 -14529659.23847 -11191630.99645  21707778.0164                   21707775.1994
  18490607.76646  14429232.49643  23751779.9454                   23751781.2034
 -10595106.80547  -8218270.18445  22256722.9064                   22256720.5084
  12832251.80546  10033670.75844  23522518.0944                   23522513.9184
 -15835821.45348 -12303707.34046  20606753.8364                   20606751.2774
 11  7 23 20 24 30.0000000  0  9G17G24G07G26G11G13G28G19G08
  12147788.32846   9518204.89544  23314849.6644                   23314850.3094
   4169718.91447   3400523.31344  22668342.5634                   22668341.8484
  -7011650.85547  -5410789.89546  20406745.9224                   20406742.8714
  17269435.61346  13506588.41843  23467514.1254                   23467514.0784
 -14666887.12147 -11298561.77345  21681664.4384                   21681661.6954
  18482515.92246  14422926.90243  23750241.2584                   23750242.0164
 -10743088.74647  -8333580.75845  22228563.2274                   22228560.1644
  12812553.37546  10018321.30144  23518770.2344                   23518765.2624
 -16002222.58648 -12433370.55546  20575088.8834                   20575086.1254
 11  7 23 20 25  0.0000000  0  9G17G24G07G26G11G13G28G19G08
  11935604.75047   9352867.20744  23274472.5474                   23274472.2814
   3993158.44147   3262943.82844  22634743.8984                   22634743.9344
  -7119186.48047  -5494583.90246  20386282.4774                   20386279.7384
  17086453.87546  13364005.26643  23432694.2504                   23432693.5084
 -14803613.96147 -11405102.14145  21655646.0004                   21655643.5634
  18474421.99246  14416619.66443  23748700.6484                   23748701.8754
 -10891040.90647  -8448868.13345  22200408.3834                   22200405.7664
  12792979.75046  10003069.08244  23515046.0634                   23515041.2154
 -16168329.38348 -12562804.39846  20543479.5864                   20543477.1724
 11  7 23 20 25 30.0000000  0  9G17G24G07G26G11G13G28G19G08
  11723607.81647   9187674.95744  23234131.2974                   23234130.8594
   3816886.84447   3125589.43443  22601200.8834                   22601199.7734
  -7226316.77047  -5578062.05546  20365896.2424                   20365893.3674
  16903939.25446  13221786.14543  23397962.5704                   23397962.2424
 -14939842.92647 -11511254.54345  21629722.0314                   21629719.2504
  18466318.30146  14410304.84443  23747158.6024                   23747160.0274
 -11038968.21947  -8564136.13345  22172259.1724                   22172256.1954
  12773523.86346   9987908.61744  23511342.1884                   23511338.5434
 -16334144.15648 -12692010.70746  20511925.9924                   20511923.6454
 11  7 23 20 26  0.0000000  0  9G17G24G07G26G11G13G28G19G08
  11511804.64547   9022633.69944  23193825.5314                   23193826.1174
   3640912.62547   2988466.75043  22567713.8204                   22567713.5474
  -7333034.89547  -5661219.04346  20345588.5634                   20345585.7974
  16721899.12546  13079936.75443  23363322.2114                   23363321.0434
 -15075567.16047 -11617013.68445  21603894.8914                   21603891.5354
  18458207.41846  14403984.39143  23745615.4064                   23745617.1524
 -11186865.68447  -8679380.88745  22144115.1884                   22144112.4024
  12754188.41046   9972841.97344  23507662.9144                   23507659.3794
 -16499659.00048 -12820983.30146  20480429.5554                   20480427.0784
 11  7 23 20 26 30.0000000  0  9G17G24G07G26G11G13G28G19G08
  11300198.82047   8857746.24244  23153558.4304                   23153558.7894
   3465240.43846   2851579.42644  22534283.6414                   22534283.8914
  -7439338.12547  -5744052.73846  20325360.2584                   20325357.3404
  16540337.61746  12938460.28943  23328771.5864                   23328770.9804
 -15210783.64847 -11722377.15245  21578163.8524                   21578161.2774
  18450088.38746  14397657.59443  23744070.4384                   23744072.2074
 -11334732.21547  -8794601.53145  22115977.0234                   22115974.0784
  12734972.94146   9957868.82043  23504007.3444                   23504002.8404
 -16664869.65248 -12949718.86746  20448991.0314                   20448988.6134
 11  7 23 20 27  0.0000000  0  9G17G24G07G26G11G13G28G19G08
  11088786.70747   8693009.69944  23113328.0634                   23113327.8284
   3289867.59846   2714925.37144  22500911.6024                   22500911.3404
  -7545231.23047  -5826566.85546  20305209.0164                   20305206.2074
  16359251.11746  12797353.95343  23294311.4774                   23294310.9844
 -15345496.50047 -11827348.16845  21552529.4774                   21552526.7154
  18441952.96546  14391318.01642  23742522.6174                   23742524.8954
 -11482573.85947  -8909802.78145  22087844.0944                   22087840.7344
  12715869.30946   9942982.84843  23500371.4064                   23500367.0164
 -16829778.97748 -13078219.63746  20417610.0864                   20417607.1844
 11  7 23 20 27 30.0000000  0  9G17G24G07G26G11G13G28G19G08
  10877559.38746   8528417.17644  23073133.0314                   23073132.2584
   3114786.78546   2578498.83644  22467593.9924                   22467593.9344
  -7650723.59048  -5908768.70346  20285134.2734                   20285131.6604
  16178631.57446  12656611.44943  23259941.3914                   23259939.6094
 -15479715.38347 -11931934.27745  21526988.0394                   21526985.7464
  18433787.61746  14384955.14142  23740969.7034                   23740970.5084
 -11630401.48047  -9024993.10545  22059712.7114                   22059709.9774
  12696864.51246   9928173.89143  23496753.0784                   23496750.5434
 -16994394.93048 -13206491.79746  20386284.6724                   20386281.4774
 11  7 23 20 28  0.0000000  0  9G17G24G07G26G11G13G28G19G08
  10666520.57046   8363971.53944  23032972.7734                   23032972.5904
   2940002.96146   2442303.73044  22434334.9224                   22434334.5514
  -7755812.14548  -5990655.89146  20265137.2584                   20265134.3284
  15998483.03146  12516235.96543  23225659.9064                   23225658.0234
 -15613436.28947 -12036132.34845  21501542.0394                   21501539.0394
  18425591.62546  14378568.40643  23739409.6334                   23739411.0824
 -11778213.62147  -9140171.39145  22031585.0784                   22031582.3634
  12677958.07046   9913441.57043  23493157.3834                   23493153.3094
 -17158712.78148 -13334531.67646  20355015.6954                   20355013.5164
 11  7 23 20 28 30.0000000  0  9G17G24G07G26G11G13G28G19G08
  10455678.41846   8199679.12944  22992850.2424                   22992849.6954
   2765525.16047   2306347.07844  22401132.5084                   22401132.3094
  -7860490.16047  -6072223.18446  20245217.2034                   20245213.9884
  15818813.69146  12376233.88343  23191470.5554                   23191468.9384
 -15746652.12147 -12139936.86745  21476191.6724                   21476188.6484
  18417368.51646  14372160.51643  23737845.1484                   23737846.2854
 -11926004.87147  -9255333.37545  22003461.5704                   22003458.8324
  12659153.39146   9898788.51643  23489579.0394                   23489574.9534
 -17322723.84848 -13462332.48846  20323805.4064                   20323802.9654
 11  7 23 20 29  0.0000000  0  9G17G24G07G26G11G13G28G19G08
  10245029.00447   8035536.92644  22952765.1804                   22952765.1484
   2591350.42647   2170626.58644  22367987.8364                   22367988.2034
  -7964762.04348  -6153474.01246  20225375.1484                   20225371.9064
  15639619.61746  12236602.12943  23157370.6094                   23157369.6254
 -15879367.34047 -12243351.29745  21450936.7114                   21450934.1884
  18409109.45746  14365724.60043  23736273.0784                   23736274.4804
 -12073781.19547  -9370483.71945  21975340.3594                   21975337.5004
  12640442.15246   9884208.28544  23486017.5394                   23486014.1764
 -17486431.49648 -13589896.87946  20292653.3674                   20292650.1914
 11  7 23 20 29 30.0000000  0  9G17G24G07G26G11G13G28G19G08
  10034576.36746   7871548.01644  22912717.8834                   22912717.3484
   2417484.00047   2035146.33644  22334902.8914                   22334902.3834
  -8068624.62148  -6234405.89846  20205611.1804                   20205607.9734
  15460905.66046  12097344.55943  23123362.0084                   23123360.9734
 -16011578.62947 -12346373.04745  21425776.8444                   21425775.1414
  18400814.34046  14359260.59443  23734695.3364                   23734696.9924
 -12221540.94147  -9485621.16445  21947223.1254                   21947219.8364
  12621824.35247   9869700.85944  23482476.0004                   23482471.9654
 -17649830.68048 -13717220.90646  20261558.9924                   20261556.9844
 11  7 23 20 30  0.0000000  0  9G17G24G07G26G11G13G28G19G08
  11399744.09847   8935315.23044  23172500.4774                   23172500.0664
   3819349.45347   3127509.10944  22601668.3594                   22601667.9614
  -6596658.50047  -5087419.32446  20485716.7504                   20485713.6214
  16858094.28146  13186062.99643  23389238.6174                   23389237.8484
 -14567865.19547 -11221401.50045  21700507.0394                   21700504.4694
  19967895.21146  15580362.28943  24032900.6254                   24032903.2154
 -10793864.78947  -8373146.19545  22218900.1334                   22218897.1214
  14178713.21546  11082860.98444  23778741.5314                   23778738.5234
 -16237498.66848 -12616702.45346  20530317.3914                   20530314.3054
 11  7 23 20 30 30.0000000  0  9G17G24G07G26G11G13G28G19G08
  11189677.18447   8771626.93444  23132525.3054                   23132525.0904
   3646095.48047   2992506.07444  22568698.6484                   22568698.6954
  -6699712.90248  -5167721.45746  20466106.1884                   20466103.0044
  16680333.43046  13047548.07443  23355411.1954                   23355410.8634
 -14699077.50847 -11323644.83645  21675538.5554                   21675535.5824
  19959506.35546  15573825.18843  24031304.9224                   24031307.6804
 -10941605.65247  -8488268.92245  22190786.2344                   22190783.8134
  14160262.23047  11068483.53544  23775230.0784                   23775226.9924
 -16400286.30948 -12743549.94546  20499339.4454                   20499336.9264
 11  7 23 20 31  0.0000000  0  9G17G24G07G26G11G13G28G19G08
  10979804.46147   8608089.88344  23092587.5784                   23092587.9144
   3473151.04347   2857744.27044  22535789.0314                   22535788.9104
  -6802362.99247  -5247708.53546  20446572.3754                   20446569.4414
  16503050.55946  12909405.60243  23321675.9844                   23321674.9964
 -14829789.94147 -11425498.66045  21650664.6644                   21650661.4224
  19951065.32046  15567247.48843  24029697.2504                   24029702.0274
 -11089338.91447  -8603385.72345  22162674.0704                   22162670.7544
  14141889.55146  11054167.13344  23771734.1644                   23771731.2074
 -16562765.58648 -12870157.16446  20468420.5004                   20468418.2074
 11  7 23 20 31 30.0000000  0  9G17G24G07G26G11G13G28G19G08
  10770138.68047   8444714.08644  23052690.2974                   23052689.4224
   3300529.84047   2723234.30944  22502940.5314                   22502940.0204
  -6904596.88348  -5327371.32046  20427117.9694                   20427115.0474
  16326259.23046  12771646.19543  23288033.3444                   23288033.4574
 -14959990.23447 -11526953.41445  21625888.4144                   21625885.1994
  19942580.03146  15560635.23043  24028083.7734                   24028087.0594
 -11237054.05547  -8718488.38745  22134564.7274                   22134561.5554
  14123603.75046  11039918.39843  23768254.0704                   23768251.0164
 -16724922.85248 -12996513.46946  20437563.3054                   20437560.6954
 11  7 23 20 32  0.0000000  0  9G17G24G07G26G11G13G28G19G08
  10560673.73846   8281494.80544  23012830.0634                   23012830.1644
   3128226.79747   2588972.25444  22470152.1334                   22470151.4344
  -7006422.00848  -5406715.57446  20407741.2974                   20407738.1334
  16149952.98446  12634264.72743  23254483.6024                   23254482.4574
 -15089685.33247 -11628014.49245  21601207.8524                   21601205.2664
  19934040.09845  15553980.36342  24026459.1024                   24026462.5904
 -11384759.58247  -8833583.58645  22106457.0314                   22106454.0554
  14105394.52046  11025729.34044  23764789.3914                   23764785.8914
 -16886763.57448 -13122623.10946  20406766.0634                   20406763.1524
 11  7 23 20 32 30.0000000  0  9G17G24G07G26G11G13G28G19G08
  10351415.50447   8118436.58244  22973009.1884                   22973008.8984
   2956248.96147   2454963.62144  22437426.3914                   22437424.5164
  -7107833.09847  -5485737.20346  20388443.6804                   20388440.4694
  15974138.25046  12497266.29743  23221026.7894                   23221026.4264
 -15218870.07847 -11728677.91045  21576625.3834                   21576621.7774
  19925447.13346  15547284.26243  24024824.3204                   24024827.1254
 -11532451.64847  -8948668.27745  22078352.0784                   22078349.3014
  14087263.59846  11011601.29743  23761339.2274                   23761335.4184
 -17048281.10948 -13248480.92246  20376030.4454                   20376027.5784
 11  7 23 20 33  0.0000000  0  9G17G24G07G26G11G13G28G19G08
  10142354.29347   7955531.86344  22933226.5944                   22933225.9654
   2784587.65647   2321201.63344  22404759.5084                   22404758.3674
  -7208840.64547  -5564444.39146  20369222.6644                   20369219.3794
  15798805.53946  12360643.44943  23187662.0784                   23187661.5084
 -15347554.70747 -11828951.64145  21552136.9534                   21552134.0084
  19916786.88746  15540535.65242  24023176.9614                   24023179.7154
 -11680142.02747  -9063751.66445  22050247.2424                   22050244.1604
  14069196.89546  10997523.30543  23757902.0004                   23757897.9574
 -17209484.77048 -13374094.14846  20345354.1724                   20345351.8594
 11  7 23 20 33 30.0000000  0  9G17G24G07G26G11G13G28G19G08
   9933493.81347   7792783.59044  22893481.6254                   22893480.7504
   2613247.83647   2187690.12944  22372154.7194                   22372153.6804
  -7309441.82847  -5642834.93446  20350078.5944                   20350075.8714
  15623958.54746  12224399.08643  23154389.6724                   23154389.4344
 -15475736.28147 -11928833.36345  21527745.3984                   21527741.9654
  19908058.39146  15533733.91843  24021516.1174                   24021519.6724
 -11827829.30147  -9178832.61745  22022143.3284                   22022140.8714
  14051194.31346  10983495.25043  23754475.9224                   23754472.9064
 -17370369.42248 -13499458.82046  20314738.9384                   20314736.2734
 11  7 23 20 34  0.0000000  0  9G17G24G07G26G11G13G28G19G08
   9724838.31347   7630195.02744  22853774.8284                   22853774.4224
   2442235.23447   2054433.64544  22339611.9144                   22339611.3054
  -7409633.20748  -5720906.14146  20331012.7424                   20331009.3874
  15449602.10246  12088536.96143  23121210.8134                   23121210.4064
 -15603410.91847 -12028320.07845  21503449.4224                   21503446.2034
  19899261.75046  15526879.05543  24019843.1954                   24019844.9574
 -11975511.09847  -9293909.32445  21994040.8054                   21994037.2584
  14033256.01246  10969517.31643  23751061.9384                   23751058.7974
 -17530929.73448 -13624570.74246  20284185.2194                   20284182.5514
 11  7 23 20 34 30.0000000  0  9G17G24G07G26G11G13G28G19G08
   9516388.14547   7467766.46944  22814108.7734                   22814108.1214
   2271551.00847   1921433.00444  22307131.5864                   22307131.1414
  -7509415.67247  -5798658.72746  20312024.4384                   20312021.8444
  15275736.18446  11953057.04743  23088125.3914                   23088123.9924
 -15730579.13347 -12127412.18745  21479250.2424                   21479246.3094
  19890392.70346  15519967.76643  24018154.6094                   24018157.8134
 -12123189.82447  -9408983.60545  21965938.2114                   21965935.3874
  14015378.10546  10955586.41443  23747659.7274                   23747656.0234
 -17691165.09448 -13749429.45746  20253693.4304                   20253690.6094
 11  7 23 20 35  0.0000000  0  9G17G24G07G26G11G13G28G19G08
   9308147.37547   7305501.06644  22774481.4614                   22774480.9344
   2101200.47747   1788692.39144  22274714.7584                   22274714.4414
  -7608785.99648  -5876090.15246  20293115.5084                   20293112.5704
  15102365.39546  11817962.96943  23055133.3914                   23055132.4774
 -15857237.63347 -12226107.10545  21455147.7194                   21455145.2934
  19881451.16846  15513000.02343  24016453.0784                   24016457.3914
 -12270862.88747  -9524053.50845  21937837.0164                   21937833.9774
  13997560.46546  10941702.48443  23744269.7424                   23744266.1884
 -17851070.41848 -13874030.99646  20223264.6174                   20223261.8794
 11  7 23 20 35 30.0000000  0  9G17G24G07G26G11G13G28G19G08
   9100114.47347   7143397.60944  22734893.5944                   22734893.5124
   1931183.16047   1656211.43044  22242361.6484                   22242361.4144
  -7707746.48047  -5953202.23846  20274283.6334                   20274280.9144
  14929488.33646  11683253.57443  23022236.8444                   23022235.6884
 -15983388.77347 -12324406.66445  21431141.8054                   21431138.9344
  19872431.38746  15505971.29342  24014736.8284                   24014741.0984
 -12418533.75047  -9639121.68445  21909735.5084                   21909732.8834
  13979797.61346  10927861.27343  23740890.0634                   23740885.6254
 -18010646.34048 -13998375.86746  20192897.8754                   20192895.7344
 11  7 23 20 36  0.0000000  0  9G17G24G07G26G11G13G28G19G08
   8892300.49247   6981464.77744  22695348.7734                   22695347.8204
   1761511.19547   1523999.57444  22210074.3204                   22210073.5554
  -7806287.08247  -6029987.13346  20255532.0004                   20255528.8914
  14757116.03946  11548937.55543  22989435.5944                   22989434.3094
 -16109022.10247 -12422302.74645  21407234.9534                   21407231.5434
  19863340.14546  15498886.87542  24013007.0474                   24013011.5664
 -12566193.65647  -9754181.34045  21881637.3594                   21881633.9104
  13962096.46146  10914068.16043  23737520.9384                   23737517.4104
 -18169880.91848 -14122454.76246  20162597.0084                   20162594.4654
 11  7 23 20 36 30.0000000  0  9G17G24G07G26G11G13G28G19G08
  10260126.51247   8047303.33244  22955636.8594                   22955636.0784
   3167605.44947   2619657.50044  22477644.8134                   22477644.9614
  -6328991.46147  -4878847.69946  20536651.5004                   20536648.7234
  16160668.76646  12642615.03543  23256521.9774                   23256521.5474
 -14658720.13347 -11292197.29745  21683217.8914   21683214.5704   21429587.11346
  16719338.77042                  24311054.4384                   24311058.7074
 -11138425.78547  -8641634.93045  22153332.6804                   22153329.6684
  15519868.13346  12127916.14843  24033954.6414                   24033952.0354
 -16753354.01648 -13018667.54346  20432152.9144                   20432150.0044
 11  7 23 20 37  0.0000000  0  9G17G24G07G26G11G13G28G19G08
  10052748.02347   7885709.80144  22916173.4064                   22916173.1644
   2998624.98447   2487984.48844  22445488.8984                   22445488.4964
  -6426697.52747  -4954982.29346  20518059.1564                   20518056.0664
  15989304.30146  12509084.30143  23223912.5314                   23223911.8954
 -14783322.62947 -11389290.14845  21659506.3674   21659503.3404   21420336.94546
  16712130.46942                  24309294.9144                   24309298.9844
 -11286072.66047  -8756684.41845  22125236.3284                   22125233.0634
  15502276.64846  12114208.45743  24030607.6334                   24030603.9414
 -16911906.01248 -13142214.55146  20401981.6334                   20401979.3094
 11  7 23 20 37 30.0000000  0  9G17G24G07G26G11G13G28G19G08
   9845588.78147   7724287.12944  22876752.6954                   22876751.6294
   2829993.73047   2356583.57044  22413399.1484                   22413398.8324
  -6523986.47347  -5030791.87946  20499545.4454                   20499542.7704
  15818445.37546  12375947.53543  23191399.1174                   23191398.8014
 -14907409.47347 -11485981.17244  21635893.6174   21635890.5044   21411002.14845
  16704856.21142                  24307518.3594                   24307523.4024
 -11433714.32047  -8871729.85945  22097141.6954                   22097137.8874
  15484735.18846  12100539.74643  24027270.5004                   24027266.1604
 -17070114.02347 -13265493.52046  20371875.6334                   20371872.5634
 11  7 23 20 38  0.0000000  0  9G17G24G07G26G11G13G28G19G08
   9638650.29347   7563036.48044  22837373.3914                   22837372.7934
   2661714.32847   2225456.84844  22381376.8444                   22381376.2664
  -6620857.25447  -5106275.62546  20481111.8444                   20481108.9454
  15648093.50446  12243205.84443  23158982.3134                   23158981.7194
 -15030980.02347 -11582269.91045  21612379.3284   21612376.1174   21401580.352 5
                                  24305726.109
 -11581351.10247  -8986771.48445  22069046.7424                   22069043.6374
  15467241.50446  12086908.28543  24023940.5004                   24023937.1374
 -17227975.44547 -13388502.41046  20341835.5944                   20341832.8714
 11  7 23 20 38 30.0000000  0  9G17G24G07G26G11G13G28G19G08
   9431935.03547   7401959.76644  22798036.9144                   22798035.8014
   2493790.03147   2094606.81344  22349422.0394                   22349421.7504
  -6717308.82447  -5181432.69946  20462758.2894                   20462754.3094
  15478251.46146  12110861.45343  23126661.6254                   23126661.1374
 -15154032.59447 -11678155.01245  21588963.0944   21588960.3054   21392069.590 5
                                  24303915.781
 -11728982.75447  -9101809.10945  22040953.4924                   22040949.7814
  15449794.04746  12073312.83643  24020621.2034                   24020616.8444
 -17385487.41848 -13511239.01646  20311862.2974                   20311859.6724
 11  7 23 20 39  0.0000000  0  9G17G24G07G26G11G13G28G19G08
   9225442.23447   7241056.41445  22758742.7424                   22758741.6134
   2326221.23047   1964033.79344  22317534.9454                   22317533.8834
  -6813343.00847  -5256264.53546  20444483.0634                   20444480.0594
  15308918.17246  11978913.45343  23094439.3444                   23094438.2584
 -15276568.69947 -11773637.66845  21565645.3054   21565642.0434   21382465.086 5
                                  24302088.883
 -11876611.80147  -9216844.72745  22012860.4774                   22012856.9384
  15432387.93046  12059749.57043  24017308.9144                   24017305.2114
 -17542649.29748 -13633702.81246  20281954.8754                   20281952.0314
 11  7 23 20 39 30.0000000  0  9G17G24G07G26G11G13G28G19G08
   9019180.21147   7080332.86344  22719492.4614                   22719490.7734
   2159017.21547   1833745.02344  22285717.0474                   22285715.9574
  -6908952.14847  -5330765.19146  20426289.3914                   20426286.2974
  15140102.27046  11847368.61343  23062314.9614                   23062313.7774
 -15398580.87147 -11868712.06245  21542426.5784   21542423.9774   21372770.652 6
                                  24300244.695
 -12024231.99247  -9331873.42245  21984769.2274                   21984766.1134
  15415027.65246  12046222.05543  24014004.7034                   24014000.9494
 -17699451.89848 -13755886.66046  20252116.7664                   20252114.0044
 11  7 23 20 40  0.0000000  0  9G17G24G07G26G11G13G28G19G08
   8813152.77347   6919792.10544  22680286.3444                   22680285.1884
   1992182.53547   1703744.03944  22253968.8984                   22253968.6054
  -7004134.12547  -5404932.97746  20408176.6954                   20408173.7034
  14971807.06346  11716229.52043  23030288.6954                   23030288.0474
 -15520066.75047 -11963376.37945  21519308.7114   21519306.1914   21362985.44146
  16700252.68842                  24298383.0554                   24298386.2074
 -12171842.05147  -9446894.23445  21956680.0234                   21956676.7274
  15397712.68846  12032729.75443  24010709.9384                   24010706.6024
 -17855891.08247 -13877787.31246  20222347.1254                   20222344.8794
 11  7 23 20 40 30.0000000  0  9G17G24G07G26G11G13G28G19G08
   8607361.77047   6759435.60544  22641125.3594                   22641124.4694
   1825721.04747   1574033.85244  22222292.6954                   22222292.2664
  -7098886.85547  -5478766.28946  20390145.9304                   20390142.8094
  14804035.10246  11585498.11743  22998363.7894                   22998362.0354
 -15641024.74247 -12057629.32844  21496290.9844   21496288.3244   21353107.96946
  16692555.55143                  24296504.2584                   24296507.1684
 -12319441.22747  -9561906.55545  21928592.5864                   21928589.3554
  15380441.72346  12019271.79343  24007423.9144                   24007420.1054
 -18011963.74247 -13999402.37546  20192647.2734                   20192644.7114
 11  7 23 20 41  0.0000000  0  8G17G24G07G26G11G28G19G08
   8401808.47347   6599264.28544  22602010.3134                   22602009.0044
   1659634.79347   1444616.07044  22190686.8444                   22190686.8244
  -7193210.98447  -5552265.62546  20372197.0164                   20372193.9844
  14636787.17246  11455175.10243  22966536.4304                   22966536.2934
 -15761454.54347 -12151470.72745  21473374.2194   21473371.5784
 -12467030.34047  -9676911.05145  21900507.1564                   21900503.9304
  15363212.14846  12005846.05943  24004146.0944                   24004141.9534
 -18167667.71148 -14120730.13746  20163018.0634                   20163015.7734
 11  7 23 20 41 30.0000000  0  8G17G24G07G26G11G28G19G08
   8196498.37547   6439282.53144  22562940.6564                   22562939.9264
   1493930.14847   1315495.63344  22159154.7274                   22159154.0274
  -7287102.08247  -5625427.52746  20354329.8524                   20354326.9104
  14470069.35946  11325265.10543  22934811.4694                   22934810.7304
 -15881351.57847 -12244896.94545  21450559.1804   21450555.6954
 -12614605.76647  -9791904.85545  21872424.4224                   21872421.8714
  15346025.44146  11992453.78943  24000875.2034                   24000871.2854
 -18322996.39848 -14241765.48046  20133460.2584                   20133457.3524
 11  7 23 20 42  0.0000000  0  8G17G24G07G26G11G28G19G08
   7991438.22747   6279495.48844  22523919.2194                   22523918.6374
   1328615.18847   1186678.84444  22127695.9614                   22127695.5434
  -7380554.12947  -5698247.32046  20336546.3754                   20336543.0634
  14303887.99646  11195773.14143  22903188.1484                   22903187.3634
 -16000710.18447 -12337903.63345  21427846.1024   21427842.8524
 -12762162.83647  -9906884.37545  21844345.7274                   21844342.1644
  15328884.62546  11979097.21943  23997613.3134                   23997609.2194
 -18477942.12148 -14362502.38746  20103974.7274                   20103972.1804
 11  7 23 20 42 30.0000000  0  8G17G24G07G26G11G28G19G08
   7786634.84447   6119908.55544  22484945.6174                   22484945.0864
   1163697.50847   1058171.62144  22096313.1414                   22096312.4534
  -7473561.48847  -5770720.59446  20318848.1644                   20318845.0634
  14138249.83646  11066704.47743  22871668.5864                   22871667.2464
 -16119524.59847 -12430486.27045  21405236.0784   21405232.7274
 -12909696.25047 -10021845.46945  21816270.5394                   21816267.7034
  15311792.53146  11965778.64843  23994360.9694                   23994357.7584
 -18632497.60248 -14482935.22346  20074563.8984                   20074561.6564
 11  7 23 20 43  0.0000000  0  8G17G24G07G26G11G28G19G08
   9157517.29747   7188128.74244  22745816.2194                   22745815.7734
   2574605.80947   2157580.76244  22364799.7034                   22364799.8484
  -5990699.48847  -4615243.72746  20601027.1094                   20601023.7704
  15548582.57846  12165665.08643  23140045.4144                   23140044.6994
 -14662369.29747 -11295040.57045  21682523.3524   21682520.0904
 -11481780.79347  -8909184.05545  22087994.0084                   22087990.8714
  16870168.29346  13180097.34843  24290909.5864                   24290905.9344
 -17211234.25047 -13375457.28546  20345021.2034                   20345019.0354
 11  7 23 20 43 30.0000000  0  8G17G24G07G26G11G28G19G08
   8953241.43047   7028952.87144  22706943.7504                   22706942.6764
   2410499.83647   2029706.03144  22333572.6174                   22333570.9534
  -6082806.30547  -4687015.29346  20583499.7814                   20583496.6174
  15384044.68446  12037453.74643  23108736.0474                   23108733.7774
 -14780084.12547 -11386766.41445  21660122.9614   21660119.6134
 -11629258.71147  -9024101.88345  22059929.6884                   22059926.9264
  16853176.29346  13166856.77043  24287675.8914                   24287672.4064
 -17364992.50848 -13495268.90246  20315761.9844                   20315759.3674
 11  7 23 20 44  0.0000000  0  8G17G24G07G26G11G28G19G08
   8749227.66047   6869981.21145  22668121.1724                   22668120.0124
   2246799.81347   1902147.63344  22302420.3984                   22302419.5514
  -6174466.32447  -4758438.69146  20566057.8204                   20566054.3984
  15220055.22346  11909669.76243  23077529.2734                   23077527.9144
 -14897252.26647 -11478066.25045  21637826.4304   21637823.1604
 -11776713.27747  -9139001.53145  22031870.1024                   22031867.2424
  16836227.25046  13153649.68043  24284450.7894                   24284447.0124
 -17518352.37547 -13614770.09446  20286578.6724                   20286576.1994
 11  7 23 20 44 30.0000000  0  8G17G24G07G26G11G28G19G08
   8545480.53947   6711217.33644  22629349.3834                   22629347.7734
   2083511.14147   1774909.77344  22271347.6254                   22271347.0474
  -6265676.13347  -4829511.29746  20548700.8364                   20548697.8244
  15056618.47346  11782316.47343  23046428.6644                   23046427.2934
 -15013870.33647 -11568937.46545  21615634.7034   21615631.5394
 -11924141.81247  -9253880.88345  22003815.4694                   22003811.9964
  16819321.95346  13140476.69143  24281233.8594                   24281229.7154
 -17671308.31247 -13733956.52346  20257471.9454                   20257469.6254
 11  7 23 20 45  0.0000000  0  8G17G24G07G26G11G28G19G08
   8342004.10247   6552664.37944  22590629.1334                   22590627.8014
   1920638.78547   1647996.30544  22240354.6884                   22240354.0084
  -6356432.54347  -4900230.59446  20531430.0084                   20531427.5204
  14893738.25846  11655396.85543  23015433.0474                   23015431.9224
 -15129935.11747 -11659377.53545  21593548.0944   21593545.7464
 -12071542.05147  -9368738.21145  21975766.0314                   21975762.9344
  16802460.55546  13127337.87943  24278024.8284                   24278021.8594
 -17823855.72747 -13852824.63746  20228443.0084                   20228440.5944
 11  7 23 20 45 30.0000000  0  8G17G24G07G26G11G28G19G08
   8138792.30947   6394317.63744  22551958.7424                   22551957.1994
   1758178.04747   1521403.58644  22209439.7974                   22209438.3594
  -6446742.64147  -4970602.10946  20514245.0944                   20514242.0474
  14731408.85946  11528906.41443  22984542.3444                   22984542.3164
 -15245453.52347 -11749391.86345  21571565.8914   21571562.5164
 -12218921.48047  -9483579.30145  21947721.1724                   21947717.5634
  16785633.33246  13114225.74243  24274822.6174                   24274819.7974
 -17975999.52347 -13971378.22346  20199491.1884                   20199488.5744
 11  7 23 20 46  0.0000000  0  8G17G24G07G26G11G28G19G08
   7935851.70347   6236182.16845  22513341.1174                   22513339.6414
   1596136.17247   1395137.23844  22178603.3204                   22178602.4884
  -6536601.33647  -5040621.88346  20497145.3674                   20497141.8134
  14569636.45746  11402850.04743  22953758.2114                   22953757.5044
 -15360420.60547 -11838976.58245  21549688.1644   21549685.4344
 -12366275.54747  -9598400.65645  21919680.1564                   21919676.6994
  16768843.27346  13101142.52743  24271628.6804                   24271625.4614
 -18127732.15247 -14089611.43746  20170617.5084                   20170615.0824
 11  7 23 20 46 30.0000000  0  8G17G24G07G26G11G28G19G08
   7733183.77747   6078259.23445  22474773.9144                   22474772.5004
   1434515.98847   1269199.48844  22147848.0944                   22147847.2114
  -6626007.81247  -5110289.28946  20480132.1254                   20480128.7544
  14408422.44146  11277228.75043  22923080.0164                   22923079.1024
 -15474835.97747 -11928131.41445  21527916.1644   21527913.1054
 -12513604.05547  -9713202.07445  21891644.5634                   21891641.3794
  16752088.33246  13088086.65643  24268439.5704                   24268436.6604
 -18279051.27047 -14207522.42246  20141822.3984                   20141819.5124
 11  7 23 20 47  0.0000000  0  8G17G24G07G26G11G28G19G08
   7530800.69947   5920558.24645  22436261.3914                   22436260.8714
   1273330.58647   1143600.51244  22117175.2344                   22117174.5944
  -6714951.19547  -5179595.83246  20463206.7194                   20463203.6214
  14247778.78147  11152051.87543  22892511.2034                   22892509.9694
 -15588688.21947 -12016847.41445  21506250.8054   21506247.2274
 -12660896.87947  -9827975.68045  21863615.6024                   21863612.7734
  16735376.84446  13075064.60243  24265259.5234                   24265256.8714
 -18429944.23447 -14325101.34046  20113108.1724                   20113105.7854
 11  7 23 20 47 30.0000000  0  8G17G24G07G26G11G28G19G08
   7328699.03147   5763076.51245  22397802.9924                   22397801.8164
   1112577.26647   1018338.21944  22086585.5394                   22086584.3484
  -6803436.27747  -5248545.26246  20446368.3054                   20446365.8404
  14087701.33247  11027316.23043  22862049.3134                   22862048.8914
 -15701982.27047 -12105128.50445  21484691.4694   21484688.7774
 -12808159.37947  -9942725.66445  21835592.6414                   21835589.1254
  16718701.67646  13062070.88743  24262086.0474                   24262083.8054
 -18580413.30148 -14442349.96546  20084475.0004                   20084472.4104
 11  7 23 20 48  0.0000000  0  8G17G24G07G26G11G28G19G08
   7126880.94547   5605815.77345  22359398.0704                   22359396.7344
    952259.39547    893415.25044  22056077.6804                   22056076.2544
  -6891461.82047  -5317136.62546  20429617.9844                   20429614.6484
  13928192.62146  10903023.76644  22831696.1174                   22831694.8094
 -15814716.82447 -12192973.60945  21463239.3674   21463235.2274
 -12955390.64147 -10057451.28945  21807575.3054                   21807572.2194
  16702061.87146  13049104.72743  24258920.5554                   24258917.2774
 -18730455.48048 -14559265.94146  20055922.7344                   20055920.4614
 11  7 23 20 48 30.0000000  0  8G17G24G07G26G11G28G19G08
   6925347.63347   5448776.93845  22321047.6414                   22321046.1484
    792379.35247    768833.46144  22025653.8134                   22025652.8524
  -6979027.69147  -5385369.77746  20412954.9844                   20412951.6644
  13769253.79347  10779175.35244  22801450.7814                   22801449.4024
 -15926891.37547 -12280382.32045  21441892.6564   21441888.9104
 -13102590.98047 -10172152.82845  21779563.9224                   21779560.6524
  16685454.80946  13036164.10543  24255760.7734                   24255757.1484
 -18880068.57847 -14675847.58246  20027452.3444                   20027449.9104
 11  7 23 20 49  0.0000000  0  8G17G24G07G26G11G28G19G08
   6724096.51647   5291957.98044  22282751.0164                   22282749.1414
    632935.19147    644591.29344  21995312.2504                   21995311.3954
  -7066137.86347  -5453247.85546  20396378.0784                   20396375.0554
  13610881.66047  10655768.51644  22771313.8364                   22771312.1214
 -16038510.32447 -12367358.10945  21420652.0234   21420648.6564
 -13249764.94947 -10286833.83245  21751557.3054                   21751554.6454
  16668874.11346  13023243.98843  24252604.4304                   24252601.9184
 -19029254.16847 -14792096.09046  19999063.8134                   19999060.9264
 11  7 23 20 49 30.0000000  0  8G17G24G07G26G11G28G19G08
   8098561.30147   6362969.60545  22544301.6024                   22544301.5394
   2049360.22747   1748299.17644  22264849.2344                   22264848.0664
  -5577363.30547  -4293163.79746  20679682.4144                   20679679.1134
  15028508.33647  11760412.72743  23041078.5784                   23041077.6414
 -14574144.13747 -11226293.53945  21699311.6334   21699308.8324
 -11821481.91047  -9173885.98445  22023351.0944                   22023347.7424
  18227744.17646  14237947.85243  24549248.1724                   24549244.7114
 -17602579.44547 -13680401.50846  20270550.2734                   20270547.6954
 11  7 23 20 50  0.0000000  0  8G17G24G07G26G11G28G19G08
   7897882.77747   6206596.85545  22506114.2894                   22506113.1994
   1890798.98047   1624745.01244  22234675.4844                   22234674.2114
  -5663556.98047  -4360327.71146  20663280.1884                   20663277.4574
  14871276.79347  11637894.63744  23011158.8524                   23011157.2464
 -14684647.14547 -11312399.77045  21678283.6254   21678280.8444
 -11968599.08247  -9288522.71145  21995355.0944                   21995352.4774
  18211214.46146  14225067.52043  24546101.9924                   24546099.4264
 -17750899.56247 -13795975.62546  20242326.2194                   20242323.2234
 11  7 23 20 50 30.0000000  0  8G17G24G07G26G11G28G19G08
   7697494.93047   6050450.53945  22467981.2194                   22467980.2544
   1732685.36747   1501539.62944  22204587.2974                   22204586.1294
  -5749289.75447  -4427132.48046  20646966.2114                   20646962.8324
  14714620.05947  11515824.50843  22981348.2584                   22981346.3984
 -14794589.31247 -11398068.96945  21657363.0554   21657359.6094
 -12115686.14147  -9403135.98045  21967365.2344                   21967362.6524
  18194709.12146  14212206.14843  24542962.1254                   24542958.9384
 -17898780.90648 -13911207.84046  20214185.4614                   20214182.9694
 11  7 23 20 51  0.0000000  0  8G17G24G07G26G11G28G19G08
   7497403.25447   5894535.06645  22429904.9534                   22429904.5554
   1575025.73447   1378688.00044  22174586.0474                   22174584.8794
  -5834557.25847  -4493574.71546  20630740.3284                   20630737.1724
  14558543.09846  11394206.09443  22951647.4614                   22951646.1214
 -14903966.27047 -11483297.76645  21636548.1414   21636545.8834
 -12262738.76247  -9517722.41445  21939382.1804                   21939379.6914
  18178230.77346  14199365.80543  24539826.2814                   24539823.2274
 -18046217.32447 -14026093.35946  20186129.0164                   20186126.6954
 11  7 23 20 51 30.0000000  0  7G17G24G07G26G11G28G08
   7297605.76647   5738848.77045  22391885.8834                   22391884.0124
   1417819.02347   1256189.31344  22144670.4304                   22144668.9694
  -5919362.75447  -4559656.93746  20614602.1484                   20614599.3794
  14403043.64147  11273037.69544  22922057.1954                   22922055.3674
 -15012781.66847 -11568088.98045  21615842.3594   21615838.1844
 -12409760.78947  -9632284.99645  21911404.8524                   21911401.7074
 -18193209.84447 -14140632.98446  20158157.0394                   20158154.1914
 11  7 23 20 52  0.0000000  0  7G17G24G07G26G11G28G08
   7098116.91847   5583402.98845  22353924.1254                   22353922.7154
   1261080.39847   1134055.37144  22114844.6094                   22114843.5274
  -6003693.16047  -4625368.95346  20598554.5704                   20598551.4064
  14248135.50846  11152330.09844  22892578.4384                   22892577.3634
 -15121022.14847 -11652432.19545  21595244.8364   21595241.2464
 -12556739.16047  -9746813.59045  21883436.0474                   21883432.4614
 -18339743.53547 -14254815.07846  20130272.9774                   20130270.1604
 11  7 23 20 52 30.0000000  0  7G17G24G07G26G11G28G08
   6898939.93447   5428200.20345  22316021.7344                   22316020.5354
   1104814.12147   1012289.46944  22085107.1094                   22085106.7704
  -6087546.21547  -4690709.01646  20582597.7114                   20582595.3164
  14093821.86746  11032085.69144  22863213.6334                   22863213.0354
 -15228685.82047 -11736325.96145  21574756.4614   21574752.8954
 -12703672.28547  -9861306.91045  21855475.1804                   21855472.1454
 -18485813.78147 -14368636.04746  20102476.8914                   20102473.8164
 11  7 23 20 53  0.0000000  0  7G17G24G07G26G11G28G08
   6700072.21547   5273238.41045  22278178.4844                   22278176.6644
    949018.87947    890890.63744  22055460.5164                   22055459.4844
  -6170925.17647  -4755679.66046  20566731.7344                   20566728.6564
  13940100.00446  10912302.42643  22833961.2194                   22833960.1294
 -15335776.19547 -11819773.00845  21554378.2114   21554374.9964
 -12850563.48047  -9975767.55545  21827522.8364                   21827519.7624
 -18631422.14147 -14482097.09846  20074768.5474                   20074765.9024
 11  7 23 20 53 30.0000000  0  7G17G24G07G26G11G28G08
   6501526.23047   5118527.32045  22240396.6724                   22240394.9844
    793707.60547    769868.91044  22025905.5164                   22025904.8164
  -6253819.85247  -4820272.92646  20550957.5864                   20550954.0474
  13786981.43846  10792989.27343  22804823.8054                   22804823.1604
 -15442282.36747 -11902764.80545  21534110.4534   21534107.3364
 -12997402.47347 -10090187.53545  21799580.6024                   21799576.9614
 -18776555.79747 -14595188.25046  20047150.1254                   20047147.6994
 11  7 23 20 54  0.0000000  0  7G17G24G07G26G11G28G08
   6303295.69947   4964062.05145  22202674.4924                   22202672.7384
    638875.07047    649220.23444  21996441.9614                   21996441.3094
  -6336237.49247  -4884494.46546  20535273.5164                   20535270.7464
  13634459.72346  10674141.21543  22775799.6884                   22775798.7114
 -15548212.01247 -11985307.37945  21513952.8284   21513949.8364
 -13144196.70747 -10204572.63745  21771646.1884                   21771642.9024
 -18921219.82048 -14707913.45346  20019621.5634                   20019619.0944
 11  7 23 20 54 30.0000000  0  7G17G24G07G26G11G28G08
   6105381.98047   4809843.65645  22165012.7734                   22165011.0204
    484523.81347    528946.55944  21967070.2194                   21967069.1844
  -6418177.81247  -4948344.08646  20519681.2194                   20519678.3484
  13482535.87146  10555759.02343  22746888.9454                   22746888.7114
 -15653565.17647 -12067400.74645  21493904.9924   21493901.9144
 -13290946.44147 -10318923.05945  21743721.0394                   21743717.5514
 -19065411.98448 -14820270.97746  19992183.1024                   19992180.7544
 11  7 23 20 55  0.0000000  0  7G17G24G07G26G11G28G08
   5907793.96147   4655879.04345  22127412.6174                   22127411.2304
    330663.07047    409055.15244  21937790.8834                   21937789.6414
  -6499633.43447  -5011816.01646  20504180.6724                   20504177.9344
  13331218.14146  10437849.13343  22718094.7894                   22718094.0044
 -15758334.41447 -12149039.10245  21473967.7194   21473964.7704
 -13437644.38347 -10433233.12545  21715805.1884                   21715801.6334
 -19209122.80148 -14932253.42646  19964835.6884                   19964833.2194
 11  7 23 20 55 30.0000000  0  7G17G24G07G26G11G28G08
   5710521.77047   4502160.53145  22089872.8524                   22089871.8874
    177284.48047    289539.39144  21908604.0864                   21908603.3014
  -6580614.83647  -5074918.42646  20488770.1954                   20488766.8054
  13180496.41047  10320403.67244  22689413.5234                   22689412.7464
 -15862530.53947 -12230230.87945  21454140.0004   21454136.4734
 -13584301.03547 -10547511.03545  21687897.4454                   21687893.5664
 -19352360.53947 -15043867.24246  19937577.8754                   19937575.7504
 11  7 23 20 56  0.0000000  0  7G17G24G07G26G11G28G08
   7088991.31647   5576292.72745  22352186.8364                   22352185.2234
   1599812.88347   1398003.13744  22179302.1334                   22179301.9614
  -5085701.73047  -3910051.07846  20773242.5554                   20773240.1094
  14605794.43846  11431025.57843  22960638.8984                   22960637.7194
 -14390732.46547 -11083375.22745  21734213.5944   21734210.3094
 -12155493.97747  -9434154.87545  21959790.2274                   21959786.8094
 -17919700.86747 -13927509.05946  20210203.9844                   20210201.9694
 11  7 23 20 56 30.0000000  0  7G17G24G07G26G11G28G08
   6892347.46147   5423063.82045  22314766.7504                   22314765.3284
   1447397.00447   1279237.58244  22150298.0234                   22150297.6254
  -5165742.38347  -3972420.44146  20758011.5634                   20758008.4344
  14456260.11346  11314505.34443  22932183.9454                   22932182.1254
 -14493790.05947 -11163679.84844  21714602.9774   21714599.6564
 -12302076.21147  -9548374.78145  21931897.2274                   21931893.1804
 -18061994.41047 -14038387.14146  20183126.7344                   20183124.5434
 11  7 23 20 57  0.0000000  0  7G17G24G07G26G11G28G08
   6696013.78147   5270076.61345  22277405.6414                   22277404.3164
   1295459.80147   1160844.98844  22121385.4304                   22121384.3484
  -5245318.44947  -4034427.77346  20742868.5474                   20742866.1484
  14307314.71146  11198444.02043  22903839.5634                   22903838.6564
 -14596284.50447 -11243545.64545  21695098.2974   21695095.5204
 -12448627.17647  -9662570.31245  21904008.4694                   21904005.6414
 -18203818.28547 -14148899.25046  20156138.9304                   20156136.1804
 11  7 23 20 57 30.0000000  0  7G17G24G07G26G11G28G08
   6500005.00847   5117342.58245  22240105.9224                   22240104.5044
   1144017.13747   1042837.76244  22092566.8834                   22092565.4064
  -5324416.89547  -4096062.94946  20727816.5084                   20727813.7544
  14158972.82446  11082852.95343  22875610.8204                   22875609.8364
 -14698202.34047 -11322962.16445  21675704.4924   21675701.4844
 -12595133.16047  -9776730.80945  21876129.7034                   21876126.5004
 -18345156.53148 -14259032.94946  20129242.5554                   20129240.1024
 11  7 23 20 58  0.0000000  0  7G17G24G07G26G11G28G08
   6304303.14847   4964847.67645  22202865.8444                   22202864.0944
    993051.66447    925202.35244  22063839.4224                   22063837.8014
  -5403056.55547  -4157340.61746  20712852.1414                   20712849.0904
  14011215.46546  10967717.35943  22847494.2504                   22847492.5234
 -14799563.06247 -11401944.54345  21656415.9144   21656413.0354
 -12741613.48447  -9890871.29345  21848255.1644                   21848251.9574
 -18486026.75448 -14368801.95746  20102436.1884                   20102433.7274
 11  7 23 20 58 30.0000000  0  7G17G24G07G26G11G28G08
   6108920.18047   4812601.27745  22165685.0704                   22165683.4104
    842576.21147    807948.78944  22035204.4614                   22035203.7114
  -5481226.67647  -4218252.41446  20697977.0474                   20697973.6884
  13864054.31647  10853046.34043  22819489.6724                   22819488.9024
 -14900356.00847 -11480484.50045  21637235.7814   21637232.0744
 -12888057.57847 -10004983.56645  21820387.5084                   21820384.7114
 -18626415.98048 -14478196.16846  20075720.8444                   20075718.4064
 11  7 23 20 59  0.0000000  0  7G17G24G07G26G11G28G08
   5913855.36347   4660602.78145  22128565.7034                   22128563.9694
    692590.89147    691077.16444  22006663.6954                   22006663.0434
  -5558929.78147  -4278800.30946  20683190.5314                   20683187.8204
  13717487.88346  10738838.74643  22791600.2194                   22791598.3674
 -15000583.54347 -11558583.87545  21618163.1724   21618159.9224
 -13034467.50447 -10119069.21545  21792527.3674                   21792523.7584
 -18766324.29348 -14587215.63346  20049097.5394                   20049094.5984
 11  7 23 20 59 30.0000000  0  7G17G24G07G26G11G28G08
   5719098.59447   4508844.32445  22091505.1174                   22091503.0274
    543086.37547    574580.16844  21978214.1804                   21978212.1484
  -5636176.85947  -4338992.85946  20668490.9064                   20668488.0314
  13571505.75446  10625086.42243  22763819.7274                   22763818.4734
 -15100257.37947 -11636251.80545  21599195.5864   21599192.3674
 -13180854.40647 -10233136.91445  21764670.4304                   21764666.9924
 -18905761.01248 -14695867.62546  20022563.1644                   20022561.3324
 11  7 23 21  0  0.0000000  0  7G17G24G07G26G11G28G08
   5524648.53147   4357324.86345  22054501.7034                   22054500.3914
    394062.19147    458457.44544  21949855.4694                   21949853.7854
  -5712970.73847  -4398832.26246  20653877.5164                   20653874.5354
  13426106.05947  10511787.97743  22736152.3834                   22736149.8484
 -15199379.79747 -11713490.05144  21580332.7504   21580329.8134
 -13327220.63747 -10347188.50445  21736817.6884                   21736814.4414
 -19044726.03147 -14804152.06246  19996119.1094                   19996116.4414
 11  7 23 21  0 30.0000000  0  7G17G24G07G26G11G28G08
   5330520.68047   4206056.46545  22017560.3134                   22017558.5984
    245534.69147    342721.76644  21921591.6174                   21921590.2894
  -5789296.98847  -4458307.28946  20639353.4144                   20639350.5594
  13281303.30546  10398954.66443  22708596.3594                   22708595.1724
 -15297937.35947 -11790288.15644  21561578.3134   21561575.6564
 -13473552.25447 -10461213.13745  21708971.7894                   21708968.9224
 -19183203.62148 -14912056.67646  19969767.9454                   19969765.4224
 11  7 23 21  1  0.0000000  0  7G17G24G07G26G11G28G08
   5136707.57847   4055033.33245  21980679.5864                   21980677.2034
     97497.00447    227367.75044  21893420.8284                   21893419.5984
  -5865164.82847  -4517425.10246  20624915.9224                   20624913.1214
  13137089.59447  10286580.37944  22681153.5554                   22681152.3164
 -15395938.98447 -11866653.06644  21542929.4064   21542925.9964
 -13619857.74647 -10575217.41045  21681130.9064                   21681127.8524
 -19321199.95348 -15019586.29346  19943508.1174                   19943505.4844
 11  7 23 21  1 30.0000000  0  7G17G24G07G26G11G28G08
   4943220.09447   3904263.93445  21943859.5944                   21943857.9224
    -50038.72347    112404.85944  21865345.6644                   21865343.8324
  -5940564.56647  -4576178.17246  20610568.2344                   20610565.3404
  12993475.52047  10174673.30143  22653824.5784                   22653823.6724
 -15493375.06647 -11942577.28945  21524387.9064   21524384.9024
 -13766127.03547 -10689193.46545  21653296.7664                   21653293.6604
 -19458703.39547 -15126731.84846  19917341.9534                   19917339.3794
 11  7 23 21  2  0.0000000  0  7G17G24G07G26G11G28G08
   4750053.62547   3753744.66845  21907101.2584                   21907099.1764
   -197076.63347     -2170.10544  21837365.5394                   21837364.0394
  -6015501.99647  -4634571.00046  20596308.2114                   20596304.7114
  12850455.60247  10063229.22343  22626608.2114                   22626607.8674
 -15590251.65247 -12018065.54745  21505953.0234   21505949.7194
 -13912365.90648 -10803145.81645  21625468.4534                   21625464.7274
 -19595717.85947 -15233496.35946  19891268.9614                   19891266.6844
 11  7 23 21  2 30.0000000  0  7G17G24G07G26G11G28G08
   6132645.18447   4831088.79345  22170200.1724                   22170198.3014
   1231819.43047   1111255.43044  22109275.4064                   22109274.1294
  -4514545.33647  -3464994.41046  20881930.3914                   20881927.2584
  14283464.62546  11179859.66443  22899301.1334                   22899299.6684
 -14111136.50447 -10865508.29345  21787419.4454                   21787415.9264
 -12483140.23847  -9689463.46945  21897440.7424                   21897437.3164
 -18156807.07448 -14112267.18446  20165084.4534                   20165081.9534
 11  7 23 21  3  0.0000000  0  7G17G24G07G26G11G28G08
   5940141.14547   4681085.69945  22133567.7894                   22133565.5704
   1085799.60947    997473.77344  22081488.5944                   22081486.9924
  -4588541.84047  -3522654.04746  20867848.7504                   20867846.1374
  14141651.35247  11069355.81344  22872315.8984                   22872314.0434
 -14206878.42247 -10940112.39545  21769200.2894                   21769196.4574
 -12629301.75447  -9803355.54745  21869627.5634                   21869623.9654
 -18292820.40248 -14218251.59446  20139202.0004                   20139199.6844
 11  7 23 21  3 30.0000000  0  7G17G24G07G26G11G28G08
   5747971.16047   4531342.91445  22096998.6484                   22096996.8794
    940292.82847    884091.91044  22053799.1484                   22053798.2154
  -4662067.05547  -3579946.45345  20853858.3204                   20853855.3674
  14000443.13747  10959323.44944  22845443.8284                   22845443.0904
 -14302052.65247 -11014274.13344  21751089.4534                   21751085.7504
 -12775422.91047  -9917216.17245  21841821.6174                   21841817.9104
 -18428329.22347 -14323842.87546  20113415.3134                   20113413.5004
 11  7 23 21  4  0.0000000  0  7G17G24G07G26G11G28G08
   5556139.29747   4381863.57845  22060494.2974                   22060492.2854
    795303.94547    771113.58244  22026208.1884                   22026207.4494
  -4735118.77347  -3636869.89545  20839956.3914                   20839954.3594
  13859843.34847  10849765.16443  22818689.3364                   22818687.2734
 -14396656.64847 -11087991.53944  21733086.6884                   21733083.3984
 -12921501.01247 -10031043.25445  21814024.1174                   21814020.7114
 -18563328.57047 -14429037.17246  20087726.1644                   20087723.5164
 11  7 23 21  4 30.0000000  0  7G17G24G07G26G11G28G08
   5364641.99647   4232644.96145  22024053.2974                   22024051.9924
    650830.29747    658536.73844  21998716.1484                   21998715.0904
  -4807701.25047  -3693427.71545  20826144.8754                   20826142.1524
  13719847.95747  10740677.84443  22792048.9224                   22792047.3984
 -14490695.52047 -11161268.58644  21715191.7894                   21715187.9414
 -13067540.64547 -10144840.35545  21786233.1564                   21786230.2344
 -18697820.61747 -14533836.16846  20062133.1644                   20062130.2894
 11  7 23 21  5  0.0000000  0  7G17G24G07G26G11G28G08
   5173492.38347   4083697.27745  21987679.0944                   21987677.4024
    506885.63747    546372.09445  21971324.8834                   21971323.5474
  -4879802.85247  -3749610.82046  20812424.7274                   20812421.6684
  13580469.23447  10632071.04344  22765526.0234                   22765524.7544
 -14584157.66847 -11234096.22344  21697406.2584                   21697402.9304
 -13213529.26247 -10258597.71145  21758452.2814                   21758449.2074
 -18831791.59447 -14638229.13346  20036639.3364                   20036636.6844
 11  7 23 21  5 30.0000000  0  7G17G24G07G26G11G28G08
   4982685.66847   3935016.78545  21951369.1484                   21951367.3134
    363465.98047    434616.53144  21944032.7504                   21944031.2544
  -4951430.10247  -3805424.27746  20798794.1724                   20798790.9964
  13441701.55947  10523940.35943  22739118.9454                   22739118.8914
 -14677049.59847 -11306479.55945  21679729.6644                   21679726.2034
 -13359473.07447 -10372320.15245  21730680.3674                   21730676.8594
 -18965245.87147 -14742219.48446  20011243.7894                   20011241.0864
 11  7 23 21  6  0.0000000  0  7G17G24G07G26G11G28G08
   4792231.85547   3786611.26245  21915127.5554                   21915125.5984
    220581.93447    323278.33244  21916843.4064                   21916841.8984
  -5022574.09447  -3860861.18446  20785256.0394                   20785253.1134
  13303554.38347  10416293.22744  22712830.6024                   22712829.4104
 -14769362.78147 -11378411.91444  21662162.5784                   21662159.9804
 -13505362.62147 -10486000.30945  21702918.5234                   21702915.3164
 -19098172.48447 -14845798.66046  19985949.0784                   19985946.4024
 11  7 23 21  6 30.0000000  0  7G17G24G07G26G11G28G08
   4602132.91447   3638482.27745  21878952.8134                   21878950.4024
     78235.94547    212359.41045  21889755.0944                   21889754.1994
  -5093234.28947  -3915921.09846  20771809.7114                   20771806.2344
  13166028.59047  10309130.28144  22686660.2814                   22686658.8874
 -14861097.00847 -11449893.14144  21644706.0164                   21644703.2074
 -13651196.96147 -10599637.45345  21675167.8134                   21675163.7074
 -19230568.95347 -14948964.74646  19960754.5234                   19960752.0594
 11  7 23 21  7  0.0000000  0  7G17G24G07G26G11G28G08
   4412393.60947   3490633.53545  21842846.4144                   21842843.9414
    -63566.44147    101864.05544  21862770.7974                   21862769.9534
  -5163407.40247  -3970601.47346  20758456.3284                   20758453.5514
  13029128.34847  10202454.78144  22660608.7194                   22660607.7194
 -14952249.13747 -11520920.78144  21627360.2734                   21627357.7894
 -13796972.27747 -10713228.58645  21647427.0164                   21647423.6454
 -19362429.48848 -15051713.21946  19935662.4454                   19935659.4614
 11  7 23 21  7 30.0000000  0  7G17G24G07G26G11G28G08
   4223020.23447   3343069.93045  21806809.5784                   21806807.8324
   -204818.25047     -8202.28144  21835892.0784                   21835890.8794
  -5233088.41847  -4024898.39146  20745196.5554                   20745193.4654
  12892859.19947  10096271.03144  22634678.3134                   22634676.6724
 -15042814.38747 -11591491.10944  21610126.5784                   21610123.6994
 -13942683.05947 -10826769.43745  21619698.9924                   21619695.9384
 -19493746.68747 -15154038.30946  19910673.4304                   19910671.1644
 11  7 23 21  8  0.0000000  0  7G17G24G07G26G11G28G08
   4034007.17647   3195787.10945  21770841.4064                   21770839.3594
   -345524.34847   -117843.39145  21809116.6644                   21809115.4344
  -5302284.26247  -4078817.26246  20732029.0554                   20732025.8554
  12757214.67247   9990574.04344  22608865.7034                   22608864.4654
 -15132800.15247 -11661609.89544  21593002.0474                   21592999.9344
 -14088335.66047 -10940264.94945  21591982.4534                   21591978.7624
 -19624525.64148 -15255943.99246  19885786.9384                   19885784.6994
 11  7 23 21  8 30.0000000  0  7G17G24G07G26G11G28G08
   3845359.02347   3048788.60545  21734943.5394                   21734941.2274
   -485679.46147   -227055.16845  21782445.6884                   21782445.2814
  -5370992.06648  -4132355.84045  20718954.8594                   20718951.3364
  12622198.43447   9885366.60244  22583172.7814                   22583172.0634
 -15222203.45747 -11731274.82444  21575989.6024                   21575987.7034
 -14233926.38347 -11053712.25845  21564277.4454                   21564273.7974
 -19754761.21947 -15357426.27046  19861004.0944                   19861001.4654
 11  7 23 21  9  0.0000000  0  7G17G24G07G26G11G28G08
   5232497.66047   4129675.93045  21998906.7894                   21998905.2304
    950137.40647    891763.18844  22055672.0784                   22055671.5274
  -3863795.25447  -2957916.78546  21005764.7034                   21005761.3524
  14063229.88347  11008248.24644  22857392.5394                   22857390.5234
 -13735607.58247 -10572888.43744  21858879.9064                   21858877.0044
 -12804035.55547  -9939511.59045  21836376.3914                   21836373.4534
 -18309032.21148 -14230884.19146  20136116.8754                   20136114.6054
 11  7 23 21  9 30.0000000  0  7G17G24G07G26G11G28G08
   5044569.77047   3983238.67645  21963145.5704                   21963142.9224
    811076.62547    783404.14544  22029210.5474                   22029208.8014
  -3931540.31647  -3010705.17645  20992873.1024                   20992870.4694
  13929458.08247  10904010.49244  22831935.7114                   22831935.0004
 -13823860.53947 -10641656.98444  21842086.3914                   21842082.6764
 -12949514.47347 -10052871.76645  21808693.0394                   21808689.4534
 -18438187.20347 -14331524.44546  20111540.1804                   20111537.3204
 11  7 23 21 10  0.0000000  0  7G17G24G07G26G11G28G08
   4857005.39847   3837084.68845  21927453.3524                   21927451.0124
    672567.10947    675474.65644  22002852.9844                   22002851.3284
  -3998803.02747  -3063117.71946  20980073.4064                   20980070.4804
  13796310.44547  10800259.08644  22806598.8524                   22806598.0044
 -13911537.72347 -10709976.87544  21825401.5394                   21825398.7274
 -13094935.53547 -10166186.85245  21781020.3674                   21781016.9494
 -18566797.84847 -14431740.54746  20087066.4144                   20087063.9064
 11  7 23 21 10 30.0000000  0  7G17G24G07G26G11G28G08
   4669809.92247   3691218.14545  21891830.5864                   21891828.7854
    534614.84847    567979.39844  21976601.4304                   21976600.1414
  -4065579.50047  -3115151.35546  20967366.4534                   20967363.1454
  13663791.53147  10696997.60244  22781381.5864                   22781380.3444
 -13998635.33647 -10777845.16444  21808827.4304                   21808824.3634
 -13240293.85947 -10279453.06645  21753358.7894                   21753356.1644
 -18694858.05947 -14531527.71546  20062696.7344                   20062694.5234
 11  7 23 21 11  0.0000000  0  7G17G24G07G26G11G28G08
   4482987.30947   3545642.13345  21856279.8914                   21856277.3134
    397224.56647    460922.05944  21950456.5784                   21950455.0944
  -4131866.96147  -3166803.94946  20954751.9614                   20954748.8874
  13531904.81347  10594228.75843  22756283.7424                   22756282.8054
 -14085151.16847 -10845260.11344  21792363.8984                   21792360.4844
 -13385586.11747 -10392667.80145  21725711.1334                   21725707.4024
 -18822362.65648 -14630881.94146  20038433.6414                   20038430.8284
 11  7 23 21 11 30.0000000  0  7G17G24G07G26G11G28G08
   4296530.34047   3400351.03545  21820797.7974                   21820795.7234
    260389.67247    354297.47745  21924418.4614                   21924416.7384
  -4197674.04347  -3218082.23045  20942229.0554                   20942226.4844
  13400641.61346  10491945.74244  22731305.1724                   22731304.3524
 -14171094.31247 -10912228.80544  21776009.5084                   21776006.3134
 -13530820.26647 -10505837.26245  21698074.0634                   21698070.3524
 -18949318.46547 -14729808.54746  20014274.5634                   20014272.1604
 11  7 23 21 12  0.0000000  0  7G17G24G07G26G11G28G08
   4110444.77747   3255349.37945  21785386.6484                   21785384.8714
    124116.41447    248110.53944  21898486.7274                   21898484.4304
  -4262996.52347  -3268982.89546  20929799.1024                   20929796.2034
  13270006.81647  10390152.39844  22706446.7584                   22706445.6294
 -14256460.30147 -10978747.77744  21759765.3914                   21759762.4534
 -13675991.24647 -10618957.48845  21670448.7734                   21670445.1564
 -19075718.71548 -14828302.25446  19990221.7584                   19990219.2234
 11  7 23 21 12 30.0000000  0  7G17G24G07G26G11G28G08
   3924730.78947   3110637.23445  21750046.3134                   21750044.3324
    -11594.67647    142361.64844  21872661.1414                   21872659.8674
  -4327835.73047  -3319506.98046  20917460.5784                   20917457.8834
  13139999.72747  10288848.19544  22681706.2424                   22681705.1804
 -14341250.88347 -11044818.37145  21743629.6644                   21743627.7034
 -13821099.43447 -10732028.79345  21642836.0864                   21642832.3594
 -19201562.39848 -14926362.26646  19966273.9614                   19966271.7894
 11  7 23 21 13  0.0000000  0  7G17G24G07G26G11G28G08
   3739398.62147   2966222.60945  21714779.2504                   21714776.4804
   -146732.60247     37059.38344  21846945.2424                   21846943.8594
  -4392182.78547  -3369647.58246  20905215.7584                   20905212.6644
  13010629.40247  10188040.15643  22657088.9534                   22657087.6954
 -14425457.73847 -11110434.10244  21727606.3674                   21727602.6724
 -13966135.25447 -10845043.72345  21615236.4534                   21615233.0274
 -19326838.62148 -15023980.10246  19942434.9534                   19942432.1374
 11  7 23 21 13 30.0000000  0  7G17G24G07G26G11G28G08
   3554449.45747   2822106.43445  21679584.1644                   21679582.1684
   -281295.48847    -67794.78944  21821338.9384                   21821337.9694
  -4456038.10547  -3419405.01245  20893064.6414                   20893061.8554
  12881896.43847  10087728.77044  22632591.4224                   22632590.9264
 -14509081.20747 -11175595.25444  21711692.8364                   21711689.9494
 -14111098.07447 -10958001.74245  21587650.8134                   21587647.1684
 -19451545.64148 -15121154.40646  19918703.9694                   19918701.7154
 11  7 23 21 14  0.0000000  0  7G17G24G07G26G11G28G08
   3369887.81647   2678292.20745  21644463.5864                   21644461.0744
   -415278.63347   -172197.21544  21795842.4924                   21795841.8674
  -4519398.82447  -3468777.03146  20881007.6414                   20881004.6174
  12753804.11347   9987916.59044  22608216.7664                   22608215.3484
 -14592118.77747 -11240299.86744  21695891.3984                   21695888.1844
 -14255984.42647 -11070900.16445  21560079.6804                   21560076.4774
 -19575678.10547 -15217881.01646  19895082.4924                   19895080.0044
 11  7 23 21 14 30.0000000  0  7G17G24G07G26G11G28G08
   3185718.65247   2534783.81645  21609417.9844                   21609414.8094
   -548676.16447   -276143.30944  21770457.5704                   21770456.4224
  -4582261.12947  -3517760.66445  20869045.2664                   20869042.2424
  12626356.31347   9888606.60544  22583964.3054                   22583962.8284
 -14674567.32047 -11304545.49244  21680202.1884                   21680198.9884
 -14400789.51647 -11183735.29345  21532524.1564                   21532520.6954
 -19699230.29747 -15314155.46946  19871571.1414                   19871568.7384
 11  7 23 21 15  0.0000000  0  7G17G24G07G26G11G28G08
   4577365.58247   3619184.07445  21874238.7034                   21874236.4614
    893934.36347    847968.80944  22044977.5004                   22044975.8094
  -3069206.92647  -2338757.42246  21156970.0944                   21156966.8054
  14074973.82846  11017399.48844  22859627.0944                   22859625.5744
 -13181007.87547 -10140732.93444  21964417.1954                   21964414.1094
 -12970091.17647 -10068905.41045  21804776.7504                   21804773.4614
 -18246780.05147 -14182376.05946  20147963.3754                   20147961.0744
 11  7 23 21 15 30.0000000  0  7G17G24G07G26G11G28G08
   4393979.23047   3476285.66045  21839341.2034                   21839339.1254
    761707.17247    744934.65244  22019815.1254                   22019813.6914
  -3131079.00447  -2386969.46546  21145195.9614                   21145192.6294
  13948809.89846  10919089.92644  22835618.7194                   22835617.2034
 -13262285.44947 -10204066.12944  21948950.7734                   21948947.2894
 -13114736.89547 -10181616.34445  21777252.4304                   21777248.5944
 -18369172.06648 -14277746.48046  20124672.8984                   20124670.4384
 11  7 23 21 16  0.0000000  0  7G17G24G07G26G11G28G08
   4210988.43847   3333695.48045  21804519.3134                   21804517.3404
    630069.96547    642360.21544  21994765.5784                   21994764.2384
  -3192454.12547  -2434794.24645  21133516.2344                   21133513.4924
  13823290.36347  10821282.47344  22811733.0314                   22811731.8444
 -13342976.25447 -10266942.08644  21933595.4384                   21933592.2154
 -13259299.96947 -10294262.87545  21749742.6254                   21749738.8054
 -18490978.68448 -14372660.73046  20101493.9534                   20101491.0824
 11  7 23 21 16 30.0000000  0  7G17G24G07G26G11G28G08
   4028384.98447   3191407.13745  21769771.3914                   21769769.1884
    499014.80147    540239.34044  21969826.7584                   21969825.0634
  -3253342.39847  -2482239.69545  21121929.9454                   21121927.5434
  13698405.87146  10723969.88744  22787967.7584                   22787967.1914
 -13423090.46147 -10329368.75044  21918350.3594                   21918346.7774
 -13403789.08648 -10406851.80145  21722247.1254                   21722243.7894
 -18612207.27347 -14467124.58646  20078424.7974                   20078422.2234
 11  7 23 21 17  0.0000000  0  7G17G24G07G26G11G28G08
   3846182.34847   3049431.10245  21735099.1024                   21735096.4884
    368555.83647    438583.03944  21945000.7194                   21944999.6604
  -3313731.59047  -2529296.23445  21110438.5554                   21110435.5274
  13574168.91046  10627161.85944  22764326.8444                   22764325.1954
 -13502616.38747 -10391337.02044  21903217.4454                   21903214.1914
 -13548191.16447 -10519372.88745  21694768.3914                   21694764.7584
 -18732843.91447 -14561127.17246  20055468.5554                   20055465.9844
 11  7 23 21 17 30.0000000  0  7G17G24G07G26G11G28G08
   3664382.65647   2907769.06345  21700503.8914                   21700502.1524
    238695.62147    337393.27744  21920289.4064                   21920287.9574
  -3373620.82047  -2575963.21145  21099041.7814                   21099039.1644
  13450580.45346  10530859.13344  22740809.0004                   22740807.5664
 -13581553.71947 -10452846.64544  21888196.1484                   21888192.4104
 -13692504.81647 -10631825.07845  21667306.6484                   21667302.7664
 -18852885.89847 -14654666.38746  20032624.9844                   20032622.6804
 11  7 23 21 18  0.0000000  0  7G17G24G07G26G11G28G08
   3482978.71947   2766415.39545  21665984.1254                   21665981.7074
    109427.28947    236664.71944  21895690.2344                   21895689.0514
  -3433019.08647  -2622247.59845  21087738.3834                   21087736.1844
  13327632.17646  10435055.29344  22717412.0314                   22717411.2274
 -13659911.21147 -10513904.44144  21873284.9844                   21873281.6414
 -13836736.91047 -10744213.71945  21639859.9694                   21639856.3484
 -18972339.55147 -14747747.17246  20009894.4224                   20009891.3444
 11  7 23 21 18 30.0000000  0  7G17G24G07G26G11G28G08
   3301973.28947   2625372.26245  21631539.5314                   21631536.9384
    -19245.91447    136399.88344  21871204.5234                   21871203.3324
  -3491925.34447  -2668148.60545  21076529.3834                   21076526.1954
  13205325.75046  10339751.57844  22694137.8594                   22694137.2234
 -13737688.03947 -10574509.75844  21858484.7814                   21858481.0004
 -13980885.21147 -10856537.05545  21612429.3834                   21612426.0204
 -19091201.52747 -14840366.91846  19987275.8444                   19987273.3524
 11  7 23 21 19  0.0000000  0  7G17G24G07G26G11G28G08
   3121358.54747   2484633.55145  21597170.2504                   21597166.9414
   -147331.25047     36593.14845  21846830.6564                   21846829.8794
  -3550348.35547  -2713673.07845  21065411.0944                   21065408.9924
  13083652.18846  10244940.99644  22670984.6024                   22670983.0634
 -13814894.25847 -10634670.46144  21843792.9694                   21843789.0594
 -14124958.05947 -10968801.60945  21585013.6414                   21585009.4304
 -19209479.07847 -14932531.24646  19964768.3204                   19964765.4924
 11  7 23 21 19 30.0000000  0  7G17G24G07G26G11G28G08
   2941144.75047   2344207.26645  21562875.0474                   21562873.0904
   -274818.11347    -62747.26644  21822571.2274                   21822570.1054
  -3608279.74647  -2758814.45745  21054388.0234                   21054385.2584
  12962620.60546  10150630.68844  22647953.0864                   22647951.7114
 -13891521.17647 -10694379.77044  21829210.7584                   21829207.6524
 -14268945.50847 -11080999.61345  21557613.6254                   21557609.9964
 -19327161.40247 -15024231.76646  19942373.7974                   19942371.0594
 11  7 23 21 20  0.0000000  0  7G17G24G07G26G11G28G08
   2761323.27747   2204086.69945  21528657.0314                   21528654.8554
   -401714.55147   -161627.57844  21798423.4384                   21798422.4184
  -3665729.38747  -2803580.44145  21043455.7114                   21043452.7704
  12842221.32447  10056813.07444  22625041.7504                   22625040.9614
 -13967578.99247 -10753645.58244  21814737.2664                   21814734.2974
 -14412856.20347 -11193137.81645  21530228.3834                   21530224.5394
 -19444256.08647 -15115474.37946  19920091.1954                   19920088.8484
 11  7 23 21 20 30.0000000  0  7G17G24G07G26G11G28G08
   2581897.20347   2064274.21545  21494513.0704                   21494511.0864
   -528017.46947   -260045.44544  21774388.8284                   21774388.1764
  -3722696.43447  -2847970.38345  21032615.1804                   21032612.0824
  12722455.78146   9963489.27744  22602250.9064                   22602250.5044
 -14043067.20347 -10812467.56244  21800372.6644                   21800369.3094
 -14556687.97347 -11305214.50445  21502858.0164                   21502854.5004
 -19560759.79747 -15206256.49646  19897921.6804                   19897918.8524
 11  7 23 21 21  0.0000000  0  7G17G24G07G26G11G28G08
   2402869.67647   1924772.29745  21460445.4534                   21460442.7584
   -653723.72347   -357998.34444  21750467.8444                   21750466.3244
  -3779178.88747  -2891982.72745  21021866.4224                   21021864.4654
  12603325.87146   9870660.78944  22579581.7194                   22579579.9414
 -14117984.46947 -10870844.66444  21786115.6724                   21786113.4964
 -14700438.03147 -11417227.54345  21475503.2274                   21475499.4304
 -19676669.06647 -15296575.41046  19875864.5864                   19875861.5864
 11  7 23 21 21 30.0000000  0  7G17G24G07G26G11G28G08
   3799661.46147   3013181.51645  21726246.1094                   21726244.0864
    796586.85547    772113.81344  22026452.6174                   22026450.8244
  -2259761.24647  -1708020.96145  21311002.3754                   21310999.5514
  14060249.52746  11005925.95744  22856825.3134                   22856823.9574
 -12616914.75847  -9701179.96944  22071760.3444                   22071757.4144
 -13268686.30547 -10301576.84045  21747956.0554                   21747953.0044
 -18216564.28547 -14158831.43446  20153713.2974                   20153711.0204
 11  7 23 21 22  0.0000000  0  7G17G24G07G26G11G28G08
   3621420.62147   2874292.59845  21692327.3834                   21692325.8164
    672065.81347    675084.41444  22002757.4694                   22002755.9344
  -2315289.20347  -1751289.54745  21300435.5944                   21300433.4614
  13942377.57446  10914077.68044  22834393.8524                   22834393.3014
 -12690705.35247  -9758679.13344  22057718.6094                   22057715.7234
 -13412282.82047 -10413470.22745  21720630.5864                   21720627.2854
 -18331292.43448 -14248230.00846  20131881.3134                   20131878.8634
 11  7 23 21 22 30.0000000  0  7G17G24G07G26G11G28G08
   3443574.51247   2735711.25445  21658485.2194                   21658482.6524
    548139.06347    578518.13344  21979174.6094                   21979173.1604
  -2370340.80547  -1794186.93045  21289959.6564                   21289957.3984
  13825133.91846  10822718.97744  22812083.7894                   22812082.1604
 -12763934.29747  -9815740.67244  22043783.6334                   22043780.2734
 -13555801.59447 -10525303.02345  21693320.2974                   21693316.7194
 -18445427.80547 -14337166.67246  20110162.1564                   20110159.2154
 11  7 23 21 23  0.0000000  0  7G17G24G07G26G11G28G08
   3266119.64147   2597434.76645  21624716.4454                   21624713.6914
    424803.60947    482412.58245  21955705.1254                   21955703.6174
  -2424921.23447  -1836717.18045  21279573.2114                   21279571.2974
  13708513.80146  10731846.14844  22789891.4454                   22789891.1484
 -12836606.85247  -9872368.64144  22029954.1094                   22029950.9344
 -13699246.34847 -10637078.15245  21666023.5634                   21666019.6054
 -18558973.69947 -14425644.00046  20088555.1644                   20088552.5274
 11  7 23 21 23 30.0000000  0  7G17G24G07G26G11G28G08
   3089058.08247   2459464.76645  21591022.3674                   21591020.4104
    302061.55947    386769.41844  21932348.0004                   21932346.5824
  -2479030.33247  -1878880.15245  21269277.0704                   21269274.4774
  13592517.97746  10641459.76644  22767818.6644                   22767817.4454
 -12908723.25447  -9928563.23444  22016230.9774                   22016227.6484
 -13842615.32047 -10748794.21545  21638741.4304                   21638737.4884
 -18671927.23447 -14513659.75446  20067060.5164                   20067058.2274
 11  7 23 21 24  0.0000000  0  7G17G24G07G26G11G28G08
   2912388.62547   2321800.27745  21557403.2424                   21557400.8324
    179912.19947    291588.11345  21909103.6564                   21909102.1414
  -2532670.60247  -1920677.79745  21259069.4924                   21259066.9574
  13477143.82846  10551557.78944  22745863.1724                   22745862.5274
 -12980286.47347  -9984326.80944  22002612.3594                   22002609.9734
 -13985909.78547 -10860452.23845  21611473.2274                   21611469.7894
 -18784288.85547 -14601214.28146  20045678.7814                   20045676.6334
 11  7 23 21 24 30.0000000  0  7G17G24G07G26G11G28G08
   2736107.14847   2184438.12145  21523858.2274                   21523856.1454
     58351.63347    196865.60244  21885971.1094                   21885969.4924
  -2585847.69947  -1962114.55145  21248950.6254                   21248948.2274
  13362386.13747  10462136.23844  22724025.8524                   22724024.8954
 -13051302.48847 -10039663.96944  21989099.0394                   21989096.1564
 -14129133.82047 -10972055.36345  21584218.7664                   21584215.0944
 -18896061.95747 -14688310.21146  20024409.4144                   20024406.8554
 11  7 23 21 25  0.0000000  0  7G17G24G07G26G11G28G08
   2560213.30147   2047378.01645  21490386.7664                   21490384.3914
    -62620.02747    102601.98445  21862950.8754                   21862949.5984
  -2638563.13747  -2003191.55545  21238918.7344                   21238916.3204
  13248243.39146  10373193.80144  22702305.3594                   22702304.0904
 -13121773.66847 -10094576.59044  21975689.2814                   21975686.3524
 -14272287.91847 -11083604.00845  21556977.4224                   21556973.6484
 -19007246.57047 -14774947.58246  20003251.5234                   20003249.0394
 11  7 23 21 25 30.0000000  0  7G17G24G07G26G11G28G08
   2384706.27747   1910619.32045  21456988.1884                   21456986.3634
   -183003.63747      8796.55944  21840042.9614                   21840040.8524
  -2690819.89147  -2043911.16045  21228974.4384                   21228972.4024
  13134712.90646  10284728.48844  22680701.1954                   22680700.0554
 -13191702.42247 -10149066.51644  21962381.5474                   21962379.2074
 -14415372.97747 -11195098.84845  21529748.9224                   21529745.5864
 -19117843.12947 -14861126.73846  19982205.8134                   19982203.0164
 11  7 23 21 26  0.0000000  0  7G17G24G07G26G11G28G08
   2209588.53547   1774163.96545  21423665.2194                   21423662.6094
   -302796.50047    -84548.51645  21817247.0474                   21817245.9024
  -2742616.78147  -2084272.41445  21219118.3444                   21219115.7274
  13021796.17246  10196741.41044  22659213.8754                   22659212.3324
 -13261088.62547 -10203133.68744  21949178.3134                   21949174.8094
 -14558386.75047 -11306538.14545  21502534.3984                   21502531.1914
 -19227848.68047 -14946845.36346  19961272.3834                   19961269.6914
 11  7 23 21 26 30.0000000  0  7G17G24G07G26G11G28G08
   2034862.96947   1638014.23845  21390415.8204                   21390413.7274
   -421995.41447   -177430.76244  21794564.1414                   21794562.9924
  -2793952.62947  -2124274.41845  21209349.1334                   21209347.0984
  12909494.62146  10109233.67244  22637843.4614                   22637842.2544
 -13329931.28547 -10256777.32044  21936078.0784                   21936074.8404
 -14701326.10947 -11417919.44945  21475333.7734                   21475330.3404
 -19337259.93047 -15032100.88746  19940452.2274                   19940449.8094
 11  7 23 21 27  0.0000000  0  7G17G24G07G26G11G28G08
   1860530.56647   1502170.83245  21357241.6564                   21357238.8834
   -540598.98847   -269849.13745  21771995.0314                   21771993.5864
  -2844828.19147  -2163917.76245  21199668.4144                   21199665.3914
  12797807.85246  10022205.03544  22616589.9064                   22616589.2194
 -13398231.23047 -10309998.07044  21923080.9694                   21923077.9024
 -14844189.98847 -11529241.94145  21448147.8054                   21448144.5204
 -19446075.47348 -15116892.23446  19919745.3754                   19919742.6024
 11  7 23 21 27 30.0000000  0  7G17G24G07G26G11G28G08
   1686597.75847   1366638.81345  21324143.3834                   21324141.1134
   -658601.09447   -361798.80544  21749539.2194                   21749538.3554
  -2895238.71547  -2203198.72745  21190075.1724                   21190073.1644
  12686740.65646   9935659.14544  22595454.5704                   22595453.8634
 -13465984.43447 -10362792.80144  21910188.2194                   21910184.8444
 -14986972.29347 -11640500.87145  21420977.2114                   21420973.6254
 -19554288.25047 -15201213.89146  19899153.2194                   19899150.3984
 11  7 23 21 28  0.0000000  0  7G17G24G07G26G11G28G08
   3088492.83647   2459024.63345  21590914.8444                   21590912.6094
    799425.47747    774325.78145  22026993.0634                   22026991.0314
  -1369761.19547  -1014515.00445  21480364.4384                   21480361.7624
  14151718.11046  11077200.03244  22874230.3594                   22874229.7734
 -11957767.62547  -9187558.92644  22197192.3134                   22197188.8134
 -13554245.52047 -10524090.37945  21693616.3674                   21693612.8204
 -18086471.51647 -14057460.60546  20178469.1174                   20178466.9384
 11  7 23 21 28 30.0000000  0  7G17G24G07G26G11G28G08
   2915365.84447   2324120.51645  21557969.7734                   21557967.3984
    682634.33247    683319.70744  22004768.1804                   22004766.9924
  -1419239.15647  -1053069.29345  21470948.9224                   21470946.1954
  14041892.85246  10991621.88344  22853331.6804                   22853330.7814
 -12024425.88747  -9239500.43744  22184507.0944                   22184503.7504
 -13696857.52347 -10635216.60945  21666477.9384                   21666474.2194
 -18193470.81247 -14140836.68046  20158107.9534                   20158105.5394
 11  7 23 21 29  0.0000000  0  7G17G24G07G26G11G28G08
   2742635.41047   2189525.41446  21525100.3984                   21525098.0824
    566442.53547    592780.65244  21982657.6024                   21982655.9264
  -1468259.43047  -1091266.96145  21461621.1094                   21461618.4024
  13932680.27346  10906521.18044  22832549.1954                   22832548.1334
 -12090546.07447  -9291022.66444  22171924.8594                   22171922.0744
 -13839390.29347 -10746281.08645  21639354.9384                   21639351.5164
 -18299868.62947 -14223744.08246  20137860.7114                   20137858.7584
 11  7 23 21 29 30.0000000  0  7G17G24G07G26G11G28G08
   2570303.78147   2055241.06645  21492306.6174                   21492304.4144
    450852.34847    502710.37144  21960661.8054                   21960660.0554
  -1516821.36347  -1129107.47745  21452380.4064                   21452377.5744
  13824080.72346  10821898.13344  22811883.7584                   22811882.7934
 -12156127.54747  -9342125.13344  22159444.8594                   22159442.3554
 -13981841.77047 -10857282.21945  21612247.1174                   21612243.6024
 -18405662.81647 -14306181.12146  20117728.6414                   20117726.9654
 11  7 23 21 30  0.0000000  0  7G17G24G07G26G11G28G08
   2398370.24247   1921266.91045  21459588.8674                   21459586.2624
    335863.22347    413108.48844  21938779.1954                   21938778.0594
  -1564927.41847  -1166592.74245  21443225.4224                   21443222.9024
  13716092.38347  10737751.35944  22791334.4224                   22791332.8634
 -12221173.43747  -9392810.26244  22147067.1954                   22147064.7544
 -14124212.60247 -10968220.52345  21585155.2034                   21585151.5394
 -18510853.54748 -14388147.93046  20097711.8594                   20097710.0904
 11  7 23 21 30 30.0000000  0  7G17G24G07G26G11G28G08
   2226836.07847   1787603.96145  21426946.7664                   21426944.2894
    221476.50047    323975.98044  21917013.0234                   21917011.5664
  -1612578.14547  -1203723.23445  21434157.7814                   21434155.4694
  13608714.65647  10654080.40244  22770900.6564                   22770899.6414
 -12285684.40647  -9443078.56644  22134791.5314                   22134788.4064
 -14266501.30947 -11079094.84045  21558079.0704                   21558074.8094
 -18615439.00848 -14469643.10546  20077810.4454                   20077807.7304
 11  7 23 21 31  0.0000000  0  7G17G24G07G26G11G28G08
   2055705.52347   1654255.50845  21394381.6334                   21394379.6804
    107696.95347    235316.59844  21895361.3984                   21895359.9024
  -1659770.78147  -1240496.76645  21425177.5004                   21425175.2624
  13501950.68047  10570887.66044  22750584.7274                   22750583.2114
 -12349658.04747  -9492928.17244  22122617.7424                   22122614.9534
 -14408703.17247 -11189901.47345  21531018.2034                   21531014.4144
 -18719414.26247 -14550662.80146  20058024.3984                   20058021.8554
 11  7 23 21 31 30.0000000  0  7G17G24G07G26G11G28G08
   1884971.86747   1521216.33245  21361892.5784                   21361889.5434
     -5482.52347    147124.78945  21873823.9144                   21873822.5594
  -1706513.78147  -1276919.92645  21416282.2664                   21416280.4734
  13395791.96147  10488166.60544  22730382.7274                   22730382.2704
 -12413103.41447  -9542366.14844  22110544.1954                   22110542.3794
 -14550825.11747 -11300645.83645  21503973.7584                   21503970.1294
 -18822786.05548 -14631212.25446  20038353.1414                   20038350.9844
 11  7 23 21 32  0.0000000  0  7G17G24G07G26G11G28G08
   1714640.10247   1388490.30945  21329478.8914                   21329476.8794
   -118056.47747     59404.83645  21852402.4614                   21852400.4144
  -1752803.30147  -1312989.72745  21407474.0944                   21407471.7464
  13290242.25047  10405920.05144  22710297.8134                   22710296.1374
 -12476017.19947  -9591389.90244  22098572.6724                   22098569.5124
 -14692861.59447 -11411323.60945  21476944.5634                   21476941.5164
 -18925548.85948 -14711287.18446  20018798.3284                   20018795.6174
 11  7 23 21 32 30.0000000  0  7G17G24G07G26G11G28G08
   1544701.95747   1256071.00845  21297141.3284                   21297138.5944
   -230033.04747    -27849.64144  21831092.8204                   21831092.0784
  -1798649.66447  -1348714.21545  21398749.3134                   21398747.3484
  13185291.58247  10324140.30544  22690325.6804                   22690325.1254
 -12538409.78947  -9640007.49244  22086699.7274                   22086696.7704
 -14834820.73847 -11521941.11745  21449931.0394                   21449927.3134
 -19027710.85248 -14790893.94146  19999357.5004                   19999354.8014
 11  7 23 21 33  0.0000000  0  7G17G24G07G26G11G28G08
   1375161.13747   1123961.32045  21264878.2424                   21264876.1024
   -341408.94147   -114636.05944  21809898.5634                   21809897.8754
  -1844050.57447  -1384091.59845  21390110.8594                   21390107.9414
  13080942.10947  10242829.01244  22670469.1644                   22670467.6604
 -12600279.50447  -9688217.69944  22074926.6174                   22074922.8914
 -14976698.72747 -11632495.39145  21422932.6804                   21422928.7344
 -19129267.64547 -14870029.10946  19980032.0474                   19980029.6134
 11  7 23 21 33 30.0000000  0  7G17G24G07G26G11G28G08
   1206023.72347    992165.95746  21232692.5554                   21232689.8674
   -452177.71547   -200949.38744  21788820.8594                   21788819.4574
  -1889001.69147  -1419118.49245  21381556.3674                   21381554.1414
  12977198.40246  10161989.75444  22650727.0394                   22650726.3324
 -12661622.12947  -9736017.16044  22063253.2894                   22063250.0554
 -15118488.95347 -11742981.29345  21395950.7894                   21395946.7034
 -19230212.88347 -14948687.75846  19960822.4924                   19960820.0004
 11  7 23 21 34  0.0000000  0  7G17G24G07G26G11G28G08
   1037286.37547    860682.34446  21200583.1094                   21200580.4304
   -562342.75447   -286792.26244  21767856.8834                   21767855.3134
  -1933507.73447  -1453798.57445  21373087.8914                   21373085.1174
  12874055.56347  10081618.68044  22631099.5164                   22631098.4964
 -12722443.28147  -9783410.28544  22051678.7974                   22051676.4184
 -15260194.10247 -11853400.88745  21368984.5784                   21368981.0474
 -19330549.57048 -15026872.21546  19941729.2734                   19941726.5274
 11  7 23 21 34 30.0000000  0  7G17G24G07G26G11G28G08
   2444372.17647   1957112.85545  21468342.4844                   21468339.5394
    903516.91847    855436.05544  22046800.8364                   22046799.0164
   -402151.69147   -260534.17645  21664494.8284                   21664492.2384
  14346932.84847  11229315.25044  22911379.1414                   22911377.9454
 -11207325.54747  -8602799.10544  22339996.7274                   22339993.9964
 -13826392.28947 -10736152.72345  21641828.1954                   21641825.1884
 -17854856.94148 -13876981.87146  20222544.2504                   20222541.7894
 11  7 23 21 35  0.0000000  0  7G17G24G07G26G11G28G08
   2276428.08248   1826247.36746  21436383.8054                   21436381.5044
    794552.25847    770528.53944  22026065.0004                   22026063.8834
   -445780.12947   -294530.40245  21656192.5634                   21656190.2344
  14244979.79346  11149871.30544  22891978.2504                   22891977.1134
 -11267116.64147  -8649389.58244  22328618.6954                   22328615.8164
 -13967934.41047 -10846445.27745  21614893.6484                   21614890.7034
 -17953983.13747 -13954223.07846  20203681.5394                   20203678.6454
 11  7 23 21 35 30.0000000  0  7G17G24G07G26G11G28G08
   2108891.19947   1695699.18446  21404503.0634                   21404500.6094
    686198.82447    686097.29344  22005447.2424                   22005444.7274
   -488961.27747   -328178.09445  21647975.5164                   21647973.1724
  14143630.21946  11070897.57444  22872692.4694                   22872691.0084
 -11326384.77047  -8695572.57044  22317340.2734                   22317338.0904
 -14109383.26647 -10956665.15645  21587977.0864                   21587973.1024
 -18052492.56647 -14030983.68746  20184935.4614                   20184932.7704
 11  7 23 21 36  0.0000000  0  7G17G24G07G26G11G28G08
   1941760.81347   1565467.73846  21372698.6564                   21372696.2934
    578455.57447    602141.51645  21984943.8984                   21984941.9384
   -531697.57447   -361479.14545  21639843.1254                   21639840.0274
  14042881.45747  10992392.03944  22853520.2274                   22853518.8794
 -11385133.02047  -8741350.46144  22306160.9454                   22306158.3444
 -14250739.64847 -11066812.97745  21561077.9384                   21561074.2584
 -18150385.91048 -14107264.24646  20166307.1024                   20166304.1094
 11  7 23 21 36 30.0000000  0  7G17G24G07G26G11G28G08
   1775036.94948   1435553.07446  21340972.2894                   21340969.4774
    471322.45347    518661.18044  21964556.6954                   21964555.9844
   -573990.61347   -394434.82045  21631795.0634                   21631792.4304
  13942731.69147  10914353.23044  22834462.0864                   22834461.4574
 -11443363.50447  -8786724.88744  22295080.1024                   22295077.3444
 -14392003.05147 -11176888.34845  21534196.3204                   21534192.8284
 -18247663.11748 -14183064.66846  20147795.9304                   20147793.0234
 11  7 23 21 37  0.0000000  0  7G17G24G07G26G11G28G08
   1608721.64147   1305956.75045  21309323.4774                   21309320.8164
    364801.44547    435657.79344  21944286.6334                   21944285.0084
   -615840.03147   -427044.80945  21623830.8914                   21623828.9884
  13843181.55547  10836781.66844  22815518.3754                   22815517.5164
 -11501076.35247  -8831695.96144  22284097.5474                   22284094.6804
 -14533170.77347 -11286889.16445  21507332.9144                   21507329.0634
 -18344321.45748 -14258382.87946  20129402.4454                   20129399.9384
 11  7 23 21 37 30.0000000  0  7G17G24G07G26G11G28G08
   1442809.57048   1176674.66046  21277751.8054                   21277748.6374
    258887.52347    353127.46544  21924131.5554                   21924130.1914
   -657252.53947   -459314.33245  21615950.9304                   21615948.5554
  13744224.61347  10759672.35244  22796687.5084                   22796686.4104
 -11558278.00447  -8876268.69544  22273212.8364                   22273209.6454
 -14674247.34447 -11396818.94145  21480486.9924                   21480483.0664
 -18440365.99248 -14333222.78946  20111125.4384                   20111123.1844
 11  7 23 21 38  0.0000000  0  7G17G24G07G26G11G28G08
   1277317.32048   1047719.68446  21246258.8524                   21246256.1214
    153596.87947    271082.82044  21904095.8054                   21904094.7074
   -698213.58247   -491232.08645  21608155.9304                   21608154.0704
  13645875.19946  10683036.42644  22777972.3984                   22777971.3284
 -11614954.89847  -8920432.52044  22262427.2664                   22262424.2194
 -14815216.41847 -11506664.95745  21453661.2274                   21453657.4414
 -18535780.32847 -14407571.63346  20092968.9064                   20092966.2664
 11  7 23 21 38 30.0000000  0  7G17G24G07G26G11G28G08
   1112239.35547    919087.52746  21214845.4614                   21214843.0904
     48923.79747    189519.37544  21884176.8674                   21884175.7114
   -738730.21547   -522803.53945  21600445.6954                   21600443.7424
  13548126.06647  10606868.25044  22759371.2974                   22759370.2664
 -11671114.09447  -8964192.95744  22251740.4614                   22251737.5314
 -14956082.79747 -11616430.95745  21426855.0554                   21426851.7034
 -18630569.45748 -14481433.31246  20074930.8834                   20074928.5634
 11  7 23 21 39  0.0000000  0  7G17G24G07G26G11G28G08
    947571.96948    790775.31646  21183510.4384                   21183507.6024
    -55135.39847    108434.30545  21864375.3284                   21864374.1254
   -778807.67247   -554032.77345  21592820.1564                   21592817.6334
  13450971.95747  10531163.74244  22740883.0784                   22740882.4804
 -11726761.30547  -9007554.43744  22241151.2734                   22241147.5204
 -15096849.37947 -11726119.18045  21400068.4384                   21400064.5554
 -18724736.62548 -14554810.34446  20057011.7114                   20057009.0594
 11  7 23 21 39 30.0000000  0  7G17G24G07G26G11G28G08
    783313.68848    662781.87946  21152252.9534                   21152250.3914
   -158582.41447     27826.25045  21844689.7424                   21844688.3874
   -818449.07447   -584922.24245  21585275.6484                   21585274.1564
  13354409.63347  10455920.34444  22722509.2894                   22722507.4224
 -11781900.32047  -9050519.91044  22230659.1644                   22230655.6564
 -15237517.33247 -11835730.56245  21373300.1484                   21373296.4614
 -18818283.73847 -14627704.21146  20039210.4924                   20039207.8134
 11  7 23 21 40  0.0000000  0  7G17G24G07G26G11G28G08
    619462.36748    535105.56346  21121073.6564                   21121070.6254
   -261419.31247    -52306.39544  21825120.5784                   21825119.4734
   -857658.55547   -615475.13345  21577814.8594                   21577812.7544
  13258435.16847  10381135.07444  22704244.6414                   22704244.2544
 -11836535.37547  -9093092.69544  22220262.5554                   22220259.0474
 -15378088.03947 -11945266.16445  21346550.0004                   21346546.5704
 -18911212.51248 -14700116.25446  20021526.6254                   20021524.3754
 11  7 23 21 40 30.0000000  0  7G17G24G07G26G11G28G08
    456018.46948    407746.71546  21089971.1254                   21089968.1684
   -363645.65647   -131963.27044  21805667.1954                   21805666.2114
   -896436.87947   -645692.05145  21570435.6254                   21570433.4104
  13163047.81646  10306807.21944  22686093.2034                   22686092.6134
 -11890667.85247  -9135273.88344  22209961.0554                   22209958.1644
 -15518560.37947 -12054725.10945  21319819.4304                   21319815.6254
 -19003522.16448 -14772045.88346  20003960.9144                   20003958.3094
 11  7 23 21 41  0.0000000  0  7G17G24G07G26G11G28G08
   1868401.39547   1508304.87145  21358738.2734                   21358736.0274
   1110155.57047   1016453.27344  22086122.5864                   22086120.9224
    640629.69147    552022.10545  21862930.2664                   21862927.6524
  14643662.57447  11460533.00044  22967844.9304                   22967843.8914
 -10368883.91447  -7949468.25444  22499546.9844                   22499544.5004
 -14083514.70347 -10936507.70345  21592899.2664                   21592895.8794
 -17519795.69947 -13615895.40646  20286304.4454                   20286301.9414
 11  7 23 21 41 30.0000000  0  7G17G24G07G26G11G28G08
   1705762.92248   1381573.62146  21327789.8054                   21327786.9344
   1009140.00447    937739.85544  22066900.5864                   22066898.5514
    602699.10247    522465.77045  21855711.8524                   21855709.3594
  14549433.95347  11387108.08244  22949914.1804                   22949912.6524
 -10422026.81647  -7990878.33244  22489434.0634                   22489431.3754
 -14223798.18447 -11045819.49245  21566204.6644                   21566200.7074
 -17610876.49648 -13686867.46946  20268972.1954                   20268969.8834
 11  7 23 21 42  0.0000000  0  7G17G24G07G26G11G28G08
   1543528.77347   1255157.43846  21296917.2274                   21296914.4614
    908731.36347    859499.37944  22047793.2034                   22047792.0084
    565191.42247    493238.95345  21848574.5864                   21848571.6724
  14455783.71947  11314133.85244  22932093.6174                   22932091.4844
 -10474676.35947  -8031903.97344  22479415.2194                   22479412.1804
 -14363984.54747 -11155055.62145  21539528.2894                   21539524.6024
 -17701340.90647 -13757359.23846  20251758.0084                   20251755.7034
 11  7 23 21 42 30.0000000  0  7G17G24G07G26G11G28G08
   1381692.70347   1129051.45346  21266121.5004                   21266118.2894
    808922.97347    781726.62944  22028800.2424                   22028798.5664
    528098.71147    464335.47345  21841515.7274                   21841513.4304
  14362703.66847  11241603.92244  22914380.8284                   22914379.2664
 -10526840.94547  -8072551.73444  22469489.2344                   22469486.4884
 -14504079.23847 -11264220.31245  21512868.7974                   21512865.0124
 -17791195.06248 -13827375.48446  20234659.2664                   20234656.2464
 11  7 23 21 43  0.0000000  0  7G17G24G07G26G11G28G08
   1220253.18447   1003254.46146  21235399.7114                   21235397.1524
    709713.28147    704420.38744  22009920.9454                   22009919.3834
    491418.55947    435753.46145  21834535.5314                   21834534.0274
  14270191.10546  11169516.16044  22896775.9694                   22896774.7894
 -10578523.73447  -8112824.04344  22459653.9454                   22459651.0434
 -14644083.15247 -11373314.26245  21486226.7344                   21486223.0274
 -17880440.36747 -13896917.30546  20217675.9144                   20217673.1294
 11  7 23 21 43 30.0000000  0  7G17G24G07G26G11G28G08
   1059210.14147    877766.40646  21204754.6644                   21204751.6054
    611102.09047    627580.49244  21991155.8754                   21991154.6334
    455148.27747    407490.85545  21827633.8284                   21827631.2234
  14178243.77047  11097868.85944  22879279.2664                   22879278.1294
 -10629727.02347  -8152722.71144  22449910.5234                   22449907.2664
 -14783995.47347 -11482336.85545  21459602.4144                   21459598.8834
 -17969076.65648 -13965984.54746  20200809.3914                   20200806.8244
 11  7 23 21 44  0.0000000  0  7G17G24G07G26G11G28G08
    898558.17247    752583.09846  21174183.0394                   21174180.5784
    513083.75447    551202.56644  21972503.7664                   21972502.4534
    419281.02747    379542.27345  21820808.8524                   21820806.7074
  14086854.63747  11026656.51644  22861887.6644                   22861886.6254
 -10680458.53547  -8192253.78944  22440256.2734                   22440253.7344
 -14923821.24248 -11591291.99645  21432994.3834                   21432990.8634
 -18057109.56247 -14034581.63346  20184056.7894                   20184054.7664
 11  7 23 21 44 30.0000000  0  7G17G24G07G26G11G28G08
    738297.92647    627705.02046  21143686.5234                   21143684.1764
    415658.50847    475286.81344  21953964.2034                   21953962.7814
    383816.23847    351907.30145  21814060.7894                   21814058.3094
  13996022.32047  10955878.03544  22844603.2894                   22844603.1024
 -10730719.66847  -8231418.34844  22430692.3524                   22430689.1214
 -15063558.69147 -11700178.32845  21406403.5394                   21406399.7344
 -18144538.11347 -14102707.79746  20167419.7194                   20167417.5594
 11  7 23 21 45  0.0000000  0  7G17G24G07G26G11G28G08
    578430.84847    503133.29346  21113265.0234                   21113262.2774
    318827.66447    399834.23444  21935537.5704                   21935536.4304
    348753.23447    324585.43445  21807388.0394                   21807385.4534
  13905746.50847  10885533.21944  22827424.2034                   22827423.5704
 -10780510.78147  -8270216.62944  22421217.0474                   22421214.2814
 -15203205.62548 -11808994.12145  21379829.2974                   21379825.6334
 -18231361.28948 -14170362.23846  20150897.7584                   20150895.1374
 11  7 23 21 45 30.0000000  0  7G17G24G07G26G11G28G08
    418965.59847    378874.69146  21082919.6254                   21082917.0554
    222599.50847    324851.27044  21917225.8134                   21917224.6484
    314099.13347    297582.18045  21800793.4144                   21800791.3134
  13816034.21546  10815627.49244  22810352.8674                   22810351.9304
 -10829825.54747  -8308643.75844  22411832.6334                   22411829.7344
 -15342752.46948 -11917731.92645  21353274.4304                   21353270.4804
 -18317570.21547 -14237538.03946  20134493.2194                   20134490.4184
 11  7 23 21 46  0.0000000  0  7G17G24G07G26G11G28G08
    259888.31648    254918.38746  21052648.4144                   21052646.0204
    126959.94947    250326.93444  21899026.2424                   21899025.4024
    279838.62147    270885.61745  21794273.9144                   21794272.2274
  13726869.79347  10746148.68044  22793386.1414                   22793384.9064
 -10878679.34047  -8346711.68044  22402536.7894                   22402533.5554
 -15482212.28148 -12026401.91045  21326736.3444                   21326732.2304
 -18403178.34848 -14304245.69546  20118202.4454                   20118199.7114
 11  7 23 21 46 30.0000000  0  7G17G24G07G26G11G28G08
    101207.51647    131271.02746  21022452.3754                   21022449.9144
     31917.63747    176267.98045  21880940.9454                   21880939.5864
    245978.95347    244501.39545  21787830.6254                   21787828.8404
  13638259.97347  10677102.05944  22776523.9614                   22776522.6024
 -10927065.52047  -8384415.21144  22393328.3444                   22393325.5864
 -15621575.43448 -12134996.57845  21300216.4064                   21300212.7934
 -18488177.01647 -14370478.43446  20102027.8914                   20102025.0784
 11  7 23 21 47  0.0000000  0  7G17G24G07G26G11G28G08
    -57080.25447      7929.92646  20992331.3134                   20992328.5744
    -62531.71947    102671.08244  21862967.9774                   21862965.6724
    212514.38347    218425.04345  21781462.4384                   21781460.9064
  13550199.37147  10608483.37144  22759766.3284                   22759765.2734
 -10974990.16847  -8421759.10944  22384208.7034                   22384205.9734
 -15760844.95747 -12243518.28545  21273713.7584                   21273710.4184
 -18572570.21948 -14436239.39146  20085968.0554                   20085965.9774
 11  7 23 21 47 30.0000000  0  7G17G24G07G26G11G28G08
   1360446.06348   1112495.90646  21262077.4384                   21262074.9224
   1419030.75447   1257135.34844  22144900.1334                   22144897.9694
   1754860.16047   1420252.85545  22074961.3444                   22074959.6524
  15038104.69946  11767890.09844  23042905.0004                   23042904.3594
  -9447037.77047  -7231146.87144  22674969.0474                   22674965.5594
 -14324599.46147 -11124365.94145  21547022.5164                   21547018.7344
 -17080939.03948 -13273929.39846  20369815.9924                   20369814.0434
 11  7 23 21 48  0.0000000  0  7G17G24G07G26G11G28G08
   1202932.33648    989757.96946  21232103.6804                   21232100.9344
   1325754.79347   1184452.76644  22127150.0634                   22127147.8204
   1722169.15647   1394779.28545  22068740.6024                   22068738.8554
  14951124.77047  11700113.48844  23026353.1334                   23026352.5984
  -9494057.25847  -7267785.46544  22666020.8594                   22666018.4964
 -14463690.69948 -11232748.72745  21520554.2664                   21520550.9494
 -17164133.04747 -13338755.91446  20353984.8674                   20353982.6134
 11  7 23 21 48 30.0000000  0  7G17G24G07G26G11G28G08
   1045799.74648    867316.99246  21202202.2734                   21202199.7734
   1233058.95747   1112222.24644  22109509.9694                   22109508.9804
   1689856.55547   1369600.56645  22062592.0554                   22062589.7074
  14864676.50847  11632751.20344  23009903.0554                   23009901.5904
  -9540633.38747  -7304078.57044  22657158.1414                   22657155.3204
 -14602697.22748 -11341065.49645  21494102.1024                   21494098.3014
 -17246733.70748 -13403120.09446  20338266.7274                   20338264.5044
 11  7 23 21 49  0.0000000  0  7G17G24G07G26G11G28G08
    889045.39547    745170.77746  21172373.1484                   21172370.4774
   1140940.16047   1040441.35944  22091980.6724                   22091979.3444
   1657918.12947   1344713.42245  22056514.3444                   22056511.7194
  14778755.14847  11565799.46944  22993552.9924                   22993551.7974
  -9586770.79747  -7340029.82044  22648378.0784                   22648375.7974
 -14741621.11347 -11449317.87145  21467666.0474                   21467662.4844
 -17328743.39547 -13467023.76246  20322660.5234                   20322658.0864
 11  7 23 21 49 30.0000000  0  7G17G24G07G26G11G28G08
    732671.95348    623321.36746  21142615.9614                   21142613.0944
   1049400.60947    969111.84844  22074560.9534                   22074560.0744
   1626354.27747   1320118.15645  22050507.9924                   22050505.2074
  14693361.43046  11499258.92243  22977302.2424                   22977301.5634
  -9632468.57847  -7375638.53544  22639682.4064                   22639679.8634
 -14880458.28947 -11557502.67245  21441246.0474                   21441242.2074
 -17410159.53147 -13530464.93046  20307167.5704                   20307164.9454
 11  7 23 21 50  0.0000000  0  7G17G24G07G26G11G28G08
    576675.66448    501765.84046  21112930.8754                   21112927.7974
    958436.05947    898230.36344  22057250.8284                   22057249.6914
   1595160.00447   1295810.87145  22044571.5164                   22044569.9024
  14608489.77747  11433125.15644  22961152.1724                   22961151.2194
  -9677732.52047  -7410909.14544  22631068.8444                   22631066.4384
 -15019211.66447 -11665622.18445  21414842.3984                   21414838.6884
 -17490986.50848 -13593447.01246  20291787.4384                   20291784.3754
 11  7 23 21 50 30.0000000  0  7G17G24G07G26G11G28G08
    421049.72348    380498.89546  21083316.2734                   21083313.5704
    868039.64547    827791.58644  22040049.3444                   22040048.5904
   1564326.78947   1271784.92245  22038704.7664                   22038702.2854
  14524131.55547  11367391.48044  22945100.2034                   22945098.4414
  -9722571.74647  -7445848.82443  22622536.3444                   22622533.0164
 -15157887.17647 -11773681.00845  21388453.2974                   21388449.6604
 -17571230.87547 -13655975.10546  20276516.7974                   20276514.6644
 11  7 23 21 51  0.0000000  0  7G17G24G07G26G11G28G08
    265812.66848    259534.99646  21053775.5864                   21053773.0744
    778229.36747    757809.53144  22022958.6564                   22022957.9844
   1533871.54347   1248053.51245  22032908.5784                   22032906.6914
  14440303.09447  11302070.57444  22929147.9614                   22929146.5204
  -9766969.69947  -7480444.67244  22614088.0004                   22614085.5944
 -15296465.19147 -11881663.86745  21362082.3754                   21362078.5314
 -17650874.04348 -13718034.75446  20261361.3754                   20261358.7854
 11  7 23 21 51 30.0000000  0  7G17G24G07G26G11G28G08
    110953.52048    138865.54346  21024306.4694                   21024303.7114
    688993.92247    688275.41044  22005977.9924                   22005976.5044
   1503781.76647   1224606.87145  22027183.3594                   22027181.2624
  14356991.93047  11237152.77744  22913293.7974                   22913293.1024
  -9810939.17647  -7514706.63744  22605720.7344                   22605717.9694
 -15434955.53548 -11989578.39845  21335728.7504                   21335724.9734
 -17729927.18048 -13779634.62146  20246318.1334                   20246315.6684
 11  7 23 21 52  0.0000000  0  7G17G24G07G26G11G28G08
    -43528.02047     18490.34846  20994909.9694                   20994907.7544
    600332.28147    619188.41844  21989106.7504                   21989104.8404
   1474055.19547   1201443.22745  22021526.6024                   22021524.7074
  14274195.34047  11172635.92643  22897538.1564                   22897536.6884
  -9854482.50847  -7548636.52743  22597434.1094                   22597431.3954
 -15573357.43748 -12097424.04745  21309392.0234                   21309387.6844
 -17808390.80548 -13840775.12945  20231387.1024                   20231384.1954
 11  7 23 21 52 30.0000000  0  7G17G24G07G26G11G28G08
   -197632.72748   -101591.21546  20965585.4614                   20965582.4494
    512243.82047    550548.03944  21972343.6644                   21972342.2344
   1444689.83647   1178561.04745  22015937.9534                   22015936.7704
  14191911.38747  11108518.52343  22881880.3204                   22881878.6604
  -9897602.47747  -7582236.53944  22589229.5084                   22589225.8014
 -15711670.18047 -12205200.19945  21283071.8594                   21283068.2154
 -17886265.75848 -13901456.93446  20216567.9534                   20216565.4454
 11  7 23 21 53  0.0000000  0  7G17G24G07G26G11G28G08
   -351363.07448   -221381.06246  20936331.1094                   20936328.3754
    424725.11347    482351.62944  21955689.3364                   21955688.4184
   1415681.28947   1155956.91045  22010418.6254                   22010416.1914
  14110135.09847  11044796.71144  22866317.9924                   22866316.9844
  -9940303.98447  -7615510.46544  22581103.6484                   22581101.0164
 -15849895.59447 -12312908.30945  21256768.4384                   21256764.7544
 -17963554.95347 -13961682.30546  20201859.9144                   20201857.8554
 11  7 23 21 53 30.0000000  0  7G17G24G07G26G11G28G08
   -504729.53947   -340887.35946  20907146.4304                   20907143.4774
    337765.48447    414590.86744  21939141.7584                   21939140.1094
   1387017.42247   1133621.35245  22004963.5474                   22004961.8244
  14028853.89146  10981460.66443  22850851.9614                   22850850.7624
  -9982599.01647  -7648467.67644  22573055.1414                   22573051.6764
 -15988042.80548 -12420555.47345  21230479.5474                   21230476.1454
 -18040268.86348 -14021459.41446  20187262.5944                   20187259.7034
 11  7 23 21 54  0.0000000  0  7G17G24G07G26G11G28G08
    917700.22748    767499.50446  21177825.6334                   21177823.0634
   1826794.43847   1574873.14844  22222494.3754                   22222492.9304
   2934124.82447   2339159.48445  22299368.5944                   22299366.7894
  15523496.01246  12146116.82844  23135272.3594                   23135270.8094
  -8449061.25446  -6453503.21943  22864876.8204                   22864874.8364
 -14550678.84847 -11300531.60545  21504000.6174                   21503997.1094
 -16540978.07848 -12853180.91045  20472568.0864                   20472564.7544
 11  7 23 21 54 30.0000000  0  8G17G24G07G26G11G04G28G08
    765075.30947    648571.02046  21148782.3834                   21148779.2464
   1740964.43847   1507992.60544  22206161.7974                   22206160.5554
   2906158.91847   2317367.80945  22294047.1414                   22294045.1484
  15443212.91046  12083558.52343  23119994.1334                   23119993.8834
  -8490536.67646  -6485821.77043  22856984.9614                   22856982.2624
  46961351.39556  36647984.39553  24380160.5474                   24380164.2234
 -14688652.80547 -11408043.78145  21477745.3204                   21477741.6804
 -16616529.10248 -12912051.84046  20458191.0004                   20458188.4734
 11  7 23 21 55  0.0000000  0  8G17G24G07G26G11G04G28G08
    612814.30148    529926.12146  21119807.8204                   21119805.2114
   1655692.21147   1441546.69544  22189935.3914                   22189933.6884
   2878533.16047   2295841.18045  22288790.3054                   22288788.5514
  15363419.60946  12021381.84843  23104810.6024                   23104809.7974
  -8531611.39546  -6517828.05943  22849168.9064                   22849166.3834
  46727205.10946  36465533.07043  24335602.5164                   24335608.5234
 -14826544.67247 -11515491.98445  21451505.8674                   21451501.8984
 -16691505.09047 -12970474.71546  20443923.5394                   20443920.5164
